| time (UTC) | temp F | wind direction | speed knots | gust knots | rain 1hr in | rain 24hr in | rain mn in | humidity % | barometer mb |
| 20260509043834 | 55 | 212 | 5.2 | 13.0 | 0.01 | 0.10 | 0.00 | 91 | 970.6 |
| 20260509043734 | 55 | 179 | 6.1 | 13.0 | 0.01 | 0.10 | 0.00 | 91 | 970.6 |
| 20260509043633 | 55 | 236 | 5.2 | 13.0 | 0.01 | 0.10 | 0.00 | 91 | 970.6 |
| 20260509043534 | 55 | 233 | 6.1 | 13.0 | 0.01 | 0.10 | 0.00 | 91 | 970.6 |
| 20260509043438 | 55 | 222 | 6.1 | 13.0 | 0.01 | 0.10 | 0.00 | 91 | 970.6 |
| 20260509043335 | 55 | 242 | 6.1 | 13.0 | 0.01 | 0.10 | 0.00 | 92 | 970.6 |
| 20260509043233 | 54 | 238 | 5.2 | 13.0 | 0.01 | 0.10 | 0.00 | 92 | 970.6 |
| 20260509043132 | 54 | 195 | 6.1 | 9.6 | 0.01 | 0.10 | 0.00 | 92 | 970.5 |
| 20260509043030 | 54 | 193 | 6.1 | 9.6 | 0.01 | 0.10 | 0.00 | 92 | 970.6 |
| 20260509042932 | 54 | 211 | 6.1 | 10.4 | 0.01 | 0.10 | 0.00 | 92 | 970.6 |
| 20260509042834 | 54 | 195 | 6.1 | 10.4 | 0.01 | 0.10 | 0.00 | 92 | 970.6 |
| 20260509042734 | 54 | 218 | 6.1 | 10.4 | 0.01 | 0.10 | 0.00 | 92 | 970.6 |
| 20260509042633 | 54 | 235 | 6.1 | 10.4 | 0.01 | 0.10 | 0.00 | 92 | 970.5 |
| 20260509042534 | 54 | 214 | 6.1 | 10.4 | 0.01 | 0.10 | 0.00 | 92 | 970.5 |
| 20260509042430 | 54 | 188 | 6.1 | 10.4 | 0.01 | 0.10 | 0.00 | 92 | 970.5 |
| 20260509042330 | 54 | 207 | 6.1 | 10.4 | 0.01 | 0.10 | 0.00 | 92 | 970.5 |
| 20260509042231 | 54 | 198 | 6.1 | 12.2 | 0.01 | 0.10 | 0.00 | 92 | 970.5 |
| 20260509042130 | 54 | 210 | 6.1 | 12.2 | 0.01 | 0.10 | 0.00 | 92 | 970.5 |
| 20260509042031 | 54 | 193 | 6.1 | 12.2 | 0.01 | 0.10 | 0.00 | 92 | 970.5 |
| 20260509041935 | 54 | 221 | 6.1 | 12.2 | 0.01 | 0.10 | 0.00 | 92 | 970.5 |
| 20260509041830 | 54 | 222 | 6.1 | 12.2 | 0.01 | 0.10 | 0.00 | 92 | 970.5 |
| 20260509041731 | 54 | 207 | 6.1 | 12.2 | 0.01 | 0.10 | 0.00 | 92 | 970.5 |
| 20260509041634 | 54 | 221 | 6.1 | 12.2 | 0.01 | 0.10 | 0.00 | 92 | 970.5 |
| 20260509041530 | 54 | 195 | 6.1 | 12.2 | 0.01 | 0.10 | 0.00 | 92 | 970.4 |
| 20260509041430 | 54 | 228 | 6.1 | 12.2 | 0.01 | 0.10 | 0.00 | 92 | 970.4 |
| 20260509041329 | 54 | 218 | 6.1 | 12.2 | 0.01 | 0.10 | 0.00 | 92 | 970.5 |
| 20260509041233 | 54 | 226 | 6.1 | 11.3 | 0.01 | 0.10 | 0.00 | 92 | 970.5 |
| 20260509041129 | 54 | 237 | 6.1 | 11.3 | 0.01 | 0.10 | 0.00 | 92 | 970.4 |
| 20260509041030 | 54 | 217 | 6.1 | 11.3 | 0.01 | 0.10 | 0.00 | 92 | 970.5 |
| 20260509040930 | 54 | 199 | 6.1 | 13.0 | 0.01 | 0.10 | 0.00 | 92 | 970.5 |
| 20260509040831 | 54 | 226 | 6.1 | 13.0 | 0.01 | 0.10 | 0.00 | 92 | 970.5 |
| 20260509040732 | 54 | 219 | 7.0 | 13.0 | 0.01 | 0.10 | 0.00 | 92 | 970.5 |
| 20260509040629 | 54 | 248 | 7.0 | 13.0 | 0.01 | 0.10 | 0.00 | 92 | 970.5 |
| 20260509040529 | 54 | 219 | 7.0 | 13.0 | 0.01 | 0.10 | 0.00 | 92 | 970.5 |
| 20260509040428 | 55 | 231 | 7.0 | 13.0 | 0.01 | 0.10 | 0.00 | 91 | 970.5 |
| 20260509040331 | 55 | 188 | 7.0 | 13.0 | 0.01 | 0.10 | 0.00 | 91 | 970.5 |
| 20260509040229 | 55 | 181 | 7.8 | 13.0 | 0.01 | 0.10 | 0.00 | 91 | 970.6 |
| 20260509040133 | 55 | 204 | 7.8 | 13.0 | 0.01 | 0.10 | 0.00 | 91 | 970.6 |
| 20260509040030 | 55 | 247 | 7.0 | 13.0 | 0.01 | 0.10 | 0.00 | 91 | 970.6 |
| 20260509035930 | 55 | 195 | 7.0 | 13.0 | 0.01 | 0.10 | 0.10 | 91 | 970.6 |
| 20260509035831 | 55 | 234 | 7.0 | 13.0 | 0.01 | 0.10 | 0.10 | 91 | 970.6 |
| 20260509035735 | 55 | 258 | 7.0 | 13.0 | 0.01 | 0.10 | 0.10 | 91 | 970.6 |
| 20260509035631 | 55 | 221 | 7.0 | 13.0 | 0.01 | 0.10 | 0.10 | 91 | 970.6 |
| 20260509035530 | 55 | 213 | 7.0 | 13.0 | 0.00 | 0.09 | 0.10 | 91 | 970.6 |
| 20260509035430 | 55 | 219 | 7.0 | 13.0 | 0.00 | 0.09 | 0.09 | 91 | 970.6 |
| 20260509035331 | 55 | 197 | 7.0 | 13.0 | 0.00 | 0.09 | 0.09 | 91 | 970.6 |
| 20260509035230 | 55 | 198 | 7.0 | 13.0 | 0.00 | 0.09 | 0.09 | 91 | 970.6 |
| 20260509035131 | 55 | 217 | 7.0 | 12.2 | 0.00 | 0.09 | 0.09 | 91 | 970.6 |
| 20260509035032 | 55 | 229 | 7.0 | 11.3 | 0.00 | 0.09 | 0.09 | 91 | 970.6 |
| 20260509034929 | 55 | 217 | 6.1 | 11.3 | 0.00 | 0.09 | 0.09 | 90 | 970.6 |
| 20260509034830 | 55 | 205 | 6.1 | 10.4 | 0.00 | 0.09 | 0.09 | 90 | 970.6 |
| 20260509034728 | 55 | 234 | 6.1 | 10.4 | 0.00 | 0.09 | 0.09 | 91 | 970.6 |
| 20260509034631 | 55 | 171 | 6.1 | 10.4 | 0.00 | 0.09 | 0.09 | 91 | 970.6 |
| 20260509034531 | 55 | 266 | 6.1 | 10.4 | 0.00 | 0.09 | 0.09 | 90 | 970.7 |
| 20260509034430 | 55 | 243 | 6.1 | 14.8 | 0.00 | 0.09 | 0.09 | 90 | 970.6 |
| 20260509034329 | 55 | 216 | 6.1 | 14.8 | 0.00 | 0.09 | 0.09 | 90 | 970.6 |
| 20260509034229 | 55 | 203 | 6.1 | 14.8 | 0.00 | 0.09 | 0.09 | 90 | 970.7 |
| 20260509034130 | 55 | 221 | 6.1 | 14.8 | 0.00 | 0.09 | 0.09 | 90 | 970.7 |
| 20260509034030 | 55 | 236 | 6.1 | 14.8 | 0.00 | 0.09 | 0.09 | 90 | 970.7 |
| 20260509033932 | 55 | 218 | 7.0 | 14.8 | 0.00 | 0.09 | 0.09 | 90 | 970.7 |
| 20260509033833 | 55 | 250 | 7.0 | 14.8 | 0.00 | 0.09 | 0.09 | 90 | 970.7 |
| 20260509033731 | 55 | 217 | 7.0 | 14.8 | 0.00 | 0.09 | 0.09 | 90 | 970.8 |
| 20260509033631 | 55 | 222 | 7.0 | 14.8 | 0.00 | 0.09 | 0.09 | 90 | 970.8 |
| 20260509033530 | 55 | 228 | 7.0 | 14.8 | 0.00 | 0.09 | 0.09 | 90 | 970.8 |
| 20260509033432 | 55 | 214 | 7.0 | 13.0 | 0.00 | 0.09 | 0.09 | 90 | 970.8 |
| 20260509033328 | 55 | 239 | 7.0 | 13.0 | 0.00 | 0.09 | 0.09 | 90 | 970.8 |
| 20260509033230 | 55 | 239 | 7.0 | 13.0 | 0.00 | 0.09 | 0.09 | 90 | 970.7 |
| 20260509033131 | 55 | 256 | 7.0 | 13.0 | 0.00 | 0.09 | 0.09 | 90 | 970.7 |
| 20260509033031 | 55 | 213 | 6.1 | 13.0 | 0.00 | 0.09 | 0.09 | 90 | 970.7 |
| 20260509032929 | 55 | 203 | 7.0 | 13.0 | 0.00 | 0.09 | 0.09 | 90 | 970.8 |
| 20260509032830 | 55 | 219 | 6.1 | 13.0 | 0.00 | 0.09 | 0.09 | 90 | 970.8 |
| 20260509032729 | 55 | 214 | 6.1 | 13.0 | 0.00 | 0.09 | 0.09 | 90 | 970.8 |
| 20260509032631 | 55 | 212 | 6.1 | 13.0 | 0.00 | 0.09 | 0.09 | 90 | 970.8 |
| 20260509032531 | 55 | 255 | 6.1 | 13.0 | 0.00 | 0.09 | 0.09 | 89 | 970.8 |
| 20260509032431 | 55 | 252 | 6.1 | 13.0 | 0.00 | 0.09 | 0.09 | 89 | 970.9 |
| 20260509032330 | 55 | 221 | 6.1 | 13.0 | 0.00 | 0.09 | 0.09 | 89 | 970.9 |
| 20260509032231 | 55 | 231 | 5.2 | 12.2 | 0.00 | 0.09 | 0.09 | 89 | 971.0 |
| 20260509032130 | 55 | 229 | 6.1 | 12.2 | 0.00 | 0.09 | 0.09 | 89 | 970.9 |
| 20260509032030 | 55 | 227 | 5.2 | 12.2 | 0.00 | 0.09 | 0.09 | 89 | 971.0 |
| 20260509031931 | 55 | 217 | 5.2 | 12.2 | 0.00 | 0.09 | 0.09 | 89 | 971.0 |
| 20260509031830 | 55 | 238 | 5.2 | 12.2 | 0.00 | 0.09 | 0.09 | 89 | 971.1 |
| 20260509031730 | 55 | 216 | 6.1 | 12.2 | 0.00 | 0.09 | 0.09 | 89 | 971.0 |
| 20260509031631 | 55 | 229 | 5.2 | 12.2 | 0.00 | 0.09 | 0.09 | 89 | 971.1 |
| 20260509031529 | 55 | 235 | 5.2 | 12.2 | 0.00 | 0.09 | 0.09 | 89 | 971.0 |
| 20260509031432 | 55 | 245 | 6.1 | 12.2 | 0.00 | 0.09 | 0.09 | 89 | 971.0 |
| 20260509031330 | 55 | 231 | 7.0 | 13.9 | 0.00 | 0.09 | 0.09 | 89 | 970.9 |
| 20260509031231 | 55 | 239 | 7.0 | 13.9 | 0.00 | 0.09 | 0.09 | 89 | 971.0 |
| 20260509031134 | 55 | 253 | 7.0 | 13.9 | 0.00 | 0.09 | 0.09 | 89 | 970.9 |
| 20260509031032 | 55 | 230 | 7.0 | 13.9 | 0.00 | 0.09 | 0.09 | 89 | 970.9 |
| 20260509030930 | 55 | 213 | 7.0 | 13.9 | 0.00 | 0.09 | 0.09 | 89 | 970.9 |
| 20260509030830 | 55 | 215 | 7.0 | 13.9 | 0.00 | 0.09 | 0.09 | 89 | 970.9 |
| 20260509030730 | 55 | 219 | 7.0 | 13.9 | 0.00 | 0.09 | 0.09 | 89 | 970.9 |
| 20260509030633 | 55 | 218 | 7.8 | 14.8 | 0.00 | 0.09 | 0.09 | 89 | 970.9 |
| 20260509030531 | 55 | 219 | 7.8 | 14.8 | 0.00 | 0.09 | 0.09 | 89 | 971.0 |
| 20260509030432 | 55 | 244 | 7.8 | 14.8 | 0.00 | 0.09 | 0.09 | 89 | 971.0 |
| 20260509030330 | 55 | 219 | 7.8 | 14.8 | 0.00 | 0.09 | 0.09 | 89 | 971.0 |
| 20260509030230 | 55 | 221 | 7.0 | 14.8 | 0.00 | 0.09 | 0.09 | 89 | 971.1 |
| 20260509030130 | 55 | 189 | 7.0 | 14.8 | 0.00 | 0.09 | 0.09 | 89 | 971.0 |
| 20260509030029 | 55 | 258 | 7.0 | 14.8 | 0.00 | 0.09 | 0.09 | 89 | 971.0 |
| 20260509025930 | 55 | 185 | 7.0 | 14.8 | 0.00 | 0.09 | 0.09 | 89 | 971.0 |
| 20260509025829 | 55 | 243 | 7.0 | 14.8 | 0.00 | 0.09 | 0.09 | 89 | 971.0 |
| 20260509025733 | 55 | 233 | 7.0 | 14.8 | 0.00 | 0.09 | 0.09 | 90 | 971.1 |
| 20260509025631 | 55 | 233 | 7.0 | 12.2 | 0.00 | 0.09 | 0.09 | 90 | 971.1 |
| 20260509025531 | 55 | 219 | 6.1 | 12.2 | 0.00 | 0.09 | 0.09 | 90 | 971.0 |
| 20260509025431 | 55 | 227 | 6.1 | 12.2 | 0.00 | 0.09 | 0.09 | 90 | 971.0 |
| 20260509025330 | 55 | 213 | 6.1 | 12.2 | 0.01 | 0.09 | 0.09 | 90 | 971.0 |
| 20260509025230 | 55 | 184 | 5.2 | 12.2 | 0.01 | 0.09 | 0.09 | 90 | 971.1 |
| 20260509025132 | 55 | 238 | 5.2 | 12.2 | 0.01 | 0.09 | 0.09 | 90 | 971.1 |
| 20260509025032 | 55 | 247 | 5.2 | 12.2 | 0.01 | 0.09 | 0.09 | 90 | 971.0 |
| 20260509024933 | 55 | 193 | 5.2 | 10.4 | 0.01 | 0.09 | 0.09 | 90 | 971.0 |
| 20260509024831 | 55 | 203 | 5.2 | 10.4 | 0.01 | 0.09 | 0.09 | 90 | 971.1 |
| 20260509024729 | 55 | 211 | 5.2 | 12.2 | 0.01 | 0.09 | 0.09 | 90 | 971.1 |
| 20260509024632 | 55 | 201 | 5.2 | 12.2 | 0.01 | 0.09 | 0.09 | 90 | 971.0 |
| 20260509024529 | 55 | 250 | 5.2 | 12.2 | 0.01 | 0.09 | 0.09 | 90 | 971.0 |
| 20260509024432 | 55 | 250 | 5.2 | 12.2 | 0.01 | 0.09 | 0.09 | 90 | 971.1 |
| 20260509024332 | 55 | 225 | 6.1 | 12.2 | 0.01 | 0.09 | 0.09 | 90 | 971.1 |
| 20260509024229 | 55 | 243 | 6.1 | 12.2 | 0.01 | 0.09 | 0.09 | 90 | 971.2 |
| 20260509024132 | 55 | 215 | 6.1 | 12.2 | 0.01 | 0.09 | 0.09 | 90 | 971.2 |
| 20260509024031 | 55 | 243 | 6.1 | 12.2 | 0.01 | 0.09 | 0.09 | 90 | 971.2 |
| 20260509023932 | 55 | 271 | 6.1 | 12.2 | 0.01 | 0.09 | 0.09 | 90 | 971.2 |
| 20260509023830 | 55 | 205 | 6.1 | 12.2 | 0.01 | 0.09 | 0.09 | 90 | 971.2 |
| 20260509023731 | 55 | 207 | 6.1 | 12.2 | 0.01 | 0.09 | 0.09 | 90 | 971.2 |
| 20260509023632 | 55 | 233 | 6.1 | 12.2 | 0.01 | 0.09 | 0.09 | 90 | 971.1 |
| 20260509023533 | 55 | 223 | 6.1 | 12.2 | 0.01 | 0.09 | 0.09 | 90 | 971.1 |
| 20260509023429 | 55 | 220 | 6.1 | 12.2 | 0.01 | 0.09 | 0.09 | 90 | 971.1 |
| 20260509023332 | 55 | 192 | 6.1 | 12.2 | 0.01 | 0.09 | 0.09 | 90 | 971.1 |
| 20260509023231 | 55 | 233 | 6.1 | 12.2 | 0.01 | 0.09 | 0.09 | 90 | 971.1 |
| 20260509023131 | 55 | 260 | 5.2 | 12.2 | 0.01 | 0.09 | 0.09 | 90 | 971.1 |
| 20260509023029 | 55 | 203 | 5.2 | 12.2 | 0.01 | 0.09 | 0.09 | 90 | 971.1 |
| 20260509022930 | 55 | 224 | 5.2 | 11.3 | 0.01 | 0.09 | 0.09 | 90 | 971.1 |
| 20260509022829 | 55 | 238 | 5.2 | 11.3 | 0.01 | 0.09 | 0.09 | 90 | 971.1 |
| 20260509022730 | 55 | 227 | 5.2 | 10.4 | 0.01 | 0.09 | 0.09 | 90 | 971.1 |
| 20260509022634 | 55 | 291 | 5.2 | 10.4 | 0.01 | 0.09 | 0.09 | 90 | 971.1 |
| 20260509022529 | 55 | 217 | 5.2 | 10.4 | 0.01 | 0.09 | 0.09 | 90 | 971.1 |
| 20260509022431 | 55 | 207 | 5.2 | 10.4 | 0.01 | 0.09 | 0.09 | 90 | 971.1 |
| 20260509022329 | 55 | 225 | 5.2 | 10.4 | 0.01 | 0.09 | 0.09 | 90 | 971.1 |
| 20260509022230 | 55 | 197 | 5.2 | 10.4 | 0.01 | 0.09 | 0.09 | 90 | 971.1 |
| 20260509022131 | 55 | 231 | 5.2 | 10.4 | 0.01 | 0.09 | 0.09 | 90 | 971.1 |
| 20260509022031 | 55 | 191 | 5.2 | 10.4 | 0.01 | 0.09 | 0.09 | 90 | 971.1 |
| 20260509021930 | 55 | 265 | 5.2 | 10.4 | 0.01 | 0.09 | 0.09 | 90 | 971.1 |
| 20260509021832 | 55 | 231 | 5.2 | 10.4 | 0.01 | 0.09 | 0.09 | 90 | 971.2 |
| 20260509021730 | 55 | 232 | 5.2 | 10.4 | 0.01 | 0.09 | 0.09 | 90 | 971.2 |
| 20260509021636 | 55 | 221 | 5.2 | 10.4 | 0.01 | 0.09 | 0.09 | 90 | 971.2 |
| 20260509021530 | 55 | 224 | 5.2 | 10.4 | 0.01 | 0.09 | 0.09 | 90 | 971.2 |
| 20260509021430 | 55 | 268 | 5.2 | 10.4 | 0.01 | 0.09 | 0.09 | 90 | 971.2 |
| 20260509021328 | 55 | 204 | 5.2 | 10.4 | 0.01 | 0.09 | 0.09 | 90 | 971.2 |
| 20260509021229 | 55 | 238 | 5.2 | 10.4 | 0.01 | 0.09 | 0.09 | 90 | 971.2 |
| 20260509021130 | 55 | 214 | 4.3 | 10.4 | 0.01 | 0.09 | 0.09 | 90 | 971.2 |
| 20260509021032 | 55 | 235 | 4.3 | 10.4 | 0.01 | 0.09 | 0.09 | 90 | 971.2 |
| 20260509020930 | 55 | 240 | 4.3 | 10.4 | 0.01 | 0.09 | 0.09 | 90 | 971.2 |
| 20260509020837 | 55 | 215 | 4.3 | 10.4 | 0.01 | 0.09 | 0.09 | 90 | 971.2 |
| 20260509020730 | 55 | 220 | 5.2 | 10.4 | 0.01 | 0.09 | 0.09 | 90 | 971.2 |
| 20260509020630 | 55 | 217 | 5.2 | 10.4 | 0.01 | 0.09 | 0.09 | 90 | 971.2 |
| 20260509020529 | 55 | 245 | 5.2 | 10.4 | 0.01 | 0.09 | 0.09 | 90 | 971.2 |
| 20260509020429 | 55 | 178 | 5.2 | 10.4 | 0.01 | 0.09 | 0.09 | 90 | 971.2 |
| 20260509020329 | 55 | 225 | 5.2 | 10.4 | 0.01 | 0.09 | 0.09 | 90 | 971.2 |
| 20260509020230 | 55 | 216 | 5.2 | 10.4 | 0.01 | 0.09 | 0.09 | 90 | 971.2 |
| 20260509020131 | 55 | 236 | 5.2 | 10.4 | 0.01 | 0.09 | 0.09 | 90 | 971.2 |
| 20260509020032 | 55 | 254 | 5.2 | 10.4 | 0.01 | 0.09 | 0.09 | 90 | 971.1 |
| 20260509015930 | 55 | 212 | 5.2 | 10.4 | 0.01 | 0.09 | 0.09 | 90 | 971.1 |
| 20260509015832 | 55 | 227 | 5.2 | 10.4 | 0.01 | 0.09 | 0.09 | 90 | 971.1 |
| 20260509015730 | 55 | 215 | 5.2 | 10.4 | 0.01 | 0.09 | 0.09 | 90 | 971.1 |
| 20260509015630 | 55 | 214 | 5.2 | 10.4 | 0.01 | 0.09 | 0.09 | 90 | 971.1 |
| 20260509015530 | 55 | 255 | 5.2 | 10.4 | 0.01 | 0.09 | 0.09 | 90 | 971.1 |
| 20260509015429 | 55 | 214 | 5.2 | 9.6 | 0.01 | 0.09 | 0.09 | 90 | 971.1 |
| 20260509015329 | 55 | 251 | 5.2 | 10.4 | 0.00 | 0.08 | 0.08 | 90 | 971.1 |
| 20260509015229 | 55 | 232 | 5.2 | 10.4 | 0.00 | 0.08 | 0.08 | 90 | 971.1 |
| 20260509015134 | 55 | 212 | 5.2 | 10.4 | 0.00 | 0.08 | 0.08 | 90 | 971.1 |
| 20260509015032 | 55 | 222 | 5.2 | 10.4 | 0.00 | 0.08 | 0.08 | 90 | 971.0 |
| 20260509014930 | 55 | 220 | 5.2 | 10.4 | 0.00 | 0.08 | 0.08 | 90 | 971.0 |
| 20260509014829 | 55 | 204 | 5.2 | 10.4 | 0.00 | 0.08 | 0.08 | 90 | 971.0 |
| 20260509014732 | 55 | 200 | 5.2 | 10.4 | 0.00 | 0.08 | 0.08 | 90 | 971.1 |
| 20260509014630 | 55 | 195 | 5.2 | 10.4 | 0.00 | 0.08 | 0.08 | 90 | 971.1 |
| 20260509014530 | 55 | 242 | 5.2 | 10.4 | 0.00 | 0.08 | 0.08 | 90 | 971.1 |
| 20260509014435 | 55 | 230 | 5.2 | 12.2 | 0.00 | 0.08 | 0.08 | 90 | 971.1 |
| 20260509014329 | 55 | 207 | 5.2 | 12.2 | 0.00 | 0.08 | 0.08 | 90 | 971.1 |
| 20260509014231 | 55 | 217 | 5.2 | 12.2 | 0.00 | 0.08 | 0.08 | 90 | 971.1 |
| 20260509014129 | 55 | 225 | 6.1 | 12.2 | 0.00 | 0.08 | 0.08 | 90 | 971.1 |
| 20260509014030 | 55 | 205 | 6.1 | 12.2 | 0.00 | 0.08 | 0.08 | 90 | 971.1 |
| 20260509013928 | 55 | 230 | 5.2 | 12.2 | 0.00 | 0.08 | 0.08 | 90 | 971.0 |
| 20260509013830 | 55 | 253 | 6.1 | 12.2 | 0.00 | 0.08 | 0.08 | 90 | 971.0 |
| 20260509013729 | 55 | 202 | 6.1 | 12.2 | 0.00 | 0.08 | 0.08 | 90 | 971.0 |
| 20260509013631 | 55 | 214 | 6.1 | 12.2 | 0.00 | 0.08 | 0.08 | 90 | 971.1 |
| 20260509013533 | 55 | 236 | 5.2 | 12.2 | 0.00 | 0.08 | 0.08 | 90 | 971.1 |
| 20260509013430 | 55 | 176 | 5.2 | 10.4 | 0.00 | 0.08 | 0.08 | 90 | 971.1 |
| 20260509013339 | 55 | 201 | 5.2 | 10.4 | 0.00 | 0.08 | 0.08 | 90 | 971.1 |
| 20260509013230 | 55 | 240 | 5.2 | 10.4 | 0.00 | 0.08 | 0.08 | 90 | 971.1 |
| 20260509013129 | 55 | 198 | 5.2 | 10.4 | 0.00 | 0.08 | 0.08 | 90 | 971.1 |
| 20260509013029 | 55 | 261 | 5.2 | 10.4 | 0.00 | 0.08 | 0.08 | 90 | 971.1 |
| 20260509012930 | 55 | 242 | 5.2 | 11.3 | 0.00 | 0.08 | 0.08 | 90 | 971.1 |
| 20260509012829 | 55 | 226 | 5.2 | 11.3 | 0.00 | 0.08 | 0.08 | 90 | 971.1 |
| 20260509012728 | 55 | 243 | 5.2 | 11.3 | 0.00 | 0.08 | 0.08 | 90 | 971.0 |
| 20260509012629 | 55 | 195 | 5.2 | 11.3 | 0.00 | 0.08 | 0.08 | 90 | 971.0 |
| 20260509012529 | 55 | 235 | 5.2 | 11.3 | 0.00 | 0.08 | 0.08 | 90 | 971.0 |
| 20260509012434 | 55 | 245 | 5.2 | 11.3 | 0.00 | 0.08 | 0.08 | 90 | 971.0 |
| 20260509012331 | 55 | 198 | 5.2 | 11.3 | 0.00 | 0.08 | 0.08 | 90 | 971.0 |
| 20260509012306 | 55 | 186 | 5.2 | 11.3 | 0.00 | 0.08 | 0.08 | 91 | 971.0 |
| 20260509012231 | 55 | 186 | 5.2 | 11.3 | 0.00 | 0.08 | 0.08 | 91 | 971.0 |
| 20260509012131 | 55 | 220 | 5.2 | 11.3 | 0.00 | 0.08 | 0.08 | 91 | 971.0 |
| 20260509012029 | 55 | 228 | 5.2 | 11.3 | 0.00 | 0.08 | 0.08 | 91 | 971.0 |
| 20260509011930 | 55 | 230 | 5.2 | 10.4 | 0.00 | 0.08 | 0.08 | 91 | 971.0 |
| 20260509011833 | 55 | 214 | 4.3 | 10.4 | 0.00 | 0.08 | 0.08 | 91 | 971.0 |
| 20260509011730 | 55 | 257 | 4.3 | 10.4 | 0.00 | 0.08 | 0.08 | 91 | 971.0 |
| 20260509011631 | 55 | 219 | 4.3 | 9.6 | 0.00 | 0.08 | 0.08 | 91 | 971.0 |
| 20260509011530 | 55 | 248 | 4.3 | 9.6 | 0.00 | 0.08 | 0.08 | 91 | 971.0 |
| 20260509011432 | 54 | 233 | 4.3 | 9.6 | 0.00 | 0.08 | 0.08 | 91 | 971.0 |
| 20260509011331 | 54 | 226 | 3.5 | 9.6 | 0.00 | 0.08 | 0.08 | 91 | 971.0 |
| 20260509011230 | 54 | 221 | 3.5 | 7.0 | 0.00 | 0.08 | 0.08 | 91 | 971.1 |
| 20260509011129 | 54 | 246 | 3.5 | 7.0 | 0.00 | 0.08 | 0.08 | 91 | 971.1 |
| 20260509011030 | 54 | 228 | 3.5 | 7.0 | 0.00 | 0.08 | 0.08 | 91 | 971.1 |
| 20260509010929 | 54 | 223 | 3.5 | 7.0 | 0.00 | 0.08 | 0.08 | 91 | 971.1 |
| 20260509010833 | 54 | 240 | 3.5 | 7.0 | 0.00 | 0.08 | 0.08 | 91 | 971.1 |
| 20260509010729 | 54 | 238 | 3.5 | 7.8 | 0.00 | 0.08 | 0.08 | 91 | 971.1 |
| 20260509010631 | 54 | 189 | 3.5 | 7.8 | 0.00 | 0.08 | 0.08 | 91 | 971.1 |
| 20260509010530 | 54 | 244 | 3.5 | 7.8 | 0.00 | 0.08 | 0.08 | 91 | 971.1 |
| 20260509010430 | 54 | 210 | 3.5 | 7.8 | 0.00 | 0.08 | 0.08 | 91 | 971.0 |
| 20260509010331 | 54 | 212 | 3.5 | 7.8 | 0.00 | 0.08 | 0.08 | 91 | 971.0 |
| 20260509010230 | 54 | 220 | 3.5 | 7.8 | 0.00 | 0.08 | 0.08 | 91 | 971.1 |
| 20260509010132 | 54 | 197 | 3.5 | 7.8 | 0.00 | 0.08 | 0.08 | 91 | 971.1 |
| 20260509010030 | 54 | 221 | 3.5 | 9.6 | 0.00 | 0.08 | 0.08 | 91 | 971.1 |
| 20260509005929 | 54 | 233 | 3.5 | 9.6 | 0.00 | 0.08 | 0.08 | 91 | 971.1 |
| 20260509005831 | 54 | 232 | 3.5 | 9.6 | 0.00 | 0.08 | 0.08 | 91 | 971.1 |
| 20260509005732 | 54 | 211 | 2.6 | 9.6 | 0.00 | 0.08 | 0.08 | 91 | 971.1 |
| 20260509005625 | 54 | 221 | 3.5 | 9.6 | 0.00 | 0.08 | 0.08 | 91 | 971.1 |
| 20260509005526 | 54 | 235 | 3.5 | 9.6 | 0.00 | 0.08 | 0.08 | 91 | 971.0 |
| 20260509005427 | 54 | 235 | 3.5 | 9.6 | 0.00 | 0.08 | 0.08 | 91 | 971.0 |
| 20260509005326 | 54 | 234 | 3.5 | 9.6 | 0.01 | 0.08 | 0.08 | 91 | 971.0 |
| 20260509005227 | 55 | 175 | 4.3 | 9.6 | 0.01 | 0.08 | 0.08 | 91 | 971.0 |
| 20260509005132 | 54 | 245 | 4.3 | 9.6 | 0.01 | 0.08 | 0.08 | 91 | 971.0 |
| 20260509005026 | 55 | 237 | 4.3 | 7.8 | 0.01 | 0.08 | 0.08 | 91 | 971.1 |
| 20260509004927 | 55 | 200 | 4.3 | 7.8 | 0.01 | 0.08 | 0.08 | 91 | 971.1 |
| 20260509004825 | 55 | 251 | 4.3 | 7.8 | 0.01 | 0.08 | 0.08 | 91 | 971.0 |
| 20260509004724 | 55 | 207 | 4.3 | 7.8 | 0.01 | 0.08 | 0.08 | 91 | 971.0 |
| 20260509004628 | 55 | 224 | 4.3 | 7.8 | 0.01 | 0.08 | 0.08 | 91 | 971.1 |
| 20260509004526 | 55 | 214 | 4.3 | 7.8 | 0.01 | 0.08 | 0.08 | 91 | 971.1 |
| 20260509004425 | 55 | 219 | 4.3 | 7.8 | 0.01 | 0.08 | 0.08 | 91 | 971.1 |
| 20260509004326 | 55 | 235 | 4.3 | 7.8 | 0.01 | 0.08 | 0.08 | 91 | 971.1 |
| 20260509004226 | 55 | 224 | 4.3 | 8.7 | 0.01 | 0.08 | 0.08 | 91 | 971.1 |
| 20260509004126 | 54 | 236 | 4.3 | 8.7 | 0.01 | 0.08 | 0.08 | 91 | 971.1 |
| 20260509004027 | 55 | 218 | 4.3 | 8.7 | 0.01 | 0.08 | 0.08 | 91 | 971.1 |
| 20260509003925 | 54 | 219 | 4.3 | 8.7 | 0.01 | 0.08 | 0.08 | 91 | 971.0 |
| 20260509003826 | 55 | 245 | 4.3 | 8.7 | 0.01 | 0.08 | 0.08 | 91 | 971.1 |
| 20260509003726 | 55 | 217 | 4.3 | 8.7 | 0.01 | 0.08 | 0.08 | 91 | 971.1 |
| 20260509003622 | 55 | 231 | 4.3 | 8.7 | 0.01 | 0.08 | 0.08 | 91 | 971.1 |
| 20260509003523 | 55 | 162 | 4.3 | 8.7 | 0.02 | 0.08 | 0.08 | 91 | 971.1 |
| 20260509003423 | 55 | 207 | 4.3 | 8.7 | 0.02 | 0.08 | 0.08 | 91 | 971.2 |
| 20260509003321 | 55 | 216 | 4.3 | 8.7 | 0.02 | 0.08 | 0.08 | 91 | 971.2 |
| 20260509003221 | 55 | 212 | 3.5 | 7.8 | 0.02 | 0.08 | 0.08 | 91 | 971.1 |
| 20260509003124 | 55 | 241 | 3.5 | 7.8 | 0.02 | 0.08 | 0.08 | 91 | 971.2 |
| 20260509003022 | 55 | 212 | 3.5 | 7.8 | 0.02 | 0.08 | 0.08 | 91 | 971.2 |
| 20260509002921 | 55 | 210 | 3.5 | 7.8 | 0.02 | 0.08 | 0.08 | 91 | 971.1 |
| 20260509002822 | 55 | 207 | 2.6 | 7.8 | 0.02 | 0.08 | 0.08 | 91 | 971.1 |
| 20260509002722 | 55 | 222 | 2.6 | 7.8 | 0.02 | 0.08 | 0.08 | 91 | 971.2 |
| 20260509002622 | 54 | 181 | 2.6 | 7.8 | 0.02 | 0.08 | 0.08 | 91 | 971.1 |
| 20260509002521 | 55 | 210 | 2.6 | 5.2 | 0.02 | 0.08 | 0.08 | 91 | 971.1 |
| 20260509002422 | 55 | 203 | 2.6 | 5.2 | 0.02 | 0.08 | 0.08 | 91 | 971.1 |
| 20260509002323 | 54 | 176 | 2.6 | 6.1 | 0.02 | 0.08 | 0.08 | 91 | 971.0 |
| 20260509002223 | 55 | 251 | 2.6 | 6.1 | 0.02 | 0.08 | 0.08 | 91 | 971.0 |
| 20260509002122 | 55 | 227 | 2.6 | 6.1 | 0.02 | 0.08 | 0.08 | 90 | 971.0 |
| 20260509002022 | 55 | 203 | 2.6 | 6.1 | 0.02 | 0.08 | 0.08 | 90 | 971.0 |
| 20260509001922 | 55 | 226 | 2.6 | 6.1 | 0.02 | 0.08 | 0.08 | 90 | 971.0 |
| 20260509001819 | 55 | 230 | 2.6 | 6.1 | 0.02 | 0.08 | 0.08 | 90 | 971.0 |
| 20260509001718 | 55 | 207 | 3.5 | 7.0 | 0.02 | 0.08 | 0.08 | 90 | 971.0 |
| 20260509001617 | 55 | 198 | 3.5 | 7.0 | 0.02 | 0.08 | 0.08 | 90 | 971.1 |
| 20260509001518 | 55 | 240 | 3.5 | 7.0 | 0.02 | 0.08 | 0.08 | 90 | 971.1 |
| 20260509001418 | 55 | 231 | 3.5 | 7.0 | 0.02 | 0.08 | 0.08 | 90 | 971.1 |
| 20260509001318 | 55 | 237 | 3.5 | 7.0 | 0.02 | 0.08 | 0.08 | 90 | 971.1 |
| 20260509001222 | 55 | 217 | 4.3 | 7.0 | 0.02 | 0.08 | 0.08 | 90 | 971.1 |
| 20260509001117 | 55 | 261 | 4.3 | 7.0 | 0.02 | 0.08 | 0.08 | 90 | 971.1 |
| 20260509001017 | 55 | 225 | 4.3 | 7.0 | 0.02 | 0.08 | 0.08 | 90 | 971.1 |
| 20260509000918 | 55 | 243 | 4.3 | 7.0 | 0.02 | 0.08 | 0.08 | 90 | 971.1 |
| 20260509000818 | 55 | 244 | 4.3 | 7.0 | 0.02 | 0.08 | 0.08 | 90 | 971.1 |
| 20260509000718 | 55 | 252 | 3.5 | 7.0 | 0.02 | 0.08 | 0.08 | 90 | 971.1 |
| 20260509000621 | 55 | 212 | 3.5 | 6.1 | 0.02 | 0.08 | 0.08 | 90 | 971.2 |
| 20260509000518 | 55 | 237 | 3.5 | 6.1 | 0.02 | 0.08 | 0.08 | 90 | 971.1 |
| 20260509000418 | 55 | 153 | 3.5 | 6.1 | 0.02 | 0.08 | 0.08 | 90 | 971.2 |
| 20260509000318 | 55 | 174 | 3.5 | 6.1 | 0.02 | 0.08 | 0.08 | 90 | 971.1 |
| 20260509000219 | 55 | 221 | 2.6 | 6.1 | 0.02 | 0.08 | 0.08 | 90 | 971.2 |
| 20260509000118 | 55 | 186 | 2.6 | 6.1 | 0.02 | 0.08 | 0.08 | 90 | 971.2 |
| 20260509000021 | 55 | 254 | 2.6 | 5.2 | 0.02 | 0.08 | 0.08 | 90 | 971.2 |
| 20260508235914 | 55 | 221 | 2.6 | 5.2 | 0.02 | 0.08 | 0.08 | 90 | 971.3 |
| 20260508235813 | 55 | 211 | 2.6 | 5.2 | 0.02 | 0.08 | 0.08 | 90 | 971.3 |
| 20260508235716 | 55 | 240 | 2.6 | 5.2 | 0.02 | 0.08 | 0.08 | 90 | 971.3 |
| 20260508235612 | 55 | 220 | 2.6 | 5.2 | 0.02 | 0.08 | 0.08 | 90 | 971.3 |
| 20260508235515 | 55 | 252 | 2.6 | 6.1 | 0.02 | 0.08 | 0.08 | 90 | 971.3 |
| 20260508235414 | 55 | 224 | 2.6 | 6.1 | 0.02 | 0.08 | 0.08 | 90 | 971.3 |
| 20260508235314 | 55 | 212 | 2.6 | 6.1 | 0.01 | 0.07 | 0.08 | 90 | 971.3 |
| 20260508235214 | 55 | 203 | 3.5 | 7.0 | 0.01 | 0.07 | 0.07 | 90 | 971.3 |
| 20260508235114 | 55 | 244 | 3.5 | 7.0 | 0.01 | 0.07 | 0.07 | 90 | 971.4 |
| 20260508235015 | 55 | 174 | 3.5 | 7.0 | 0.01 | 0.07 | 0.07 | 90 | 971.4 |
| 20260508234913 | 55 | 217 | 3.5 | 7.0 | 0.01 | 0.07 | 0.07 | 90 | 971.3 |
| 20260508234813 | 55 | 255 | 3.5 | 7.0 | 0.01 | 0.07 | 0.07 | 90 | 971.3 |
| 20260508234713 | 55 | 213 | 4.3 | 7.0 | 0.01 | 0.07 | 0.07 | 90 | 971.4 |
| 20260508234616 | 55 | 227 | 4.3 | 7.0 | 0.01 | 0.07 | 0.07 | 90 | 971.4 |
| 20260508234514 | 55 | 221 | 4.3 | 7.0 | 0.01 | 0.07 | 0.07 | 90 | 971.4 |
| 20260508234414 | 55 | 250 | 4.3 | 7.0 | 0.01 | 0.07 | 0.07 | 90 | 971.4 |
| 20260508234313 | 55 | 227 | 3.5 | 7.0 | 0.01 | 0.07 | 0.07 | 90 | 971.3 |
| 20260508234214 | 55 | 226 | 3.5 | 9.6 | 0.01 | 0.07 | 0.07 | 90 | 971.3 |
| 20260508234116 | 55 | 197 | 3.5 | 9.6 | 0.01 | 0.07 | 0.07 | 90 | 971.3 |
| 20260508234009 | 55 | 207 | 3.5 | 9.6 | 0.01 | 0.07 | 0.07 | 90 | 971.4 |
| 20260508233909 | 55 | 224 | 3.5 | 9.6 | 0.02 | 0.07 | 0.07 | 90 | 971.3 |
| 20260508233808 | 55 | 242 | 3.5 | 9.6 | 0.02 | 0.07 | 0.07 | 90 | 971.3 |
| 20260508233708 | 55 | 206 | 3.5 | 9.6 | 0.02 | 0.07 | 0.07 | 90 | 971.3 |
| 20260508233607 | 55 | 221 | 4.3 | 9.6 | 0.02 | 0.07 | 0.07 | 90 | 971.3 |
| 20260508233505 | 55 | 209 | 4.3 | 9.6 | 0.01 | 0.06 | 0.07 | 90 | 971.3 |
| 20260508233407 | 55 | 217 | 4.3 | 9.6 | 0.01 | 0.06 | 0.06 | 90 | 971.3 |
| 20260508233305 | 55 | 188 | 4.3 | 9.6 | 0.01 | 0.06 | 0.06 | 90 | 971.3 |
| 20260508233210 | 55 | 210 | 3.5 | 8.7 | 0.01 | 0.06 | 0.06 | 90 | 971.4 |
| 20260508233105 | 55 | 219 | 3.5 | 8.7 | 0.02 | 0.06 | 0.06 | 90 | 971.4 |
| 20260508233004 | 55 | 217 | 3.5 | 8.7 | 0.02 | 0.06 | 0.06 | 90 | 971.3 |
| 20260508232905 | 55 | 259 | 3.5 | 8.7 | 0.02 | 0.06 | 0.06 | 90 | 971.3 |
| 20260508232806 | 55 | 215 | 3.5 | 8.7 | 0.02 | 0.06 | 0.06 | 91 | 971.3 |
| 20260508232708 | 55 | 219 | 3.5 | 8.7 | 0.02 | 0.06 | 0.06 | 91 | 971.3 |
| 20260508232604 | 55 | 238 | 2.6 | 8.7 | 0.02 | 0.06 | 0.06 | 91 | 971.3 |
| 20260508232506 | 55 | 176 | 2.6 | 4.3 | 0.02 | 0.06 | 0.06 | 91 | 971.3 |
| 20260508232406 | 55 | 219 | 2.6 | 4.3 | 0.02 | 0.06 | 0.06 | 91 | 971.4 |
| 20260508232307 | 55 | 231 | 2.6 | 4.3 | 0.02 | 0.06 | 0.06 | 91 | 971.3 |
| 20260508232202 | 55 | 224 | 2.6 | 4.3 | 0.02 | 0.06 | 0.06 | 91 | 971.3 |
| 20260508232103 | 55 | 225 | 2.6 | 4.3 | 0.03 | 0.06 | 0.06 | 91 | 971.3 |
| 20260508232001 | 55 | 207 | 2.6 | 4.3 | 0.03 | 0.06 | 0.06 | 91 | 971.3 |
| 20260508231902 | 55 | 221 | 1.7 | 4.3 | 0.03 | 0.06 | 0.06 | 91 | 971.3 |
| 20260508231804 | 55 | 224 | 2.6 | 4.3 | 0.03 | 0.06 | 0.06 | 91 | 971.2 |
| 20260508231702 | 55 | 164 | 2.6 | 4.3 | 0.03 | 0.06 | 0.06 | 91 | 971.2 |
| 20260508231602 | 55 | 183 | 2.6 | 4.3 | 0.03 | 0.06 | 0.06 | 91 | 971.2 |
| 20260508231503 | 55 | 138 | 2.6 | 4.3 | 0.03 | 0.06 | 0.06 | 91 | 971.2 |
| 20260508231405 | 55 | 168 | 2.6 | 4.3 | 0.04 | 0.06 | 0.06 | 91 | 971.2 |
| 20260508231302 | 55 | 207 | 2.6 | 4.3 | 0.04 | 0.06 | 0.06 | 91 | 971.2 |
| 20260508231159 | 55 | 195 | 2.6 | 4.3 | 0.04 | 0.06 | 0.06 | 91 | 971.2 |
| 20260508231100 | 55 | 182 | 2.6 | 4.3 | 0.04 | 0.06 | 0.06 | 91 | 971.2 |
| 20260508230958 | 55 | 196 | 2.6 | 4.3 | 0.04 | 0.06 | 0.06 | 91 | 971.2 |
| 20260508230858 | 55 | 196 | 2.6 | 4.3 | 0.04 | 0.06 | 0.06 | 91 | 971.2 |
| 20260508230751 | 55 | 183 | 1.7 | 4.3 | 0.05 | 0.06 | 0.06 | 91 | 971.1 |
| 20260508230648 | 55 | 185 | 1.7 | 3.5 | 0.05 | 0.06 | 0.06 | 91 | 971.1 |
| 20260508230549 | 55 | 217 | 1.7 | 3.5 | 0.05 | 0.06 | 0.06 | 91 | 971.2 |
| 20260508230450 | 55 | 219 | 1.7 | 3.5 | 0.05 | 0.06 | 0.06 | 91 | 971.2 |
| 20260508230350 | 55 | 193 | 0.9 | 3.5 | 0.05 | 0.06 | 0.06 | 91 | 971.2 |
| 20260508230246 | 55 | 203 | 0.9 | 3.5 | 0.05 | 0.06 | 0.06 | 91 | 971.1 |
| 20260508230150 | 55 | 207 | 0.9 | 3.5 | 0.05 | 0.06 | 0.06 | 91 | 971.1 |
| 20260508230045 | 55 | 207 | 0.9 | 3.5 | 0.05 | 0.06 | 0.06 | 90 | 971.1 |
| 20260508225947 | 55 | 155 | 0.9 | 2.6 | 0.05 | 0.06 | 0.06 | 90 | 971.1 |
| 20260508225849 | 55 | 162 | 0.9 | 2.6 | 0.05 | 0.06 | 0.06 | 90 | 971.1 |
| 20260508225743 | 55 | 170 | 0.9 | 2.6 | 0.05 | 0.06 | 0.06 | 90 | 971.1 |
| 20260508225645 | 55 | 198 | 0.9 | 2.6 | 0.05 | 0.06 | 0.06 | 90 | 971.2 |
| 20260508225544 | 55 | 198 | 0.9 | 2.6 | 0.05 | 0.06 | 0.06 | 90 | 971.2 |
| 20260508225445 | 55 | 198 | 0.9 | 2.6 | 0.05 | 0.06 | 0.06 | 90 | 971.2 |
| 20260508225341 | 55 | 198 | 0.9 | 2.6 | 0.05 | 0.06 | 0.06 | 90 | 971.3 |
| 20260508225241 | 55 | 198 | 0.9 | 1.7 | 0.05 | 0.06 | 0.06 | 90 | 971.2 |
| 20260508225142 | 55 | 198 | 0.9 | 1.7 | 0.05 | 0.06 | 0.06 | 90 | 971.2 |
| 20260508225040 | 55 | 198 | 0.9 | 1.7 | 0.06 | 0.06 | 0.06 | 90 | 971.3 |
| 20260508224937 | 55 | 198 | 0.9 | 1.7 | 0.06 | 0.06 | 0.06 | 90 | 971.3 |
| 20260508224839 | 55 | 136 | 0.9 | 1.7 | 0.06 | 0.06 | 0.06 | 90 | 971.4 |
| 20260508224739 | 55 | 224 | 0.9 | 1.7 | 0.06 | 0.06 | 0.06 | 90 | 971.4 |
| 20260508224638 | 55 | 224 | 0.9 | 1.7 | 0.06 | 0.06 | 0.06 | 90 | 971.5 |
| 20260508224537 | 55 | 224 | 0.9 | 1.7 | 0.06 | 0.06 | 0.06 | 90 | 971.5 |
| 20260508224437 | 55 | 200 | 0.9 | 1.7 | 0.06 | 0.06 | 0.06 | 90 | 971.5 |
| 20260508224342 | 55 | 186 | 0.9 | 1.7 | 0.06 | 0.06 | 0.06 | 90 | 971.6 |
| 20260508224238 | 55 | 231 | 0.9 | 1.7 | 0.06 | 0.06 | 0.06 | 90 | 971.6 |
| 20260508224136 | 55 | 231 | 0.9 | 1.7 | 0.06 | 0.06 | 0.06 | 90 | 971.6 |
| 20260508224038 | 55 | 231 | 0.9 | 1.7 | 0.06 | 0.06 | 0.06 | 90 | 971.7 |
| 20260508223934 | 55 | 252 | 0.9 | 2.6 | 0.05 | 0.05 | 0.06 | 90 | 971.7 |
| 20260508223831 | 55 | 239 | 0.9 | 2.6 | 0.05 | 0.05 | 0.05 | 90 | 971.6 |
| 20260508223732 | 55 | 239 | 0.9 | 2.6 | 0.05 | 0.05 | 0.05 | 90 | 971.7 |
| 20260508223630 | 55 | 239 | 0.9 | 2.6 | 0.05 | 0.05 | 0.05 | 90 | 971.6 |
| 20260508223532 | 55 | 239 | 0.9 | 2.6 | 0.05 | 0.05 | 0.05 | 90 | 971.6 |
| 20260508223430 | 55 | 239 | 0.9 | 2.6 | 0.05 | 0.05 | 0.05 | 90 | 971.7 |
| 20260508223332 | 55 | 237 | 0.9 | 2.6 | 0.05 | 0.05 | 0.05 | 89 | 971.7 |
| 20260508223231 | 55 | 237 | 0.9 | 2.6 | 0.05 | 0.05 | 0.05 | 89 | 971.7 |
| 20260508223133 | 55 | 237 | 1.7 | 3.5 | 0.05 | 0.05 | 0.05 | 89 | 971.7 |
| 20260508223028 | 55 | 237 | 1.7 | 4.3 | 0.04 | 0.04 | 0.05 | 89 | 971.7 |
| 20260508222934 | 55 | 215 | 1.7 | 6.1 | 0.04 | 0.04 | 0.04 | 89 | 971.7 |
| 20260508222827 | 55 | 259 | 1.7 | 6.1 | 0.04 | 0.04 | 0.04 | 89 | 971.7 |
| 20260508222730 | 55 | 288 | 1.7 | 6.1 | 0.04 | 0.04 | 0.04 | 89 | 971.8 |
| 20260508222626 | 55 | 288 | 1.7 | 6.1 | 0.04 | 0.04 | 0.04 | 88 | 971.8 |
| 20260508222522 | 55 | 288 | 1.7 | 6.1 | 0.04 | 0.04 | 0.04 | 88 | 971.8 |
| 20260508222421 | 55 | 314 | 1.7 | 6.1 | 0.04 | 0.04 | 0.04 | 88 | 971.8 |
| 20260508222321 | 55 | 302 | 1.7 | 6.1 | 0.04 | 0.04 | 0.04 | 88 | 971.9 |
| 20260508222220 | 55 | 304 | 1.7 | 6.1 | 0.04 | 0.04 | 0.04 | 88 | 971.9 |
| 20260508222120 | 55 | 301 | 1.7 | 6.1 | 0.03 | 0.03 | 0.03 | 87 | 971.8 |
| 20260508222015 | 55 | 262 | 1.7 | 6.1 | 0.03 | 0.03 | 0.03 | 87 | 971.8 |
| 20260508221915 | 55 | 299 | 1.7 | 3.5 | 0.03 | 0.03 | 0.03 | 87 | 971.8 |
| 20260508221813 | 56 | 293 | 1.7 | 5.2 | 0.03 | 0.03 | 0.03 | 87 | 971.8 |
| 20260508221718 | 56 | 335 | 1.7 | 5.2 | 0.03 | 0.03 | 0.03 | 87 | 971.9 |
| 20260508221614 | 56 | 291 | 1.7 | 5.2 | 0.03 | 0.03 | 0.03 | 86 | 971.8 |
| 20260508221515 | 56 | 269 | 1.7 | 5.2 | 0.03 | 0.03 | 0.03 | 86 | 971.8 |
| 20260508221415 | 56 | 278 | 1.7 | 5.2 | 0.02 | 0.02 | 0.03 | 86 | 971.8 |
| 20260508221317 | 56 | 309 | 1.7 | 5.2 | 0.02 | 0.02 | 0.02 | 86 | 971.7 |
| 20260508221215 | 56 | 271 | 1.7 | 5.2 | 0.02 | 0.02 | 0.02 | 85 | 971.7 |
| 20260508221112 | 56 | 292 | 1.7 | 5.2 | 0.02 | 0.02 | 0.02 | 85 | 971.7 |
| 20260508221015 | 56 | 300 | 1.7 | 5.2 | 0.02 | 0.02 | 0.02 | 85 | 971.7 |
| 20260508220915 | 56 | 300 | 1.7 | 5.2 | 0.02 | 0.02 | 0.02 | 85 | 971.6 |
| 20260508220812 | 56 | 310 | 1.7 | 4.3 | 0.01 | 0.01 | 0.02 | 84 | 971.6 |
| 20260508220712 | 56 | 300 | 1.7 | 4.3 | 0.01 | 0.01 | 0.01 | 84 | 971.6 |
| 20260508220615 | 56 | 289 | 1.7 | 4.3 | 0.01 | 0.01 | 0.01 | 84 | 971.5 |
| 20260508220510 | 56 | 319 | 1.7 | 4.3 | 0.01 | 0.01 | 0.01 | 83 | 971.5 |
| 20260508220410 | 56 | 328 | 1.7 | 4.3 | 0.01 | 0.01 | 0.01 | 83 | 971.5 |
| 20260508220308 | 56 | 311 | 1.7 | 4.3 | 0.01 | 0.01 | 0.01 | 83 | 971.5 |
| 20260508220205 | 56 | 311 | 1.7 | 4.3 | 0.01 | 0.01 | 0.01 | 83 | 971.5 |
| 20260508220002 | 56 | 288 | 2.6 | 4.3 | 0.01 | 0.01 | 0.01 | 83 | 971.5 |
| 20260508215904 | 56 | 318 | 2.6 | 4.3 | 0.01 | 0.01 | 0.01 | 82 | 971.4 |
| 20260508215804 | 56 | 294 | 2.6 | 5.2 | 0.01 | 0.01 | 0.01 | 82 | 971.4 |
| 20260508215703 | 56 | 304 | 2.6 | 5.2 | 0.01 | 0.01 | 0.01 | 82 | 971.4 |
| 20260508215604 | 56 | 330 | 2.6 | 5.2 | 0.01 | 0.01 | 0.01 | 82 | 971.3 |
| 20260508215505 | 56 | 323 | 2.6 | 5.2 | 0.01 | 0.01 | 0.01 | 81 | 971.4 |
| 20260508215405 | 57 | 320 | 2.6 | 5.2 | 0.01 | 0.01 | 0.01 | 81 | 971.3 |
| 20260508215306 | 57 | 335 | 2.6 | 5.2 | 0.01 | 0.01 | 0.01 | 81 | 971.3 |
| 20260508215203 | 57 | 323 | 2.6 | 5.2 | 0.01 | 0.01 | 0.01 | 80 | 971.3 |
| 20260508215102 | 57 | 316 | 2.6 | 5.2 | 0.01 | 0.01 | 0.01 | 80 | 971.2 |
| 20260508215004 | 57 | 321 | 2.6 | 5.2 | 0.00 | 0.00 | 0.00 | 80 | 971.2 |
| 20260508214901 | 57 | 317 | 2.6 | 5.2 | 0.00 | 0.00 | 0.00 | 80 | 971.1 |
| 20260508214802 | 57 | 338 | 2.6 | 5.2 | 0.00 | 0.00 | 0.00 | 79 | 971.1 |
| 20260508214704 | 57 | 328 | 2.6 | 5.2 | 0.00 | 0.00 | 0.00 | 79 | 971.1 |
| 20260508214604 | 57 | 329 | 2.6 | 5.2 | 0.00 | 0.00 | 0.00 | 79 | 971.1 |
| 20260508214501 | 57 | 323 | 2.6 | 5.2 | 0.00 | 0.00 | 0.00 | 79 | 971.1 |
| 20260508214403 | 58 | 307 | 2.6 | 5.2 | 0.00 | 0.00 | 0.00 | 79 | 971.1 |
| 20260508214305 | 58 | 326 | 2.6 | 4.3 | 0.00 | 0.00 | 0.00 | 78 | 971.1 |
| 20260508214204 | 58 | 326 | 2.6 | 4.3 | 0.00 | 0.00 | 0.00 | 77 | 971.1 |
| 20260508214102 | 58 | 325 | 2.6 | 4.3 | 0.00 | 0.00 | 0.00 | 77 | 971.1 |
| 20260508214001 | 58 | 333 | 2.6 | 4.3 | 0.00 | 0.00 | 0.00 | 76 | 971.1 |
| 20260508213902 | 58 | 323 | 2.6 | 4.3 | 0.00 | 0.00 | 0.00 | 76 | 971.1 |
| 20260508213803 | 58 | 325 | 2.6 | 4.3 | 0.00 | 0.00 | 0.00 | 76 | 971.2 |
| 20260508213702 | 58 | 314 | 1.7 | 4.3 | 0.00 | 0.00 | 0.00 | 76 | 971.1 |
| 20260508213601 | 58 | 323 | 1.7 | 4.3 | 0.00 | 0.00 | 0.00 | 76 | 971.1 |
| 20260508213505 | 58 | 323 | 1.7 | 3.5 | 0.00 | 0.00 | 0.00 | 76 | 971.1 |
| 20260508213401 | 59 | 320 | 1.7 | 3.5 | 0.00 | 0.00 | 0.00 | 75 | 971.1 |
| 20260508213303 | 59 | 326 | 1.7 | 4.3 | 0.00 | 0.00 | 0.00 | 75 | 971.1 |
| 20260508213202 | 59 | 329 | 1.7 | 4.3 | 0.00 | 0.00 | 0.00 | 74 | 971.0 |
| 20260508213104 | 59 | 330 | 1.7 | 4.3 | 0.00 | 0.00 | 0.00 | 74 | 971.0 |
| 20260508213003 | 59 | 322 | 1.7 | 4.3 | 0.00 | 0.00 | 0.00 | 74 | 971.0 |
| 20260508212906 | 59 | 330 | 1.7 | 4.3 | 0.00 | 0.00 | 0.00 | 73 | 971.0 |
| 20260508212804 | 60 | 317 | 1.7 | 4.3 | 0.00 | 0.00 | 0.00 | 72 | 971.0 |
| 20260508212702 | 60 | 328 | 1.7 | 4.3 | 0.00 | 0.00 | 0.00 | 72 | 971.0 |
| 20260508212604 | 60 | 331 | 1.7 | 4.3 | 0.00 | 0.00 | 0.00 | 72 | 971.0 |
| 20260508212502 | 60 | 2 | 1.7 | 4.3 | 0.00 | 0.00 | 0.00 | 70 | 971.0 |
| 20260508212404 | 60 | 24 | 1.7 | 4.3 | 0.00 | 0.00 | 0.00 | 71 | 971.1 |
| 20260508212306 | 60 | 317 | 1.7 | 4.3 | 0.00 | 0.00 | 0.00 | 68 | 971.0 |
| 20260508212203 | 60 | 329 | 0.9 | 4.3 | 0.00 | 0.00 | 0.00 | 69 | 971.0 |
| 20260508212105 | 61 | 323 | 0.9 | 3.5 | 0.00 | 0.00 | 0.00 | 69 | 971.0 |
| 20260508212003 | 61 | 334 | 0.9 | 3.5 | 0.00 | 0.00 | 0.00 | 69 | 971.0 |
| 20260508211906 | 61 | 330 | 0.0 | 1.7 | 0.00 | 0.00 | 0.00 | 68 | 971.0 |
| 20260508211803 | 61 | 330 | 0.0 | 1.7 | 0.00 | 0.00 | 0.00 | 68 | 971.0 |
| 20260508211701 | 61 | 184 | 0.0 | 0.9 | 0.00 | 0.00 | 0.00 | 67 | 971.0 |
| 20260508211602 | 61 | 184 | 0.0 | 0.9 | 0.00 | 0.00 | 0.00 | 67 | 970.8 |
| 20260508211501 | 61 | 184 | 0.0 | 0.9 | 0.00 | 0.00 | 0.00 | 67 | 970.9 |
| 20260508211402 | 61 | 184 | 0.0 | 0.9 | 0.00 | 0.00 | 0.00 | 67 | 970.9 |
| 20260508211301 | 61 | 184 | 0.0 | 0.9 | 0.00 | 0.00 | 0.00 | 67 | 970.9 |
| 20260508211202 | 61 | 184 | 0.9 | 0.9 | 0.00 | 0.00 | 0.00 | 67 | 970.9 |
| 20260508211102 | 61 | 184 | 0.9 | 0.9 | 0.00 | 0.00 | 0.00 | 68 | 970.9 |
| 20260508211002 | 61 | 184 | 0.9 | 0.9 | 0.00 | 0.00 | 0.00 | 66 | 970.9 |
| 20260508210903 | 61 | 184 | 0.9 | 0.9 | 0.00 | 0.00 | 0.00 | 67 | 970.9 |
| 20260508210807 | 61 | 184 | 0.9 | 1.7 | 0.00 | 0.00 | 0.00 | 68 | 970.8 |
| 20260508210704 | 61 | 184 | 0.9 | 1.7 | 0.00 | 0.00 | 0.00 | 67 | 970.8 |
| 20260508210607 | 61 | 184 | 0.9 | 1.7 | 0.00 | 0.00 | 0.00 | 68 | 970.9 |
| 20260508210503 | 61 | 184 | 0.9 | 2.6 | 0.00 | 0.00 | 0.00 | 65 | 970.8 |
| 20260508210403 | 61 | 184 | 0.9 | 3.5 | 0.00 | 0.00 | 0.00 | 64 | 970.9 |
| 20260508210303 | 61 | 184 | 0.9 | 3.5 | 0.00 | 0.00 | 0.00 | 64 | 971.0 |
| 20260508210201 | 61 | 184 | 0.9 | 3.5 | 0.00 | 0.00 | 0.00 | 64 | 971.0 |
| 20260508210103 | 61 | 184 | 0.9 | 3.5 | 0.00 | 0.00 | 0.00 | 64 | 971.0 |
| 20260508210004 | 61 | 184 | 0.9 | 3.5 | 0.00 | 0.00 | 0.00 | 64 | 971.0 |
| 20260508205903 | 61 | 184 | 0.9 | 3.5 | 0.00 | 0.00 | 0.00 | 64 | 971.0 |
| 20260508205800 | 61 | 184 | 1.7 | 3.5 | 0.00 | 0.00 | 0.00 | 64 | 971.1 |
| 20260508205657 | 61 | 184 | 1.7 | 3.5 | 0.00 | 0.00 | 0.00 | 63 | 971.1 |
| 20260508205554 | 61 | 243 | 1.7 | 3.5 | 0.00 | 0.00 | 0.00 | 63 | 971.1 |
| 20260508205454 | 61 | 203 | 1.7 | 7.0 | 0.00 | 0.00 | 0.00 | 63 | 971.1 |
| 20260508205352 | 61 | 221 | 1.7 | 7.0 | 0.00 | 0.00 | 0.00 | 64 | 971.2 |
| 20260508205256 | 61 | 221 | 1.7 | 7.0 | 0.00 | 0.00 | 0.00 | 65 | 971.2 |
| 20260508205150 | 61 | 221 | 1.7 | 7.0 | 0.00 | 0.00 | 0.00 | 64 | 971.2 |
| 20260508205046 | 61 | 221 | 1.7 | 7.0 | 0.00 | 0.00 | 0.00 | 63 | 971.2 |
| 20260508204947 | 61 | 221 | 1.7 | 7.0 | 0.00 | 0.00 | 0.00 | 62 | 971.2 |
| 20260508204849 | 61 | 225 | 1.7 | 7.0 | 0.00 | 0.00 | 0.00 | 62 | 971.3 |
| 20260508204748 | 61 | 225 | 1.7 | 7.0 | 0.00 | 0.00 | 0.00 | 63 | 971.2 |
| 20260508204645 | 61 | 232 | 1.7 | 7.0 | 0.00 | 0.00 | 0.00 | 62 | 971.2 |
| 20260508204545 | 62 | 215 | 2.6 | 7.0 | 0.00 | 0.00 | 0.00 | 62 | 971.3 |
| 20260508204443 | 61 | 262 | 2.6 | 7.0 | 0.00 | 0.00 | 0.00 | 61 | 971.3 |
| 20260508204344 | 62 | 276 | 2.6 | 7.0 | 0.00 | 0.00 | 0.00 | 61 | 971.3 |
| 20260508204242 | 62 | 208 | 2.6 | 7.0 | 0.00 | 0.00 | 0.00 | 61 | 971.4 |
| 20260508204139 | 62 | 209 | 3.5 | 7.0 | 0.00 | 0.00 | 0.00 | 61 | 971.4 |
| 20260508204035 | 62 | 276 | 3.5 | 7.0 | 0.00 | 0.00 | 0.00 | 61 | 971.4 |
| 20260508203937 | 62 | 230 | 3.5 | 7.0 | 0.00 | 0.00 | 0.00 | 61 | 971.4 |
| 20260508203836 | 62 | 264 | 3.5 | 7.0 | 0.00 | 0.00 | 0.00 | 60 | 971.4 |
| 20260508203736 | 62 | 240 | 4.3 | 7.8 | 0.00 | 0.00 | 0.00 | 59 | 971.4 |
| 20260508203636 | 62 | 238 | 4.3 | 8.7 | 0.00 | 0.00 | 0.00 | 59 | 971.4 |
| 20260508203533 | 62 | 248 | 5.2 | 12.2 | 0.00 | 0.00 | 0.00 | 59 | 971.4 |
| 20260508203434 | 62 | 265 | 6.1 | 12.2 | 0.00 | 0.00 | 0.00 | 58 | 971.5 |
| 20260508203334 | 62 | 231 | 6.1 | 12.2 | 0.00 | 0.00 | 0.00 | 58 | 971.4 |
| 20260508203233 | 62 | 224 | 7.0 | 12.2 | 0.00 | 0.00 | 0.00 | 57 | 971.5 |
| 20260508203133 | 62 | 247 | 7.0 | 14.8 | 0.00 | 0.00 | 0.00 | 58 | 971.5 |
| 20260508203035 | 62 | 179 | 7.8 | 14.8 | 0.00 | 0.00 | 0.00 | 57 | 971.4 |
| 20260508202935 | 62 | 214 | 7.8 | 14.8 | 0.00 | 0.00 | 0.00 | 56 | 971.5 |
| 20260508202837 | 62 | 278 | 7.8 | 14.8 | 0.00 | 0.00 | 0.00 | 55 | 971.4 |
| 20260508202731 | 62 | 241 | 7.8 | 14.8 | 0.00 | 0.00 | 0.00 | 55 | 971.5 |
| 20260508202633 | 62 | 233 | 7.8 | 14.8 | 0.00 | 0.00 | 0.00 | 55 | 971.5 |
| 20260508202530 | 62 | 269 | 7.0 | 14.8 | 0.00 | 0.00 | 0.00 | 56 | 971.4 |
| 20260508202431 | 62 | 233 | 7.0 | 14.8 | 0.00 | 0.00 | 0.00 | 55 | 971.4 |
| 20260508202332 | 62 | 225 | 7.0 | 14.8 | 0.00 | 0.00 | 0.00 | 56 | 971.4 |
| 20260508202231 | 62 | 240 | 6.1 | 14.8 | 0.00 | 0.00 | 0.00 | 56 | 971.4 |
| 20260508202133 | 62 | 243 | 6.1 | 14.8 | 0.00 | 0.00 | 0.00 | 59 | 971.4 |
| 20260508202031 | 62 | 226 | 6.1 | 11.3 | 0.00 | 0.00 | 0.00 | 58 | 971.5 |
| 20260508201933 | 62 | 221 | 5.2 | 11.3 | 0.00 | 0.00 | 0.00 | 57 | 971.6 |
| 20260508201828 | 62 | 231 | 5.2 | 10.4 | 0.00 | 0.00 | 0.00 | 57 | 971.6 |
| 20260508201732 | 63 | 241 | 5.2 | 10.4 | 0.00 | 0.00 | 0.00 | 57 | 971.6 |
| 20260508201633 | 63 | 238 | 4.3 | 10.4 | 0.00 | 0.00 | 0.00 | 58 | 971.6 |
| 20260508201532 | 63 | 250 | 4.3 | 10.4 | 0.00 | 0.00 | 0.00 | 58 | 971.6 |
| 20260508201428 | 63 | 212 | 4.3 | 10.4 | 0.00 | 0.00 | 0.00 | 58 | 971.6 |
| 20260508201323 | 63 | 250 | 4.3 | 10.4 | 0.00 | 0.00 | 0.00 | 57 | 971.6 |
| 20260508201223 | 63 | 186 | 4.3 | 10.4 | 0.00 | 0.00 | 0.00 | 59 | 971.7 |
| 20260508201125 | 63 | 205 | 3.5 | 10.4 | 0.00 | 0.00 | 0.00 | 57 | 971.8 |
| 20260508201024 | 63 | 193 | 3.5 | 8.7 | 0.00 | 0.00 | 0.00 | 60 | 971.8 |
| 20260508200924 | 63 | 210 | 4.3 | 8.7 | 0.00 | 0.00 | 0.00 | 59 | 971.8 |
| 20260508200820 | 63 | 234 | 4.3 | 8.7 | 0.00 | 0.00 | 0.00 | 60 | 971.8 |
| 20260508200721 | 63 | 216 | 4.3 | 8.7 | 0.00 | 0.00 | 0.00 | 61 | 971.8 |
| 20260508200622 | 63 | 228 | 4.3 | 8.7 | 0.00 | 0.00 | 0.00 | 59 | 971.9 |
| 20260508200520 | 63 | 245 | 4.3 | 8.7 | 0.00 | 0.00 | 0.00 | 58 | 971.9 |
| 20260508200415 | 63 | 229 | 4.3 | 8.7 | 0.00 | 0.00 | 0.00 | 58 | 971.9 |
| 20260508200314 | 63 | 219 | 4.3 | 8.7 | 0.00 | 0.00 | 0.00 | 58 | 971.9 |
| 20260508200211 | 63 | 271 | 4.3 | 8.7 | 0.00 | 0.00 | 0.00 | 58 | 971.9 |
| 20260508200112 | 63 | 235 | 4.3 | 7.8 | 0.00 | 0.00 | 0.00 | 58 | 971.9 |
| 20260508200012 | 63 | 247 | 3.5 | 7.8 | 0.00 | 0.00 | 0.00 | 58 | 971.8 |
| 20260508195905 | 63 | 176 | 3.5 | 7.8 | 0.00 | 0.00 | 0.00 | 58 | 971.8 |
| 20260508195805 | 63 | 215 | 3.5 | 7.8 | 0.00 | 0.00 | 0.00 | 60 | 971.9 |
| 20260508195706 | 63 | 226 | 3.5 | 7.8 | 0.00 | 0.00 | 0.00 | 59 | 971.9 |
| 20260508195609 | 63 | 214 | 3.5 | 7.8 | 0.00 | 0.00 | 0.00 | 58 | 971.9 |
| 20260508195505 | 63 | 233 | 3.5 | 7.8 | 0.00 | 0.00 | 0.00 | 58 | 971.9 |
| 20260508195404 | 63 | 245 | 3.5 | 9.6 | 0.00 | 0.00 | 0.00 | 58 | 971.9 |
| 20260508195306 | 63 | 247 | 3.5 | 9.6 | 0.00 | 0.00 | 0.00 | 58 | 971.9 |
| 20260508195202 | 63 | 247 | 4.3 | 9.6 | 0.00 | 0.00 | 0.00 | 58 | 971.9 |
| 20260508195103 | 63 | 258 | 4.3 | 9.6 | 0.00 | 0.00 | 0.00 | 58 | 971.9 |
| 20260508195002 | 63 | 216 | 4.3 | 9.6 | 0.00 | 0.00 | 0.00 | 58 | 971.9 |
| 20260508194902 | 63 | 225 | 4.3 | 9.6 | 0.00 | 0.00 | 0.00 | 58 | 971.9 |
| 20260508194806 | 63 | 217 | 4.3 | 9.6 | 0.00 | 0.00 | 0.00 | 57 | 971.9 |
| 20260508194705 | 63 | 204 | 4.3 | 9.6 | 0.00 | 0.00 | 0.00 | 57 | 971.9 |
| 20260508194604 | 63 | 242 | 4.3 | 9.6 | 0.00 | 0.00 | 0.00 | 57 | 971.9 |
| 20260508194503 | 63 | 286 | 4.3 | 9.6 | 0.00 | 0.00 | 0.00 | 57 | 971.9 |
| 20260508194406 | 63 | 224 | 4.3 | 9.6 | 0.00 | 0.00 | 0.00 | 57 | 971.9 |
| 20260508194305 | 63 | 240 | 4.3 | 9.6 | 0.00 | 0.00 | 0.00 | 57 | 972.0 |
| 20260508194202 | 63 | 266 | 4.3 | 9.6 | 0.00 | 0.00 | 0.00 | 58 | 971.9 |
| 20260508194105 | 63 | 256 | 4.3 | 9.6 | 0.00 | 0.00 | 0.00 | 57 | 972.0 |
| 20260508194003 | 63 | 264 | 4.3 | 9.6 | 0.00 | 0.00 | 0.00 | 57 | 972.0 |
| 20260508193903 | 63 | 214 | 4.3 | 9.6 | 0.00 | 0.00 | 0.00 | 57 | 972.0 |
| 20260508193806 | 63 | 269 | 4.3 | 9.6 | 0.00 | 0.00 | 0.00 | 57 | 972.0 |
| 20260508193705 | 63 | 257 | 4.3 | 8.7 | 0.00 | 0.00 | 0.00 | 57 | 972.0 |
| 20260508193603 | 63 | 223 | 4.3 | 8.7 | 0.00 | 0.00 | 0.00 | 57 | 972.0 |
| 20260508193502 | 63 | 262 | 4.3 | 10.4 | 0.00 | 0.00 | 0.00 | 56 | 972.1 |
| 20260508193402 | 63 | 237 | 5.2 | 14.8 | 0.00 | 0.00 | 0.00 | 57 | 972.1 |
| 20260508193301 | 63 | 258 | 5.2 | 14.8 | 0.00 | 0.00 | 0.00 | 57 | 972.1 |
| 20260508193202 | 63 | 264 | 5.2 | 14.8 | 0.00 | 0.00 | 0.00 | 57 | 972.1 |
| 20260508193102 | 63 | 257 | 5.2 | 14.8 | 0.00 | 0.00 | 0.00 | 56 | 972.1 |
| 20260508193001 | 63 | 243 | 5.2 | 14.8 | 0.00 | 0.00 | 0.00 | 56 | 972.1 |
| 20260508192904 | 63 | 239 | 4.3 | 14.8 | 0.00 | 0.00 | 0.00 | 57 | 972.1 |
| 20260508192803 | 63 | 217 | 4.3 | 14.8 | 0.00 | 0.00 | 0.00 | 56 | 972.1 |
| 20260508192702 | 63 | 257 | 4.3 | 14.8 | 0.00 | 0.00 | 0.00 | 55 | 972.1 |
| 20260508192602 | 63 | 233 | 4.3 | 14.8 | 0.00 | 0.00 | 0.00 | 56 | 972.1 |
| 20260508192501 | 63 | 250 | 4.3 | 14.8 | 0.00 | 0.00 | 0.00 | 56 | 972.1 |
| 20260508192402 | 63 | 273 | 4.3 | 14.8 | 0.00 | 0.00 | 0.00 | 57 | 972.1 |
| 20260508192305 | 64 | 272 | 4.3 | 10.4 | 0.00 | 0.00 | 0.00 | 56 | 972.2 |
| 20260508192205 | 64 | 243 | 4.3 | 10.4 | 0.00 | 0.00 | 0.00 | 57 | 972.2 |
| 20260508192106 | 64 | 246 | 4.3 | 10.4 | 0.00 | 0.00 | 0.00 | 57 | 972.1 |
| 20260508192001 | 64 | 248 | 5.2 | 10.4 | 0.00 | 0.00 | 0.00 | 58 | 972.1 |
| 20260508191901 | 64 | 274 | 5.2 | 10.4 | 0.00 | 0.00 | 0.00 | 57 | 972.2 |
| 20260508191801 | 64 | 248 | 5.2 | 10.4 | 0.00 | 0.00 | 0.00 | 57 | 972.1 |
| 20260508191703 | 63 | 219 | 6.1 | 10.4 | 0.00 | 0.00 | 0.00 | 56 | 972.2 |
| 20260508191603 | 63 | 244 | 5.2 | 10.4 | 0.00 | 0.00 | 0.00 | 56 | 972.1 |
| 20260508191458 | 63 | 243 | 6.1 | 10.4 | 0.00 | 0.00 | 0.00 | 56 | 972.2 |
| 20260508191354 | 63 | 243 | 6.1 | 10.4 | 0.00 | 0.00 | 0.00 | 56 | 972.2 |
| 20260508191258 | 63 | 233 | 6.1 | 10.4 | 0.00 | 0.00 | 0.00 | 56 | 972.2 |
| 20260508191155 | 63 | 243 | 6.1 | 10.4 | 0.00 | 0.00 | 0.00 | 55 | 972.2 |
| 20260508191056 | 63 | 254 | 5.2 | 10.4 | 0.00 | 0.00 | 0.00 | 56 | 972.2 |
| 20260508190948 | 63 | 258 | 5.2 | 12.2 | 0.00 | 0.00 | 0.00 | 56 | 972.3 |
| 20260508190850 | 63 | 247 | 5.2 | 12.2 | 0.00 | 0.00 | 0.00 | 56 | 972.3 |
| 20260508190749 | 64 | 237 | 6.1 | 13.0 | 0.00 | 0.00 | 0.00 | 56 | 972.3 |
| 20260508190650 | 64 | 288 | 6.1 | 13.0 | 0.00 | 0.00 | 0.00 | 56 | 972.3 |
| 20260508190549 | 64 | 243 | 6.1 | 13.0 | 0.00 | 0.00 | 0.00 | 56 | 972.3 |
| 20260508190447 | 64 | 255 | 6.1 | 13.0 | 0.00 | 0.00 | 0.00 | 56 | 972.3 |
| 20260508190343 | 64 | 266 | 6.1 | 13.0 | 0.00 | 0.00 | 0.00 | 55 | 972.3 |
| 20260508190245 | 64 | 210 | 6.1 | 13.0 | 0.00 | 0.00 | 0.00 | 55 | 972.4 |
| 20260508190143 | 64 | 229 | 6.1 | 13.0 | 0.00 | 0.00 | 0.00 | 56 | 972.3 |
| 20260508190043 | 64 | 227 | 6.1 | 13.0 | 0.00 | 0.00 | 0.00 | 56 | 972.3 |
| 20260508185938 | 64 | 200 | 6.1 | 13.0 | 0.00 | 0.00 | 0.00 | 56 | 972.4 |
| 20260508185837 | 64 | 219 | 6.1 | 13.0 | 0.00 | 0.00 | 0.00 | 54 | 972.3 |
| 20260508185737 | 64 | 249 | 6.1 | 10.4 | 0.00 | 0.00 | 0.00 | 55 | 972.4 |
| 20260508185636 | 64 | 242 | 6.1 | 10.4 | 0.00 | 0.00 | 0.00 | 55 | 972.3 |
| 20260508185539 | 64 | 233 | 5.2 | 12.2 | 0.00 | 0.00 | 0.00 | 55 | 972.3 |
| 20260508185431 | 64 | 258 | 5.2 | 12.2 | 0.00 | 0.00 | 0.00 | 56 | 972.3 |
| 20260508185330 | 64 | 222 | 6.1 | 12.2 | 0.00 | 0.00 | 0.00 | 56 | 972.3 |
| 20260508185231 | 64 | 258 | 6.1 | 12.2 | 0.00 | 0.00 | 0.00 | 57 | 972.2 |
| 20260508185132 | 64 | 198 | 7.0 | 12.2 | 0.00 | 0.00 | 0.00 | 55 | 972.2 |
| 20260508185033 | 64 | 279 | 7.0 | 16.5 | 0.00 | 0.00 | 0.00 | 57 | 972.2 |
| 20260508184932 | 64 | 271 | 7.8 | 16.5 | 0.00 | 0.00 | 0.00 | 56 | 972.3 |
| 20260508184833 | 64 | 240 | 7.8 | 16.5 | 0.00 | 0.00 | 0.00 | 55 | 972.3 |
| 20260508184737 | 64 | 205 | 7.8 | 16.5 | 0.00 | 0.00 | 0.00 | 55 | 972.3 |
| 20260508184631 | 64 | 219 | 7.8 | 16.5 | 0.00 | 0.00 | 0.00 | 55 | 972.3 |
| 20260508184532 | 64 | 245 | 7.8 | 16.5 | 0.00 | 0.00 | 0.00 | 56 | 972.3 |
| 20260508184431 | 64 | 231 | 8.7 | 16.5 | 0.00 | 0.00 | 0.00 | 54 | 972.3 |
| 20260508184332 | 64 | 251 | 7.8 | 16.5 | 0.00 | 0.00 | 0.00 | 55 | 972.3 |
| 20260508184231 | 64 | 238 | 7.8 | 16.5 | 0.00 | 0.00 | 0.00 | 53 | 972.3 |
| 20260508184132 | 64 | 198 | 7.8 | 16.5 | 0.00 | 0.00 | 0.00 | 53 | 972.4 |
| 20260508184033 | 64 | 230 | 7.8 | 18.2 | 0.00 | 0.00 | 0.00 | 53 | 972.4 |
| 20260508183933 | 64 | 219 | 8.7 | 18.2 | 0.00 | 0.00 | 0.00 | 54 | 972.4 |
| 20260508183832 | 64 | 243 | 8.7 | 18.2 | 0.00 | 0.00 | 0.00 | 54 | 972.4 |
| 20260508183731 | 64 | 262 | 8.7 | 18.2 | 0.00 | 0.00 | 0.00 | 54 | 972.4 |
| 20260508183630 | 64 | 210 | 8.7 | 18.2 | 0.00 | 0.00 | 0.00 | 54 | 972.4 |
| 20260508183529 | 65 | 217 | 8.7 | 18.2 | 0.00 | 0.00 | 0.00 | 54 | 972.4 |
| 20260508183431 | 65 | 189 | 8.7 | 18.2 | 0.00 | 0.00 | 0.00 | 56 | 972.4 |
| 20260508183330 | 65 | 212 | 8.7 | 18.2 | 0.00 | 0.00 | 0.00 | 54 | 972.4 |
| 20260508183231 | 65 | 265 | 9.6 | 18.2 | 0.00 | 0.00 | 0.00 | 54 | 972.5 |
| 20260508183130 | 65 | 247 | 9.6 | 18.2 | 0.00 | 0.00 | 0.00 | 52 | 972.5 |
| 20260508183033 | 65 | 161 | 9.6 | 16.5 | 0.00 | 0.00 | 0.00 | 53 | 972.4 |
| 20260508182933 | 65 | 235 | 8.7 | 16.5 | 0.00 | 0.00 | 0.00 | 54 | 972.5 |
| 20260508182830 | 65 | 236 | 8.7 | 16.5 | 0.00 | 0.00 | 0.00 | 55 | 972.4 |
| 20260508182731 | 65 | 183 | 7.8 | 16.5 | 0.00 | 0.00 | 0.00 | 55 | 972.5 |
| 20260508182632 | 65 | 238 | 8.7 | 16.5 | 0.00 | 0.00 | 0.00 | 55 | 972.4 |
| 20260508182531 | 65 | 245 | 8.7 | 16.5 | 0.00 | 0.00 | 0.00 | 55 | 972.4 |
| 20260508182431 | 65 | 229 | 7.8 | 16.5 | 0.00 | 0.00 | 0.00 | 54 | 972.4 |
| 20260508182332 | 65 | 226 | 7.8 | 16.5 | 0.00 | 0.00 | 0.00 | 54 | 972.4 |
| 20260508182230 | 65 | 230 | 7.8 | 16.5 | 0.00 | 0.00 | 0.00 | 53 | 972.4 |
| 20260508182133 | 65 | 247 | 7.8 | 16.5 | 0.00 | 0.00 | 0.00 | 54 | 972.4 |
| 20260508182031 | 65 | 215 | 7.8 | 16.5 | 0.00 | 0.00 | 0.00 | 54 | 972.4 |
| 20260508181931 | 65 | 256 | 7.8 | 16.5 | 0.00 | 0.00 | 0.00 | 53 | 972.4 |
| 20260508181830 | 65 | 233 | 8.7 | 16.5 | 0.00 | 0.00 | 0.00 | 54 | 972.5 |
| 20260508181730 | 65 | 274 | 8.7 | 16.5 | 0.00 | 0.00 | 0.00 | 52 | 972.5 |
| 20260508181631 | 65 | 216 | 8.7 | 16.5 | 0.00 | 0.00 | 0.00 | 51 | 972.5 |
| 20260508181527 | 65 | 226 | 8.7 | 16.5 | 0.00 | 0.00 | 0.00 | 53 | 972.4 |
| 20260508181424 | 65 | 229 | 8.7 | 16.5 | 0.00 | 0.00 | 0.00 | 52 | 972.5 |
| 20260508181324 | 65 | 271 | 9.6 | 16.5 | 0.00 | 0.00 | 0.00 | 53 | 972.5 |
| 20260508181223 | 65 | 255 | 9.6 | 16.5 | 0.00 | 0.00 | 0.00 | 52 | 972.5 |
| 20260508181126 | 65 | 225 | 9.6 | 16.5 | 0.00 | 0.00 | 0.00 | 52 | 972.5 |
| 20260508181020 | 65 | 286 | 9.6 | 16.5 | 0.00 | 0.00 | 0.00 | 52 | 972.5 |
| 20260508180919 | 65 | 271 | 8.7 | 16.5 | 0.00 | 0.00 | 0.00 | 52 | 972.5 |
| 20260508180816 | 65 | 233 | 8.7 | 16.5 | 0.00 | 0.00 | 0.00 | 52 | 972.4 |
| 20260508180718 | 65 | 231 | 8.7 | 16.5 | 0.00 | 0.00 | 0.00 | 52 | 972.4 |
| 20260508180619 | 65 | 265 | 8.7 | 16.5 | 0.00 | 0.00 | 0.00 | 51 | 972.4 |
| 20260508180512 | 66 | 244 | 7.8 | 14.8 | 0.00 | 0.00 | 0.00 | 52 | 972.4 |
| 20260508180412 | 66 | 231 | 7.8 | 14.8 | 0.00 | 0.00 | 0.00 | 52 | 972.4 |
| 20260508180311 | 66 | 171 | 7.8 | 14.8 | 0.00 | 0.00 | 0.00 | 52 | 972.4 |
| 20260508180212 | 66 | 217 | 7.8 | 14.8 | 0.00 | 0.00 | 0.00 | 52 | 972.3 |
| 20260508180113 | 66 | 237 | 7.8 | 16.5 | 0.00 | 0.00 | 0.00 | 53 | 972.3 |
| 20260508180005 | 66 | 225 | 7.8 | 16.5 | 0.00 | 0.00 | 0.00 | 54 | 972.4 |
| 20260508175905 | 66 | 226 | 7.8 | 16.5 | 0.00 | 0.00 | 0.00 | 55 | 972.4 |
| 20260508175804 | 66 | 241 | 7.8 | 16.5 | 0.00 | 0.00 | 0.00 | 52 | 972.4 |
| 20260508175708 | 66 | 202 | 7.8 | 16.5 | 0.00 | 0.00 | 0.00 | 53 | 972.4 |
| 20260508175606 | 66 | 236 | 7.8 | 16.5 | 0.00 | 0.00 | 0.00 | 53 | 972.4 |
| 20260508175504 | 66 | 260 | 7.8 | 16.5 | 0.00 | 0.00 | 0.00 | 54 | 972.4 |
| 20260508175403 | 66 | 229 | 7.8 | 16.5 | 0.00 | 0.00 | 0.00 | 53 | 972.4 |
| 20260508175305 | 66 | 238 | 7.8 | 16.5 | 0.00 | 0.00 | 0.00 | 52 | 972.5 |
| 20260508175202 | 66 | 226 | 7.8 | 16.5 | 0.00 | 0.00 | 0.00 | 52 | 972.4 |
| 20260508175102 | 66 | 228 | 7.8 | 15.6 | 0.00 | 0.00 | 0.00 | 55 | 972.5 |
| 20260508175002 | 66 | 227 | 7.8 | 15.6 | 0.00 | 0.00 | 0.00 | 58 | 972.4 |
| 20260508174901 | 65 | 203 | 7.8 | 15.6 | 0.00 | 0.00 | 0.00 | 55 | 972.4 |
| 20260508174803 | 65 | 166 | 7.8 | 15.6 | 0.00 | 0.00 | 0.00 | 54 | 972.5 |
| 20260508174701 | 65 | 216 | 7.0 | 15.6 | 0.00 | 0.00 | 0.00 | 56 | 972.5 |
| 20260508174602 | 65 | 246 | 7.0 | 15.6 | 0.00 | 0.00 | 0.00 | 56 | 972.5 |
| 20260508174404 | 65 | 206 | 7.0 | 13.9 | 0.00 | 0.00 | 0.00 | 54 | 972.5 |
| 20260508174314 | 64 | 239 | 7.0 | 13.9 | 0.00 | 0.00 | 0.00 | 54 | 972.6 |
| 20260508174201 | 64 | 237 | 7.0 | 13.9 | 0.00 | 0.00 | 0.00 | 55 | 972.6 |
| 20260508174102 | 64 | 210 | 7.0 | 13.9 | 0.00 | 0.00 | 0.00 | 55 | 972.6 |
| 20260508174002 | 64 | 221 | 6.1 | 13.0 | 0.00 | 0.00 | 0.00 | 56 | 972.7 |
| 20260508173905 | 64 | 214 | 6.1 | 13.0 | 0.00 | 0.00 | 0.00 | 57 | 972.7 |
| 20260508173758 | 64 | 271 | 7.0 | 13.0 | 0.00 | 0.00 | 0.00 | 55 | 972.7 |
| 20260508173659 | 64 | 205 | 7.8 | 15.6 | 0.00 | 0.00 | 0.00 | 57 | 972.7 |
| 20260508173600 | 64 | 205 | 7.8 | 15.6 | 0.00 | 0.00 | 0.00 | 55 | 972.7 |
| 20260508173459 | 64 | 207 | 7.8 | 15.6 | 0.00 | 0.00 | 0.00 | 55 | 972.8 |
| 20260508173359 | 64 | 200 | 7.8 | 15.6 | 0.00 | 0.00 | 0.00 | 55 | 972.8 |
| 20260508173257 | 64 | 216 | 8.7 | 15.6 | 0.00 | 0.00 | 0.00 | 56 | 972.8 |
| 20260508173155 | 64 | 214 | 8.7 | 15.6 | 0.00 | 0.00 | 0.00 | 56 | 972.9 |
| 20260508173057 | 64 | 207 | 9.6 | 16.5 | 0.00 | 0.00 | 0.00 | 56 | 972.9 |
| 20260508172958 | 64 | 253 | 9.6 | 16.5 | 0.00 | 0.00 | 0.00 | 54 | 972.9 |
| 20260508172857 | 64 | 243 | 9.6 | 16.5 | 0.00 | 0.00 | 0.00 | 54 | 973.0 |
| 20260508172747 | 64 | 221 | 9.6 | 16.5 | 0.00 | 0.00 | 0.00 | 52 | 973.0 |
| 20260508172648 | 64 | 219 | 9.6 | 16.5 | 0.00 | 0.00 | 0.00 | 53 | 973.1 |
| 20260508172553 | 64 | 210 | 9.6 | 16.5 | 0.00 | 0.00 | 0.00 | 53 | 973.1 |
| 20260508172447 | 64 | 224 | 9.6 | 16.5 | 0.00 | 0.00 | 0.00 | 53 | 973.1 |
| 20260508172349 | 64 | 252 | 9.6 | 16.5 | 0.00 | 0.00 | 0.00 | 55 | 973.1 |
| 20260508172319 | 64 | 201 | 9.6 | 16.5 | 0.00 | 0.00 | 0.00 | 53 | 973.1 |
| 20260508172146 | 64 | 200 | 8.7 | 16.5 | 0.00 | 0.00 | 0.00 | 53 | 973.1 |
| 20260508172047 | 64 | 232 | 8.7 | 15.6 | 0.00 | 0.00 | 0.00 | 53 | 973.1 |
| 20260508171948 | 64 | 240 | 8.7 | 15.6 | 0.00 | 0.00 | 0.00 | 57 | 973.1 |
| 20260508171850 | 64 | 194 | 8.7 | 15.6 | 0.00 | 0.00 | 0.00 | 57 | 973.2 |
| 20260508171742 | 64 | 262 | 7.8 | 15.6 | 0.00 | 0.00 | 0.00 | 57 | 973.2 |
| 20260508171643 | 64 | 221 | 7.8 | 14.8 | 0.00 | 0.00 | 0.00 | 57 | 973.1 |
| 20260508171543 | 64 | 222 | 7.8 | 14.8 | 0.00 | 0.00 | 0.00 | 57 | 973.1 |
| 20260508171446 | 64 | 257 | 7.8 | 14.8 | 0.00 | 0.00 | 0.00 | 54 | 973.2 |
| 20260508171343 | 64 | 274 | 7.8 | 14.8 | 0.00 | 0.00 | 0.00 | 53 | 973.2 |
| 20260508171244 | 64 | 239 | 7.8 | 14.8 | 0.00 | 0.00 | 0.00 | 54 | 973.2 |
| 20260508171147 | 64 | 200 | 7.8 | 14.8 | 0.00 | 0.00 | 0.00 | 53 | 973.3 |
| 20260508171042 | 64 | 219 | 7.0 | 14.8 | 0.00 | 0.00 | 0.00 | 53 | 973.3 |
| 20260508170945 | 64 | 250 | 7.0 | 14.8 | 0.00 | 0.00 | 0.00 | 53 | 973.3 |
| 20260508170842 | 64 | 252 | 7.0 | 14.8 | 0.00 | 0.00 | 0.00 | 55 | 973.3 |
| 20260508170742 | 64 | 213 | 7.0 | 14.8 | 0.00 | 0.00 | 0.00 | 54 | 973.3 |
| 20260508170644 | 64 | 239 | 7.0 | 13.0 | 0.00 | 0.00 | 0.00 | 53 | 973.3 |
| 20260508170537 | 64 | 228 | 7.0 | 12.2 | 0.00 | 0.00 | 0.00 | 55 | 973.4 |
| 20260508170437 | 64 | 203 | 7.0 | 13.0 | 0.00 | 0.00 | 0.00 | 55 | 973.4 |
| 20260508170336 | 64 | 230 | 7.0 | 13.0 | 0.00 | 0.00 | 0.00 | 54 | 973.5 |
| 20260508170236 | 63 | 231 | 6.1 | 13.0 | 0.00 | 0.00 | 0.00 | 55 | 973.4 |
| 20260508170141 | 63 | 203 | 6.1 | 13.0 | 0.00 | 0.00 | 0.00 | 57 | 973.5 |
| 20260508170038 | 63 | 217 | 7.0 | 13.0 | 0.00 | 0.00 | 0.00 | 55 | 973.5 |
| 20260508165935 | 63 | 242 | 7.0 | 13.0 | 0.00 | 0.00 | 0.00 | 54 | 973.6 |
| 20260508165836 | 63 | 221 | 7.0 | 13.0 | 0.00 | 0.00 | 0.00 | 54 | 973.5 |
| 20260508165733 | 62 | 218 | 7.0 | 13.0 | 0.00 | 0.00 | 0.00 | 55 | 973.6 |
| 20260508165632 | 62 | 240 | 7.0 | 13.0 | 0.00 | 0.00 | 0.00 | 55 | 973.6 |
| 20260508165534 | 62 | 198 | 6.1 | 13.0 | 0.00 | 0.00 | 0.00 | 55 | 973.6 |
| 20260508165432 | 62 | 184 | 6.1 | 13.0 | 0.00 | 0.00 | 0.00 | 56 | 973.6 |
| 20260508165332 | 62 | 226 | 6.1 | 13.0 | 0.00 | 0.00 | 0.00 | 55 | 973.6 |
| 20260508165234 | 62 | 260 | 7.0 | 13.0 | 0.00 | 0.00 | 0.00 | 55 | 973.6 |
| 20260508165133 | 62 | 188 | 7.0 | 13.0 | 0.00 | 0.00 | 0.00 | 54 | 973.7 |
| 20260508165029 | 62 | 224 | 7.0 | 13.9 | 0.00 | 0.00 | 0.00 | 55 | 973.7 |
| 20260508164932 | 62 | 205 | 7.0 | 13.9 | 0.00 | 0.00 | 0.00 | 54 | 973.7 |
| 20260508164832 | 62 | 221 | 6.1 | 13.9 | 0.00 | 0.00 | 0.00 | 55 | 973.7 |
| 20260508164730 | 62 | 227 | 6.1 | 13.9 | 0.00 | 0.00 | 0.00 | 55 | 973.7 |
| 20260508164630 | 62 | 217 | 6.1 | 13.9 | 0.00 | 0.00 | 0.00 | 55 | 973.8 |
| 20260508164531 | 62 | 212 | 6.1 | 13.9 | 0.00 | 0.00 | 0.00 | 56 | 973.8 |
| 20260508164432 | 62 | 217 | 6.1 | 13.9 | 0.00 | 0.00 | 0.00 | 55 | 973.8 |
| 20260508164331 | 62 | 179 | 5.2 | 13.9 | 0.00 | 0.00 | 0.00 | 55 | 973.8 |
| 20260508164230 | 62 | 257 | 5.2 | 13.9 | 0.00 | 0.00 | 0.00 | 56 | 973.8 |
| 20260508164128 | 62 | 245 | 5.2 | 13.9 | 0.00 | 0.00 | 0.00 | 57 | 973.9 |
| 20260508164031 | 62 | 217 | 5.2 | 12.2 | 0.00 | 0.00 | 0.00 | 57 | 973.8 |
| 20260508163929 | 62 | 216 | 5.2 | 12.2 | 0.00 | 0.00 | 0.00 | 56 | 973.8 |
| 20260508163830 | 62 | 263 | 5.2 | 12.2 | 0.00 | 0.00 | 0.00 | 56 | 973.8 |
| 20260508163729 | 62 | 219 | 5.2 | 12.2 | 0.00 | 0.00 | 0.00 | 56 | 973.9 |
| 20260508163629 | 62 | 252 | 5.2 | 12.2 | 0.00 | 0.00 | 0.00 | 56 | 973.8 |
| 20260508163529 | 62 | 234 | 6.1 | 12.2 | 0.00 | 0.00 | 0.00 | 56 | 973.9 |
| 20260508163428 | 62 | 236 | 6.1 | 12.2 | 0.00 | 0.00 | 0.00 | 56 | 973.9 |
| 20260508163332 | 62 | 258 | 6.1 | 12.2 | 0.00 | 0.00 | 0.00 | 56 | 973.9 |
| 20260508163231 | 62 | 203 | 6.1 | 12.2 | 0.00 | 0.00 | 0.00 | 55 | 974.0 |
| 20260508163128 | 62 | 259 | 6.1 | 12.2 | 0.00 | 0.00 | 0.00 | 56 | 974.0 |
| 20260508163027 | 62 | 240 | 7.0 | 12.2 | 0.00 | 0.00 | 0.00 | 54 | 974.0 |
| 20260508162922 | 62 | 247 | 7.0 | 12.2 | 0.00 | 0.00 | 0.00 | 55 | 974.0 |
| 20260508162823 | 62 | 241 | 7.0 | 12.2 | 0.00 | 0.00 | 0.00 | 54 | 974.0 |
| 20260508162723 | 62 | 269 | 7.0 | 13.0 | 0.00 | 0.00 | 0.00 | 53 | 974.1 |
| 20260508162625 | 62 | 239 | 7.0 | 13.0 | 0.00 | 0.00 | 0.00 | 54 | 974.1 |
| 20260508162525 | 62 | 230 | 7.0 | 13.0 | 0.00 | 0.00 | 0.00 | 53 | 974.1 |
| 20260508162423 | 63 | 223 | 6.1 | 13.0 | 0.00 | 0.00 | 0.00 | 53 | 974.1 |
| 20260508162327 | 63 | 251 | 6.1 | 13.0 | 0.00 | 0.00 | 0.00 | 54 | 974.0 |
| 20260508162221 | 63 | 255 | 6.1 | 13.0 | 0.00 | 0.00 | 0.00 | 54 | 974.0 |
| 20260508162123 | 63 | 259 | 6.1 | 13.0 | 0.00 | 0.00 | 0.00 | 54 | 974.0 |
| 20260508162023 | 63 | 264 | 5.2 | 13.0 | 0.00 | 0.00 | 0.00 | 54 | 974.1 |
| 20260508161923 | 63 | 234 | 5.2 | 13.0 | 0.00 | 0.00 | 0.00 | 54 | 974.0 |
| 20260508161820 | 63 | 253 | 5.2 | 13.0 | 0.00 | 0.00 | 0.00 | 54 | 974.0 |
| 20260508161715 | 63 | 235 | 5.2 | 12.2 | 0.00 | 0.00 | 0.00 | 54 | 974.1 |
| 20260508161615 | 64 | 262 | 5.2 | 12.2 | 0.00 | 0.00 | 0.00 | 56 | 974.0 |
| 20260508161517 | 63 | 208 | 5.2 | 12.2 | 0.00 | 0.00 | 0.00 | 55 | 974.0 |
| 20260508161414 | 63 | 262 | 6.1 | 12.2 | 0.00 | 0.00 | 0.00 | 54 | 974.0 |
| 20260508161314 | 63 | 283 | 6.1 | 14.8 | 0.00 | 0.00 | 0.00 | 54 | 974.1 |
| 20260508161218 | 63 | 248 | 6.1 | 14.8 | 0.00 | 0.00 | 0.00 | 56 | 974.1 |
| 20260508161115 | 63 | 200 | 6.1 | 14.8 | 0.00 | 0.00 | 0.00 | 53 | 974.2 |
| 20260508161015 | 63 | 275 | 6.1 | 14.8 | 0.00 | 0.00 | 0.00 | 53 | 974.2 |
| 20260508160915 | 63 | 266 | 6.1 | 14.8 | 0.00 | 0.00 | 0.00 | 53 | 974.3 |
| 20260508160814 | 63 | 229 | 6.1 | 14.8 | 0.00 | 0.00 | 0.00 | 53 | 974.2 |
| 20260508160715 | 63 | 243 | 6.1 | 14.8 | 0.00 | 0.00 | 0.00 | 56 | 974.2 |
| 20260508160613 | 63 | 207 | 6.1 | 14.8 | 0.00 | 0.00 | 0.00 | 57 | 974.3 |
| 20260508160515 | 63 | 220 | 6.1 | 14.8 | 0.00 | 0.00 | 0.00 | 56 | 974.2 |
| 20260508160415 | 63 | 198 | 6.1 | 14.8 | 0.00 | 0.00 | 0.00 | 57 | 974.2 |
| 20260508160314 | 63 | 253 | 6.1 | 12.2 | 0.00 | 0.00 | 0.00 | 61 | 974.2 |
| 20260508160215 | 62 | 193 | 6.1 | 13.0 | 0.00 | 0.00 | 0.00 | 57 | 974.2 |
| 20260508160115 | 62 | 224 | 7.0 | 13.0 | 0.00 | 0.00 | 0.00 | 56 | 974.2 |
| 20260508160012 | 62 | 213 | 7.0 | 13.0 | 0.00 | 0.00 | 0.00 | 56 | 974.3 |
| 20260508155910 | 62 | 227 | 7.0 | 13.0 | 0.00 | 0.00 | 0.00 | 55 | 974.2 |
| 20260508155810 | 62 | 242 | 7.0 | 13.0 | 0.00 | 0.00 | 0.00 | 55 | 974.3 |
| 20260508155709 | 62 | 210 | 7.0 | 13.0 | 0.00 | 0.00 | 0.00 | 57 | 974.3 |
| 20260508155609 | 62 | 216 | 6.1 | 13.0 | 0.00 | 0.00 | 0.00 | 56 | 974.3 |
| 20260508155509 | 62 | 217 | 7.0 | 13.0 | 0.00 | 0.00 | 0.00 | 55 | 974.3 |
| 20260508155409 | 62 | 206 | 6.1 | 13.0 | 0.00 | 0.00 | 0.00 | 57 | 974.4 |
| 20260508155308 | 62 | 248 | 6.1 | 13.0 | 0.00 | 0.00 | 0.00 | 57 | 974.3 |
| 20260508155208 | 62 | 191 | 6.1 | 12.2 | 0.00 | 0.00 | 0.00 | 55 | 974.4 |
| 20260508155107 | 62 | 229 | 5.2 | 12.2 | 0.00 | 0.00 | 0.00 | 56 | 974.4 |
| 20260508155008 | 62 | 284 | 5.2 | 12.2 | 0.00 | 0.00 | 0.00 | 57 | 974.4 |
| 20260508154911 | 62 | 237 | 5.2 | 12.2 | 0.00 | 0.00 | 0.00 | 57 | 974.4 |
| 20260508154802 | 62 | 198 | 5.2 | 9.6 | 0.00 | 0.00 | 0.00 | 57 | 974.4 |
| 20260508154701 | 62 | 267 | 5.2 | 12.2 | 0.00 | 0.00 | 0.00 | 57 | 974.4 |
| 20260508154602 | 62 | 210 | 5.2 | 12.2 | 0.00 | 0.00 | 0.00 | 56 | 974.4 |
| 20260508154503 | 62 | 224 | 5.2 | 12.2 | 0.00 | 0.00 | 0.00 | 57 | 974.4 |
| 20260508154404 | 61 | 235 | 5.2 | 12.2 | 0.00 | 0.00 | 0.00 | 56 | 974.5 |
| 20260508154302 | 61 | 309 | 5.2 | 12.2 | 0.00 | 0.00 | 0.00 | 57 | 974.4 |
| 20260508154201 | 61 | 276 | 5.2 | 12.2 | 0.00 | 0.00 | 0.00 | 56 | 974.5 |
| 20260508154102 | 61 | 264 | 6.1 | 12.2 | 0.00 | 0.00 | 0.00 | 56 | 974.5 |
| 20260508154002 | 62 | 264 | 6.1 | 12.2 | 0.00 | 0.00 | 0.00 | 56 | 974.4 |
| 20260508153904 | 62 | 243 | 6.1 | 12.2 | 0.00 | 0.00 | 0.00 | 55 | 974.5 |
| 20260508153803 | 62 | 262 | 5.2 | 12.2 | 0.00 | 0.00 | 0.00 | 56 | 974.5 |
| 20260508153703 | 62 | 259 | 5.2 | 11.3 | 0.00 | 0.00 | 0.00 | 59 | 974.4 |
| 20260508153602 | 62 | 279 | 6.1 | 11.3 | 0.00 | 0.00 | 0.00 | 57 | 974.5 |
| 20260508153502 | 62 | 273 | 6.1 | 11.3 | 0.00 | 0.00 | 0.00 | 56 | 974.4 |
| 20260508153402 | 62 | 266 | 6.1 | 11.3 | 0.00 | 0.00 | 0.00 | 55 | 974.4 |
| 20260508153301 | 62 | 242 | 6.1 | 11.3 | 0.00 | 0.00 | 0.00 | 55 | 974.4 |
| 20260508153202 | 62 | 191 | 6.1 | 13.0 | 0.00 | 0.00 | 0.00 | 55 | 974.4 |
| 20260508153105 | 62 | 171 | 6.1 | 13.0 | 0.00 | 0.00 | 0.00 | 56 | 974.4 |
| 20260508153002 | 62 | 279 | 6.1 | 13.0 | 0.00 | 0.00 | 0.00 | 56 | 974.4 |
| 20260508152900 | 61 | 278 | 6.1 | 13.0 | 0.00 | 0.00 | 0.00 | 58 | 974.4 |
| 20260508152800 | 61 | 252 | 6.1 | 13.0 | 0.00 | 0.00 | 0.00 | 55 | 974.4 |
| 20260508152704 | 61 | 278 | 6.1 | 13.0 | 0.00 | 0.00 | 0.00 | 57 | 974.4 |
| 20260508152602 | 61 | 269 | 6.1 | 13.0 | 0.00 | 0.00 | 0.00 | 57 | 974.4 |
| 20260508152500 | 61 | 274 | 6.1 | 13.0 | 0.00 | 0.00 | 0.00 | 57 | 974.4 |
| 20260508152400 | 61 | 245 | 6.1 | 13.0 | 0.00 | 0.00 | 0.00 | 56 | 974.4 |
| 20260508152301 | 61 | 260 | 6.1 | 13.0 | 0.00 | 0.00 | 0.00 | 58 | 974.4 |
| 20260508152200 | 61 | 273 | 6.1 | 10.4 | 0.00 | 0.00 | 0.00 | 59 | 974.4 |
| 20260508152100 | 61 | 212 | 6.1 | 12.2 | 0.00 | 0.00 | 0.00 | 58 | 974.4 |
| 20260508151959 | 61 | 225 | 6.1 | 12.2 | 0.00 | 0.00 | 0.00 | 57 | 974.4 |
| 20260508151900 | 61 | 245 | 6.1 | 12.2 | 0.00 | 0.00 | 0.00 | 57 | 974.4 |
| 20260508151759 | 61 | 278 | 6.1 | 12.2 | 0.00 | 0.00 | 0.00 | 57 | 974.4 |
| 20260508151600 | 61 | 269 | 6.1 | 12.2 | 0.00 | 0.00 | 0.00 | 56 | 974.4 |
| 20260508151502 | 61 | 245 | 6.1 | 12.2 | 0.00 | 0.00 | 0.00 | 57 | 974.4 |
| 20260508151401 | 61 | 241 | 5.2 | 12.2 | 0.00 | 0.00 | 0.00 | 61 | 974.4 |
| 20260508151300 | 61 | 244 | 5.2 | 12.2 | 0.00 | 0.00 | 0.00 | 58 | 974.4 |
| 20260508151201 | 60 | 267 | 6.1 | 12.2 | 0.00 | 0.00 | 0.00 | 57 | 974.4 |
| 20260508151103 | 60 | 263 | 6.1 | 13.9 | 0.00 | 0.00 | 0.00 | 58 | 974.4 |
| 20260508151000 | 60 | 235 | 6.1 | 13.9 | 0.00 | 0.00 | 0.00 | 59 | 974.4 |
| 20260508150903 | 60 | 236 | 5.2 | 13.9 | 0.00 | 0.00 | 0.00 | 59 | 974.4 |
| 20260508150801 | 60 | 215 | 5.2 | 13.9 | 0.00 | 0.00 | 0.00 | 59 | 974.4 |
| 20260508150701 | 60 | 210 | 5.2 | 13.9 | 0.00 | 0.00 | 0.00 | 60 | 974.5 |
| 20260508150558 | 60 | 211 | 5.2 | 13.9 | 0.00 | 0.00 | 0.00 | 59 | 974.4 |
| 20260508150503 | 59 | 253 | 4.3 | 13.9 | 0.00 | 0.00 | 0.00 | 60 | 974.4 |
| 20260508150359 | 59 | 274 | 5.2 | 13.9 | 0.00 | 0.00 | 0.00 | 59 | 974.5 |
| 20260508150259 | 59 | 248 | 5.2 | 13.9 | 0.00 | 0.00 | 0.00 | 57 | 974.4 |
| 20260508150159 | 59 | 278 | 5.2 | 13.9 | 0.00 | 0.00 | 0.00 | 59 | 974.4 |
| 20260508150058 | 59 | 249 | 5.2 | 10.4 | 0.00 | 0.00 | 0.00 | 59 | 974.5 |
| 20260508150002 | 59 | 220 | 5.2 | 10.4 | 0.00 | 0.00 | 0.00 | 61 | 974.4 |
| 20260508145858 | 59 | 270 | 5.2 | 10.4 | 0.00 | 0.00 | 0.00 | 60 | 974.4 |
| 20260508145758 | 59 | 255 | 6.1 | 13.0 | 0.00 | 0.00 | 0.00 | 60 | 974.4 |
| 20260508145659 | 59 | 255 | 6.1 | 13.0 | 0.00 | 0.00 | 0.00 | 59 | 974.4 |
| 20260508145558 | 59 | 243 | 6.1 | 13.0 | 0.00 | 0.00 | 0.00 | 60 | 974.4 |
| 20260508145500 | 59 | 223 | 7.0 | 13.0 | 0.00 | 0.00 | 0.00 | 59 | 974.5 |
| 20260508145359 | 59 | 227 | 7.0 | 16.5 | 0.00 | 0.00 | 0.00 | 58 | 974.5 |
| 20260508145306 | 59 | 212 | 7.0 | 16.5 | 0.00 | 0.00 | 0.00 | 57 | 974.4 |
| 20260508145202 | 59 | 278 | 7.0 | 16.5 | 0.00 | 0.00 | 0.00 | 58 | 974.4 |
| 20260508145059 | 59 | 221 | 7.0 | 16.5 | 0.00 | 0.00 | 0.00 | 57 | 974.5 |
| 20260508144958 | 59 | 268 | 7.0 | 16.5 | 0.00 | 0.00 | 0.00 | 58 | 974.5 |
| 20260508144855 | 59 | 280 | 7.0 | 16.5 | 0.00 | 0.00 | 0.00 | 58 | 974.5 |
| 20260508144756 | 59 | 281 | 7.0 | 16.5 | 0.00 | 0.00 | 0.00 | 58 | 974.5 |
| 20260508144654 | 59 | 212 | 7.0 | 16.5 | 0.00 | 0.00 | 0.00 | 57 | 974.5 |
| 20260508144555 | 59 | 172 | 6.1 | 16.5 | 0.00 | 0.00 | 0.00 | 58 | 974.5 |
| 20260508144455 | 58 | 252 | 6.1 | 16.5 | 0.00 | 0.00 | 0.00 | 58 | 974.6 |
| 20260508144355 | 58 | 229 | 6.1 | 11.3 | 0.00 | 0.00 | 0.00 | 60 | 974.6 |
| 20260508144254 | 58 | 187 | 6.1 | 11.3 | 0.00 | 0.00 | 0.00 | 59 | 974.7 |
| 20260508144156 | 58 | 269 | 6.1 | 12.2 | 0.00 | 0.00 | 0.00 | 58 | 974.7 |
| 20260508144054 | 58 | 279 | 6.1 | 12.2 | 0.00 | 0.00 | 0.00 | 60 | 974.7 |
| 20260508143954 | 58 | 250 | 6.1 | 12.2 | 0.00 | 0.00 | 0.00 | 60 | 974.7 |
| 20260508143854 | 58 | 255 | 6.1 | 12.2 | 0.00 | 0.00 | 0.00 | 60 | 974.6 |
| 20260508143754 | 58 | 248 | 7.0 | 12.2 | 0.00 | 0.00 | 0.00 | 59 | 974.7 |
| 20260508143653 | 58 | 249 | 7.0 | 12.2 | 0.00 | 0.00 | 0.00 | 60 | 974.7 |
| 20260508143556 | 58 | 262 | 7.0 | 15.6 | 0.00 | 0.00 | 0.00 | 58 | 974.7 |
| 20260508143455 | 58 | 233 | 7.8 | 15.6 | 0.00 | 0.00 | 0.00 | 58 | 974.7 |
| 20260508143354 | 58 | 229 | 7.8 | 15.6 | 0.00 | 0.00 | 0.00 | 58 | 974.7 |
| 20260508143255 | 58 | 180 | 7.8 | 15.6 | 0.00 | 0.00 | 0.00 | 59 | 974.7 |
| 20260508143152 | 58 | 206 | 7.0 | 15.6 | 0.00 | 0.00 | 0.00 | 59 | 974.7 |
| 20260508143050 | 58 | 162 | 7.0 | 15.6 | 0.00 | 0.00 | 0.00 | 58 | 974.7 |
| 20260508142952 | 58 | 213 | 7.0 | 15.6 | 0.00 | 0.00 | 0.00 | 59 | 974.8 |
| 20260508142855 | 58 | 185 | 7.0 | 15.6 | 0.00 | 0.00 | 0.00 | 59 | 974.8 |
| 20260508142753 | 58 | 239 | 7.0 | 15.6 | 0.00 | 0.00 | 0.00 | 59 | 974.9 |
| 20260508142651 | 58 | 249 | 7.0 | 15.6 | 0.00 | 0.00 | 0.00 | 59 | 974.8 |
| 20260508142552 | 58 | 222 | 6.1 | 13.9 | 0.00 | 0.00 | 0.00 | 59 | 974.8 |
| 20260508142455 | 58 | 232 | 6.1 | 13.9 | 0.00 | 0.00 | 0.00 | 59 | 974.8 |
| 20260508142350 | 58 | 223 | 6.1 | 13.9 | 0.00 | 0.00 | 0.00 | 61 | 974.9 |
| 20260508142250 | 58 | 281 | 6.1 | 13.9 | 0.00 | 0.00 | 0.00 | 61 | 974.9 |
| 20260508142150 | 58 | 248 | 6.1 | 13.9 | 0.00 | 0.00 | 0.00 | 60 | 974.8 |
| 20260508142049 | 58 | 281 | 6.1 | 13.9 | 0.00 | 0.00 | 0.00 | 61 | 974.9 |
| 20260508141953 | 57 | 205 | 6.1 | 13.9 | 0.00 | 0.00 | 0.00 | 59 | 974.8 |
| 20260508141852 | 58 | 208 | 5.2 | 13.9 | 0.00 | 0.00 | 0.00 | 59 | 974.8 |
| 20260508141750 | 58 | 259 | 5.2 | 13.9 | 0.00 | 0.00 | 0.00 | 60 | 974.9 |
| 20260508141650 | 58 | 239 | 5.2 | 11.3 | 0.00 | 0.00 | 0.00 | 60 | 974.8 |
| 20260508141552 | 58 | 246 | 5.2 | 11.3 | 0.00 | 0.00 | 0.00 | 60 | 974.9 |
| 20260508141451 | 57 | 258 | 5.2 | 11.3 | 0.00 | 0.00 | 0.00 | 61 | 974.9 |
| 20260508141350 | 57 | 195 | 5.2 | 12.2 | 0.00 | 0.00 | 0.00 | 61 | 974.9 |
| 20260508141247 | 57 | 221 | 5.2 | 12.2 | 0.00 | 0.00 | 0.00 | 60 | 975.0 |
| 20260508141148 | 57 | 275 | 5.2 | 12.2 | 0.00 | 0.00 | 0.00 | 60 | 975.0 |
| 20260508141047 | 57 | 246 | 5.2 | 12.2 | 0.00 | 0.00 | 0.00 | 63 | 975.0 |
| 20260508140949 | 57 | 269 | 5.2 | 12.2 | 0.00 | 0.00 | 0.00 | 63 | 975.0 |
| 20260508140846 | 56 | 269 | 5.2 | 12.2 | 0.00 | 0.00 | 0.00 | 62 | 974.9 |
| 20260508140748 | 56 | 232 | 6.1 | 12.2 | 0.00 | 0.00 | 0.00 | 61 | 974.9 |
| 20260508140647 | 56 | 249 | 5.2 | 12.2 | 0.00 | 0.00 | 0.00 | 59 | 974.9 |
| 20260508140548 | 56 | 229 | 5.2 | 12.2 | 0.00 | 0.00 | 0.00 | 59 | 974.9 |
| 20260508140445 | 56 | 209 | 5.2 | 9.6 | 0.00 | 0.00 | 0.00 | 60 | 974.9 |
| 20260508140346 | 56 | 225 | 5.2 | 9.6 | 0.00 | 0.00 | 0.00 | 61 | 974.9 |
| 20260508140247 | 56 | 223 | 5.2 | 9.6 | 0.00 | 0.00 | 0.00 | 60 | 974.9 |
| 20260508140146 | 56 | 243 | 5.2 | 9.6 | 0.00 | 0.00 | 0.00 | 61 | 974.9 |
| 20260508140046 | 56 | 231 | 5.2 | 9.6 | 0.00 | 0.00 | 0.00 | 60 | 974.9 |
| 20260508135952 | 56 | 281 | 5.2 | 9.6 | 0.00 | 0.00 | 0.00 | 62 | 975.0 |
| 20260508135851 | 56 | 262 | 5.2 | 9.6 | 0.00 | 0.00 | 0.00 | 60 | 975.0 |
| 20260508135747 | 56 | 221 | 5.2 | 9.6 | 0.00 | 0.00 | 0.00 | 61 | 975.0 |
| 20260508135648 | 56 | 221 | 5.2 | 9.6 | 0.00 | 0.00 | 0.00 | 64 | 975.0 |
| 20260508135548 | 55 | 219 | 5.2 | 9.6 | 0.00 | 0.00 | 0.00 | 61 | 975.1 |
| 20260508135449 | 55 | 250 | 4.3 | 9.6 | 0.00 | 0.00 | 0.00 | 61 | 975.1 |
| 20260508135345 | 55 | 271 | 4.3 | 8.7 | 0.00 | 0.00 | 0.00 | 60 | 975.1 |
| 20260508135243 | 55 | 271 | 4.3 | 8.7 | 0.00 | 0.00 | 0.00 | 60 | 975.1 |
| 20260508135142 | 56 | 252 | 3.5 | 8.7 | 0.00 | 0.00 | 0.00 | 59 | 975.1 |
| 20260508135042 | 56 | 269 | 3.5 | 8.7 | 0.00 | 0.00 | 0.00 | 59 | 975.1 |
| 20260508134945 | 56 | 282 | 4.3 | 8.7 | 0.00 | 0.00 | 0.00 | 60 | 975.2 |
| 20260508134842 | 56 | 241 | 4.3 | 11.3 | 0.00 | 0.00 | 0.00 | 60 | 975.1 |
| 20260508134744 | 56 | 268 | 4.3 | 11.3 | 0.00 | 0.00 | 0.00 | 61 | 975.1 |
| 20260508134643 | 56 | 253 | 4.3 | 11.3 | 0.00 | 0.00 | 0.00 | 61 | 975.1 |
| 20260508134542 | 55 | 250 | 4.3 | 11.3 | 0.00 | 0.00 | 0.00 | 62 | 975.1 |
| 20260508134444 | 55 | 208 | 4.3 | 11.3 | 0.00 | 0.00 | 0.00 | 62 | 975.1 |
| 20260508134343 | 55 | 227 | 5.2 | 11.3 | 0.00 | 0.00 | 0.00 | 63 | 975.1 |
| 20260508134242 | 55 | 258 | 5.2 | 11.3 | 0.00 | 0.00 | 0.00 | 63 | 975.2 |
| 20260508134141 | 55 | 268 | 5.2 | 11.3 | 0.00 | 0.00 | 0.00 | 62 | 975.2 |
| 20260508134042 | 55 | 233 | 5.2 | 11.3 | 0.00 | 0.00 | 0.00 | 61 | 975.2 |
| 20260508133943 | 55 | 180 | 5.2 | 11.3 | 0.00 | 0.00 | 0.00 | 60 | 975.2 |
| 20260508133844 | 55 | 178 | 5.2 | 10.4 | 0.00 | 0.00 | 0.00 | 59 | 975.1 |
| 20260508133742 | 55 | 288 | 5.2 | 9.6 | 0.00 | 0.00 | 0.00 | 60 | 975.2 |
| 20260508133642 | 55 | 243 | 5.2 | 9.6 | 0.00 | 0.00 | 0.00 | 59 | 975.3 |
| 20260508133545 | 55 | 217 | 5.2 | 9.6 | 0.00 | 0.00 | 0.00 | 62 | 975.2 |
| 20260508133441 | 55 | 223 | 5.2 | 9.6 | 0.00 | 0.00 | 0.00 | 61 | 975.1 |
| 20260508133339 | 55 | 271 | 5.2 | 9.6 | 0.00 | 0.00 | 0.00 | 60 | 975.1 |
| 20260508133240 | 55 | 237 | 4.3 | 9.6 | 0.00 | 0.00 | 0.00 | 61 | 975.1 |
| 20260508133140 | 55 | 242 | 4.3 | 8.7 | 0.00 | 0.00 | 0.00 | 60 | 975.1 |
| 20260508133040 | 55 | 219 | 4.3 | 8.7 | 0.00 | 0.00 | 0.00 | 61 | 975.0 |
| 20260508132936 | 54 | 262 | 4.3 | 9.6 | 0.00 | 0.00 | 0.00 | 60 | 975.1 |
| 20260508132838 | 54 | 236 | 4.3 | 9.6 | 0.00 | 0.00 | 0.00 | 62 | 975.1 |
| 20260508132735 | 54 | 221 | 4.3 | 9.6 | 0.00 | 0.00 | 0.00 | 62 | 975.0 |
| 20260508132634 | 54 | 269 | 4.3 | 9.6 | 0.00 | 0.00 | 0.00 | 60 | 975.1 |
| 20260508132535 | 54 | 165 | 4.3 | 9.6 | 0.00 | 0.00 | 0.00 | 60 | 975.1 |
| 20260508132434 | 54 | 207 | 4.3 | 9.6 | 0.00 | 0.00 | 0.00 | 61 | 975.1 |
| 20260508132335 | 54 | 240 | 4.3 | 9.6 | 0.00 | 0.00 | 0.00 | 61 | 975.0 |
| 20260508132236 | 54 | 259 | 4.3 | 9.6 | 0.00 | 0.00 | 0.00 | 61 | 975.1 |
| 20260508132134 | 54 | 224 | 4.3 | 9.6 | 0.00 | 0.00 | 0.00 | 60 | 975.0 |
| 20260508132035 | 54 | 249 | 4.3 | 9.6 | 0.00 | 0.00 | 0.00 | 61 | 975.0 |
| 20260508131936 | 54 | 225 | 4.3 | 8.7 | 0.00 | 0.00 | 0.00 | 60 | 975.0 |
| 20260508131833 | 54 | 281 | 4.3 | 7.8 | 0.00 | 0.00 | 0.00 | 60 | 975.0 |
| 20260508131732 | 54 | 278 | 4.3 | 7.8 | 0.00 | 0.00 | 0.00 | 60 | 975.0 |
| 20260508131634 | 54 | 262 | 3.5 | 7.8 | 0.00 | 0.00 | 0.00 | 60 | 975.0 |
| 20260508131531 | 54 | 234 | 3.5 | 7.8 | 0.00 | 0.00 | 0.00 | 60 | 975.0 |
| 20260508131432 | 54 | 193 | 3.5 | 7.8 | 0.00 | 0.00 | 0.00 | 61 | 975.0 |
| 20260508131332 | 54 | 246 | 3.5 | 7.8 | 0.00 | 0.00 | 0.00 | 60 | 975.0 |
| 20260508131231 | 54 | 239 | 3.5 | 7.8 | 0.00 | 0.00 | 0.00 | 61 | 975.0 |
| 20260508131132 | 54 | 208 | 3.5 | 7.0 | 0.00 | 0.00 | 0.00 | 62 | 975.0 |
| 20260508131033 | 54 | 262 | 3.5 | 7.0 | 0.00 | 0.00 | 0.00 | 63 | 975.0 |
| 20260508130931 | 54 | 191 | 3.5 | 7.0 | 0.00 | 0.00 | 0.00 | 62 | 975.0 |
| 20260508130830 | 54 | 214 | 3.5 | 7.8 | 0.00 | 0.00 | 0.00 | 62 | 975.0 |
| 20260508130733 | 53 | 267 | 3.5 | 7.8 | 0.00 | 0.00 | 0.00 | 64 | 975.0 |
| 20260508130632 | 53 | 207 | 3.5 | 7.8 | 0.00 | 0.00 | 0.00 | 62 | 975.0 |
| 20260508130531 | 53 | 197 | 4.3 | 7.8 | 0.00 | 0.00 | 0.00 | 64 | 975.0 |
| 20260508130430 | 53 | 169 | 4.3 | 7.8 | 0.00 | 0.00 | 0.00 | 64 | 975.0 |
| 20260508130330 | 53 | 236 | 4.3 | 7.8 | 0.00 | 0.00 | 0.00 | 63 | 975.1 |
| 20260508130231 | 53 | 232 | 4.3 | 7.8 | 0.00 | 0.00 | 0.00 | 65 | 975.1 |
| 20260508130221 | 51 | 224 | 5.2 | 11.3 | 0.00 | 0.00 | 0.00 | 60 | 974.7 |
| 20260508130216 | 50 | 240 | 3.5 | 7.0 | 0.00 | 0.00 | 0.00 | 63 | 975.2 |
| 20260508130211 | 47 | 208 | 2.6 | 5.2 | 0.00 | 0.00 | 0.00 | 79 | 975.1 |
| 20260508130205 | 47 | 203 | 2.6 | 3.5 | 0.00 | 0.00 | 0.00 | 80 | 975.2 |
| 20260508130159 | 51 | 259 | 4.3 | 8.7 | 0.00 | 0.00 | 0.00 | 62 | 974.9 |
| 20260508130150 | 51 | 245 | 4.3 | 8.7 | 0.00 | 0.00 | 0.00 | 62 | 974.9 |
| 20260508130144 | 51 | 231 | 4.3 | 8.7 | 0.00 | 0.00 | 0.00 | 62 | 974.8 |
| 20260508130137 | 51 | 222 | 4.3 | 8.7 | 0.00 | 0.00 | 0.00 | 62 | 974.8 |
| 20260508130130 | 53 | 266 | 4.3 | 7.8 | 0.00 | 0.00 | 0.00 | 65 | 975.0 |
| 20260508130125 | 51 | 224 | 4.3 | 8.7 | 0.00 | 0.00 | 0.00 | 62 | 974.8 |
| 20260508130118 | 51 | 238 | 3.5 | 8.7 | 0.00 | 0.00 | 0.00 | 62 | 974.7 |
| 20260508130112 | 51 | 291 | 3.5 | 8.7 | 0.00 | 0.00 | 0.00 | 62 | 974.8 |
| 20260508130106 | 51 | 233 | 3.5 | 7.8 | 0.00 | 0.00 | 0.00 | 62 | 974.8 |
| 20260508130054 | 51 | 219 | 3.5 | 7.8 | 0.00 | 0.00 | 0.00 | 62 | 974.8 |
| 20260508130049 | 51 | 222 | 3.5 | 7.8 | 0.00 | 0.00 | 0.00 | 62 | 974.8 |
| 20260508130042 | 51 | 205 | 3.5 | 7.8 | 0.00 | 0.00 | 0.00 | 62 | 974.8 |
| 20260508130038 | 51 | 209 | 3.5 | 7.8 | 0.00 | 0.00 | 0.00 | 62 | 974.8 |
| 20260508130032 | 53 | 203 | 3.5 | 7.8 | 0.00 | 0.00 | 0.00 | 64 | 975.1 |
| 20260508130025 | 51 | 234 | 3.5 | 7.8 | 0.00 | 0.00 | 0.00 | 62 | 974.9 |
| 20260508130019 | 51 | 217 | 3.5 | 7.8 | 0.00 | 0.00 | 0.00 | 62 | 974.8 |
| 20260508130014 | 51 | 238 | 3.5 | 7.0 | 0.00 | 0.00 | 0.00 | 62 | 974.9 |
| 20260508130008 | 51 | 226 | 3.5 | 7.8 | 0.00 | 0.00 | 0.00 | 62 | 974.9 |
| 20260508130003 | 51 | 188 | 3.5 | 7.8 | 0.00 | 0.00 | 0.00 | 62 | 974.9 |
| 20260508125959 | 51 | 240 | 3.5 | 7.8 | 0.00 | 0.00 | 0.00 | 62 | 974.9 |
| 20260508125953 | 51 | 244 | 3.5 | 7.8 | 0.00 | 0.00 | 0.00 | 62 | 974.9 |
| 20260508125949 | 51 | 220 | 3.5 | 7.8 | 0.00 | 0.00 | 0.00 | 62 | 974.9 |
| 20260508125943 | 51 | 221 | 3.5 | 7.8 | 0.00 | 0.00 | 0.00 | 62 | 974.8 |
| 20260508125938 | 51 | 238 | 3.5 | 7.8 | 0.00 | 0.00 | 0.00 | 62 | 974.9 |
| 20260508125931 | 53 | 214 | 3.5 | 7.8 | 0.00 | 0.00 | 0.00 | 65 | 975.0 |
| 20260508125925 | 51 | 230 | 3.5 | 7.8 | 0.00 | 0.00 | 0.00 | 61 | 974.8 |
| 20260508125920 | 51 | 231 | 3.5 | 7.8 | 0.00 | 0.00 | 0.00 | 62 | 974.8 |
| 20260508125914 | 51 | 208 | 3.5 | 7.8 | 0.00 | 0.00 | 0.00 | 61 | 974.9 |
| 20260508125908 | 51 | 241 | 3.5 | 8.7 | 0.00 | 0.00 | 0.00 | 61 | 974.9 |
| 20260508125903 | 51 | 226 | 3.5 | 8.7 | 0.00 | 0.00 | 0.00 | 61 | 974.9 |
| 20260508125855 | 51 | 250 | 3.5 | 8.7 | 0.00 | 0.00 | 0.00 | 61 | 974.9 |
| 20260508125846 | 51 | 233 | 3.5 | 8.7 | 0.00 | 0.00 | 0.00 | 62 | 974.9 |
| 20260508125839 | 51 | 223 | 3.5 | 8.7 | 0.00 | 0.00 | 0.00 | 61 | 974.9 |
| 20260508125833 | 53 | 226 | 3.5 | 6.1 | 0.00 | 0.00 | 0.00 | 66 | 975.1 |
| 20260508125826 | 51 | 205 | 3.5 | 8.7 | 0.00 | 0.00 | 0.00 | 61 | 974.9 |
| 20260508125820 | 51 | 283 | 3.5 | 8.7 | 0.00 | 0.00 | 0.00 | 61 | 974.8 |
| 20260508125815 | 51 | 216 | 3.5 | 8.7 | 0.00 | 0.00 | 0.00 | 61 | 974.8 |
| 20260508125805 | 51 | 224 | 3.5 | 8.7 | 0.00 | 0.00 | 0.00 | 61 | 974.8 |
| 20260508125758 | 51 | 225 | 3.5 | 8.7 | 0.00 | 0.00 | 0.00 | 61 | 974.8 |
| 20260508125749 | 51 | 191 | 4.3 | 11.3 | 0.00 | 0.00 | 0.00 | 61 | 974.8 |
| 20260508125742 | 51 | 219 | 4.3 | 11.3 | 0.00 | 0.00 | 0.00 | 62 | 974.8 |
| 20260508125735 | 51 | 229 | 4.3 | 11.3 | 0.00 | 0.00 | 0.00 | 61 | 974.8 |
| 20260508125730 | 53 | 212 | 3.5 | 6.1 | 0.00 | 0.00 | 0.00 | 66 | 975.1 |
| 20260508125725 | 51 | 242 | 4.3 | 11.3 | 0.00 | 0.00 | 0.00 | 61 | 974.9 |
| 20260508125716 | 51 | 206 | 3.5 | 11.3 | 0.00 | 0.00 | 0.00 | 61 | 974.9 |
| 20260508125712 | 51 | 229 | 4.3 | 11.3 | 0.00 | 0.00 | 0.00 | 61 | 974.9 |
| 20260508125702 | 51 | 244 | 4.3 | 11.3 | 0.00 | 0.00 | 0.00 | 61 | 974.9 |
| 20260508125655 | 51 | 267 | 4.3 | 11.3 | 0.00 | 0.00 | 0.00 | 61 | 974.8 |
| 20260508125644 | 51 | 231 | 4.3 | 11.3 | 0.00 | 0.00 | 0.00 | 61 | 974.8 |
| 20260508125637 | 51 | 217 | 4.3 | 11.3 | 0.00 | 0.00 | 0.00 | 61 | 974.8 |
| 20260508125630 | 52 | 224 | 3.5 | 6.1 | 0.00 | 0.00 | 0.00 | 66 | 975.1 |
| 20260508125623 | 51 | 243 | 4.3 | 11.3 | 0.00 | 0.00 | 0.00 | 61 | 974.8 |
| 20260508125617 | 51 | 221 | 4.3 | 11.3 | 0.00 | 0.00 | 0.00 | 61 | 974.8 |
| 20260508125605 | 51 | 248 | 5.2 | 11.3 | 0.00 | 0.00 | 0.00 | 61 | 974.8 |
| 20260508125558 | 51 | 235 | 4.3 | 11.3 | 0.00 | 0.00 | 0.00 | 61 | 974.7 |
| 20260508125552 | 51 | 238 | 5.2 | 11.3 | 0.00 | 0.00 | 0.00 | 61 | 974.8 |
| 20260508125547 | 51 | 240 | 5.2 | 11.3 | 0.00 | 0.00 | 0.00 | 61 | 974.7 |
| 20260508125541 | 51 | 226 | 5.2 | 11.3 | 0.00 | 0.00 | 0.00 | 61 | 974.7 |
| 20260508125532 | 52 | 227 | 3.5 | 6.1 | 0.00 | 0.00 | 0.00 | 65 | 975.1 |
| 20260508125524 | 51 | 224 | 5.2 | 11.3 | 0.00 | 0.00 | 0.00 | 60 | 974.7 |
| 20260508125513 | 51 | 249 | 5.2 | 11.3 | 0.00 | 0.00 | 0.00 | 61 | 974.7 |
| 20260508125503 | 51 | 193 | 5.2 | 11.3 | 0.00 | 0.00 | 0.00 | 61 | 974.7 |
| 20260508125456 | 51 | 195 | 4.3 | 11.3 | 0.00 | 0.00 | 0.00 | 61 | 974.6 |
| 20260508125448 | 51 | 247 | 4.3 | 11.3 | 0.00 | 0.00 | 0.00 | 61 | 974.7 |
| 20260508125437 | 51 | 210 | 4.3 | 11.3 | 0.00 | 0.00 | 0.00 | 61 | 974.7 |
| 20260508125430 | 52 | 188 | 3.5 | 6.1 | 0.00 | 0.00 | 0.00 | 66 | 975.1 |
| 20260508125422 | 51 | 225 | 4.3 | 11.3 | 0.00 | 0.00 | 0.00 | 61 | 974.7 |
| 20260508125416 | 51 | 253 | 5.2 | 11.3 | 0.00 | 0.00 | 0.00 | 61 | 974.7 |
| 20260508125409 | 51 | 245 | 5.2 | 11.3 | 0.00 | 0.00 | 0.00 | 61 | 974.7 |
| 20260508125403 | 51 | 227 | 5.2 | 11.3 | 0.00 | 0.00 | 0.00 | 61 | 974.7 |
| 20260508125351 | 51 | 224 | 5.2 | 11.3 | 0.00 | 0.00 | 0.00 | 62 | 974.7 |
| 20260508125348 | 51 | 243 | 5.2 | 11.3 | 0.00 | 0.00 | 0.00 | 61 | 974.7 |
| 20260508125340 | 51 | 235 | 5.2 | 11.3 | 0.00 | 0.00 | 0.00 | 61 | 974.7 |
| 20260508125333 | 52 | 198 | 3.5 | 6.1 | 0.00 | 0.00 | 0.00 | 65 | 975.1 |
| 20260508125327 | 51 | 216 | 5.2 | 11.3 | 0.00 | 0.00 | 0.00 | 61 | 974.7 |
| 20260508125318 | 51 | 255 | 5.2 | 11.3 | 0.00 | 0.00 | 0.00 | 61 | 974.7 |
| 20260508125311 | 51 | 230 | 5.2 | 11.3 | 0.00 | 0.00 | 0.00 | 61 | 974.7 |
| 20260508125306 | 51 | 225 | 5.2 | 11.3 | 0.00 | 0.00 | 0.00 | 61 | 974.7 |
| 20260508125257 | 51 | 231 | 5.2 | 10.4 | 0.00 | 0.00 | 0.00 | 61 | 974.8 |
| 20260508125252 | 51 | 240 | 5.2 | 10.4 | 0.00 | 0.00 | 0.00 | 62 | 974.8 |
| 20260508125247 | 51 | 274 | 5.2 | 10.4 | 0.00 | 0.00 | 0.00 | 61 | 974.9 |
| 20260508125231 | 52 | 229 | 3.5 | 6.1 | 0.00 | 0.00 | 0.00 | 66 | 975.1 |
| 20260508125228 | 51 | 209 | 5.2 | 10.4 | 0.00 | 0.00 | 0.00 | 62 | 974.9 |
| 20260508125221 | 51 | 219 | 5.2 | 10.4 | 0.00 | 0.00 | 0.00 | 61 | 974.9 |
| 20260508125216 | 51 | 256 | 5.2 | 10.4 | 0.00 | 0.00 | 0.00 | 62 | 974.9 |
| 20260508125206 | 51 | 225 | 5.2 | 10.4 | 0.00 | 0.00 | 0.00 | 62 | 974.9 |
| 20260508125158 | 51 | 240 | 5.2 | 10.4 | 0.00 | 0.00 | 0.00 | 62 | 974.9 |
| 20260508125152 | 51 | 205 | 5.2 | 10.4 | 0.00 | 0.00 | 0.00 | 61 | 974.9 |
| 20260508125143 | 51 | 242 | 5.2 | 10.4 | 0.00 | 0.00 | 0.00 | 61 | 974.9 |
| 20260508125134 | 52 | 187 | 3.5 | 6.1 | 0.00 | 0.00 | 0.00 | 66 | 975.1 |
| 20260508125126 | 51 | 232 | 4.3 | 10.4 | 0.00 | 0.00 | 0.00 | 62 | 974.9 |
| 20260508125123 | 51 | 236 | 4.3 | 9.6 | 0.00 | 0.00 | 0.00 | 61 | 974.9 |
| 20260508125116 | 51 | 242 | 4.3 | 9.6 | 0.00 | 0.00 | 0.00 | 62 | 974.9 |
| 20260508125108 | 51 | 205 | 4.3 | 9.6 | 0.00 | 0.00 | 0.00 | 62 | 974.9 |
| 20260508125102 | 51 | 234 | 4.3 | 9.6 | 0.00 | 0.00 | 0.00 | 61 | 975.0 |
| 20260508125056 | 51 | 236 | 4.3 | 9.6 | 0.00 | 0.00 | 0.00 | 62 | 975.0 |
| 20260508125048 | 51 | 238 | 4.3 | 9.6 | 0.00 | 0.00 | 0.00 | 62 | 975.0 |
| 20260508125041 | 51 | 230 | 4.3 | 9.6 | 0.00 | 0.00 | 0.00 | 62 | 975.0 |
| 20260508125034 | 52 | 219 | 3.5 | 6.1 | 0.00 | 0.00 | 0.00 | 66 | 975.1 |
| 20260508125029 | 51 | 228 | 4.3 | 9.6 | 0.00 | 0.00 | 0.00 | 62 | 975.0 |
| 20260508125021 | 51 | 216 | 4.3 | 9.6 | 0.00 | 0.00 | 0.00 | 62 | 975.0 |
| 20260508125016 | 51 | 257 | 4.3 | 9.6 | 0.00 | 0.00 | 0.00 | 63 | 975.0 |
| 20260508125010 | 51 | 216 | 4.3 | 9.6 | 0.00 | 0.00 | 0.00 | 63 | 975.0 |
| 20260508125002 | 51 | 226 | 4.3 | 9.6 | 0.00 | 0.00 | 0.00 | 62 | 975.0 |
| 20260508124952 | 51 | 233 | 4.3 | 9.6 | 0.00 | 0.00 | 0.00 | 62 | 975.0 |
| 20260508124944 | 51 | 217 | 4.3 | 9.6 | 0.00 | 0.00 | 0.00 | 62 | 975.1 |
| 20260508124938 | 51 | 253 | 4.3 | 9.6 | 0.00 | 0.00 | 0.00 | 63 | 975.0 |
| 20260508124932 | 52 | 196 | 2.6 | 6.1 | 0.00 | 0.00 | 0.00 | 68 | 975.1 |
| 20260508124920 | 51 | 221 | 4.3 | 9.6 | 0.00 | 0.00 | 0.00 | 63 | 975.1 |
| 20260508124913 | 50 | 217 | 4.3 | 9.6 | 0.00 | 0.00 | 0.00 | 63 | 975.1 |
| 20260508124906 | 50 | 241 | 4.3 | 9.6 | 0.00 | 0.00 | 0.00 | 62 | 975.2 |
| 20260508124901 | 50 | 238 | 3.5 | 7.8 | 0.00 | 0.00 | 0.00 | 63 | 975.1 |
| 20260508124855 | 50 | 237 | 4.3 | 7.8 | 0.00 | 0.00 | 0.00 | 63 | 975.1 |
| 20260508124848 | 50 | 224 | 4.3 | 7.8 | 0.00 | 0.00 | 0.00 | 63 | 975.1 |
| 20260508124842 | 50 | 226 | 4.3 | 7.8 | 0.00 | 0.00 | 0.00 | 62 | 975.2 |
| 20260508124835 | 50 | 237 | 4.3 | 7.8 | 0.00 | 0.00 | 0.00 | 63 | 975.1 |
| 20260508124830 | 51 | 198 | 2.6 | 6.1 | 0.00 | 0.00 | 0.00 | 67 | 975.1 |
| 20260508124824 | 50 | 218 | 4.3 | 7.8 | 0.00 | 0.00 | 0.00 | 63 | 975.1 |
| 20260508124817 | 50 | 230 | 4.3 | 7.8 | 0.00 | 0.00 | 0.00 | 63 | 975.1 |
| 20260508124810 | 50 | 202 | 4.3 | 7.8 | 0.00 | 0.00 | 0.00 | 62 | 975.1 |
| 20260508124800 | 50 | 216 | 4.3 | 8.7 | 0.00 | 0.00 | 0.00 | 63 | 975.1 |
| 20260508124755 | 50 | 241 | 4.3 | 9.6 | 0.00 | 0.00 | 0.00 | 63 | 975.1 |
| 20260508124751 | 50 | 231 | 4.3 | 9.6 | 0.00 | 0.00 | 0.00 | 63 | 975.1 |
| 20260508124742 | 50 | 227 | 4.3 | 9.6 | 0.00 | 0.00 | 0.00 | 62 | 975.1 |
| 20260508124734 | 51 | 229 | 2.6 | 6.1 | 0.00 | 0.00 | 0.00 | 67 | 975.1 |
| 20260508124730 | 50 | 205 | 5.2 | 9.6 | 0.00 | 0.00 | 0.00 | 62 | 975.0 |
| 20260508124723 | 50 | 245 | 5.2 | 9.6 | 0.00 | 0.00 | 0.00 | 62 | 975.0 |
| 20260508124713 | 50 | 254 | 5.2 | 9.6 | 0.00 | 0.00 | 0.00 | 63 | 975.0 |
| 20260508124708 | 50 | 230 | 5.2 | 9.6 | 0.00 | 0.00 | 0.00 | 63 | 975.0 |
| 20260508124703 | 50 | 233 | 5.2 | 9.6 | 0.00 | 0.00 | 0.00 | 63 | 975.0 |
| 20260508124657 | 50 | 226 | 5.2 | 9.6 | 0.00 | 0.00 | 0.00 | 62 | 975.0 |
| 20260508124651 | 50 | 241 | 4.3 | 9.6 | 0.00 | 0.00 | 0.00 | 63 | 975.0 |
| 20260508124638 | 50 | 190 | 4.3 | 7.8 | 0.00 | 0.00 | 0.00 | 62 | 975.0 |
| 20260508124632 | 51 | 215 | 2.6 | 6.1 | 0.00 | 0.00 | 0.00 | 69 | 975.2 |
| 20260508124625 | 50 | 226 | 5.2 | 7.8 | 0.00 | 0.00 | 0.00 | 63 | 975.0 |
| 20260508124619 | 50 | 233 | 5.2 | 9.6 | 0.00 | 0.00 | 0.00 | 63 | 974.9 |
| 20260508124612 | 50 | 237 | 4.3 | 9.6 | 0.00 | 0.00 | 0.00 | 63 | 975.0 |
| 20260508124607 | 50 | 233 | 4.3 | 9.6 | 0.00 | 0.00 | 0.00 | 63 | 975.0 |
| 20260508124602 | 50 | 219 | 4.3 | 9.6 | 0.00 | 0.00 | 0.00 | 63 | 975.0 |
| 20260508124556 | 50 | 236 | 4.3 | 9.6 | 0.00 | 0.00 | 0.00 | 63 | 975.1 |
| 20260508124549 | 50 | 219 | 4.3 | 9.6 | 0.00 | 0.00 | 0.00 | 63 | 975.1 |
| 20260508124540 | 50 | 231 | 4.3 | 9.6 | 0.00 | 0.00 | 0.00 | 63 | 975.1 |
| 20260508124532 | 51 | 219 | 2.6 | 6.1 | 0.00 | 0.00 | 0.00 | 68 | 975.1 |
| 20260508124528 | 50 | 249 | 4.3 | 9.6 | 0.00 | 0.00 | 0.00 | 63 | 975.2 |
| 20260508124516 | 50 | 231 | 4.3 | 9.6 | 0.00 | 0.00 | 0.00 | 63 | 975.2 |
| 20260508124508 | 50 | 217 | 4.3 | 9.6 | 0.00 | 0.00 | 0.00 | 63 | 975.2 |
| 20260508124502 | 50 | 241 | 4.3 | 8.7 | 0.00 | 0.00 | 0.00 | 63 | 975.2 |
| 20260508124454 | 50 | 219 | 4.3 | 8.7 | 0.00 | 0.00 | 0.00 | 63 | 975.1 |
| 20260508124447 | 50 | 241 | 4.3 | 8.7 | 0.00 | 0.00 | 0.00 | 63 | 975.2 |
| 20260508124438 | 50 | 227 | 4.3 | 8.7 | 0.00 | 0.00 | 0.00 | 63 | 975.1 |
| 20260508124432 | 51 | 214 | 2.6 | 6.1 | 0.00 | 0.00 | 0.00 | 68 | 975.1 |
| 20260508124425 | 50 | 215 | 4.3 | 8.7 | 0.00 | 0.00 | 0.00 | 63 | 975.2 |
| 20260508124418 | 50 | 219 | 4.3 | 8.7 | 0.00 | 0.00 | 0.00 | 63 | 975.2 |
| 20260508124413 | 50 | 229 | 4.3 | 8.7 | 0.00 | 0.00 | 0.00 | 62 | 975.2 |
| 20260508124407 | 50 | 219 | 4.3 | 8.7 | 0.00 | 0.00 | 0.00 | 63 | 975.1 |
| 20260508124358 | 50 | 251 | 4.3 | 7.0 | 0.00 | 0.00 | 0.00 | 63 | 975.2 |
| 20260508124353 | 50 | 206 | 4.3 | 7.0 | 0.00 | 0.00 | 0.00 | 63 | 975.2 |
| 20260508124346 | 50 | 198 | 3.5 | 7.0 | 0.00 | 0.00 | 0.00 | 63 | 975.2 |
| 20260508124340 | 50 | 219 | 3.5 | 7.0 | 0.00 | 0.00 | 0.00 | 63 | 975.3 |
| 20260508124333 | 51 | 236 | 2.6 | 6.1 | 0.00 | 0.00 | 0.00 | 69 | 975.2 |
| 20260508124328 | 50 | 217 | 3.5 | 7.0 | 0.00 | 0.00 | 0.00 | 63 | 975.3 |
| 20260508124319 | 50 | 223 | 3.5 | 7.0 | 0.00 | 0.00 | 0.00 | 63 | 975.2 |
| 20260508124313 | 50 | 219 | 3.5 | 7.0 | 0.00 | 0.00 | 0.00 | 63 | 975.2 |
| 20260508124309 | 50 | 240 | 3.5 | 7.0 | 0.00 | 0.00 | 0.00 | 63 | 975.2 |
| 20260508124301 | 50 | 224 | 3.5 | 7.0 | 0.00 | 0.00 | 0.00 | 63 | 975.2 |
| 20260508124255 | 50 | 230 | 3.5 | 7.8 | 0.00 | 0.00 | 0.00 | 63 | 975.2 |
| 20260508124246 | 50 | 223 | 4.3 | 8.7 | 0.00 | 0.00 | 0.00 | 62 | 975.1 |
| 20260508124237 | 50 | 180 | 3.5 | 8.7 | 0.00 | 0.00 | 0.00 | 62 | 975.2 |
| 20260508124232 | 51 | 187 | 2.6 | 6.1 | 0.00 | 0.00 | 0.00 | 67 | 975.2 |
| 20260508124225 | 51 | 244 | 4.3 | 8.7 | 0.00 | 0.00 | 0.00 | 62 | 975.2 |
| 20260508124218 | 51 | 223 | 4.3 | 8.7 | 0.00 | 0.00 | 0.00 | 62 | 975.2 |
| 20260508124212 | 51 | 214 | 4.3 | 8.7 | 0.00 | 0.00 | 0.00 | 62 | 975.2 |
| 20260508124200 | 51 | 245 | 4.3 | 8.7 | 0.00 | 0.00 | 0.00 | 62 | 975.3 |
| 20260508124155 | 51 | 227 | 4.3 | 8.7 | 0.00 | 0.00 | 0.00 | 62 | 975.3 |
| 20260508124148 | 51 | 221 | 4.3 | 8.7 | 0.00 | 0.00 | 0.00 | 62 | 975.3 |
| 20260508124141 | 51 | 252 | 4.3 | 8.7 | 0.00 | 0.00 | 0.00 | 62 | 975.2 |
| 20260508124134 | 50 | 219 | 2.6 | 6.1 | 0.00 | 0.00 | 0.00 | 67 | 975.2 |
| 20260508124128 | 51 | 226 | 4.3 | 8.7 | 0.00 | 0.00 | 0.00 | 62 | 975.3 |
| 20260508124114 | 51 | 221 | 4.3 | 9.6 | 0.00 | 0.00 | 0.00 | 62 | 975.2 |
| 20260508124110 | 51 | 209 | 4.3 | 9.6 | 0.00 | 0.00 | 0.00 | 62 | 975.2 |
| 20260508124105 | 51 | 235 | 4.3 | 9.6 | 0.00 | 0.00 | 0.00 | 62 | 975.1 |
| 20260508124057 | 51 | 224 | 4.3 | 9.6 | 0.00 | 0.00 | 0.00 | 62 | 975.1 |
| 20260508124050 | 51 | 217 | 4.3 | 9.6 | 0.00 | 0.00 | 0.00 | 62 | 975.1 |
| 20260508124040 | 51 | 223 | 4.3 | 9.6 | 0.00 | 0.00 | 0.00 | 62 | 975.1 |
| 20260508124035 | 50 | 195 | 2.6 | 5.2 | 0.00 | 0.00 | 0.00 | 68 | 975.3 |
| 20260508124026 | 51 | 208 | 4.3 | 9.6 | 0.00 | 0.00 | 0.00 | 62 | 975.2 |
| 20260508124017 | 51 | 271 | 4.3 | 9.6 | 0.00 | 0.00 | 0.00 | 62 | 975.2 |
| 20260508124012 | 51 | 264 | 4.3 | 9.6 | 0.00 | 0.00 | 0.00 | 62 | 975.2 |
| 20260508124004 | 51 | 252 | 5.2 | 9.6 | 0.00 | 0.00 | 0.00 | 62 | 975.2 |
| 20260508123953 | 51 | 259 | 5.2 | 9.6 | 0.00 | 0.00 | 0.00 | 62 | 975.2 |
| 20260508123945 | 51 | 265 | 4.3 | 9.6 | 0.00 | 0.00 | 0.00 | 62 | 975.2 |
| 20260508123936 | 50 | 213 | 1.7 | 4.3 | 0.00 | 0.00 | 0.00 | 69 | 975.3 |
| 20260508123929 | 51 | 221 | 4.3 | 9.6 | 0.00 | 0.00 | 0.00 | 62 | 975.2 |
| 20260508123920 | 51 | 218 | 4.3 | 9.6 | 0.00 | 0.00 | 0.00 | 62 | 975.3 |
| 20260508123913 | 51 | 231 | 4.3 | 9.6 | 0.00 | 0.00 | 0.00 | 62 | 975.2 |
| 20260508123905 | 51 | 211 | 4.3 | 9.6 | 0.00 | 0.00 | 0.00 | 62 | 975.2 |
| 20260508123901 | 51 | 257 | 3.5 | 9.6 | 0.00 | 0.00 | 0.00 | 62 | 975.2 |
| 20260508123851 | 51 | 223 | 3.5 | 9.6 | 0.00 | 0.00 | 0.00 | 62 | 975.2 |
| 20260508123844 | 51 | 241 | 3.5 | 9.6 | 0.00 | 0.00 | 0.00 | 62 | 975.2 |
| 20260508123838 | 51 | 207 | 3.5 | 9.6 | 0.00 | 0.00 | 0.00 | 62 | 975.2 |
| 20260508123831 | 50 | 228 | 1.7 | 4.3 | 0.00 | 0.00 | 0.00 | 69 | 975.3 |
| 20260508123821 | 51 | 219 | 3.5 | 7.8 | 0.00 | 0.00 | 0.00 | 63 | 975.2 |
| 20260508123815 | 51 | 225 | 3.5 | 7.8 | 0.00 | 0.00 | 0.00 | 62 | 975.2 |
| 20260508123810 | 51 | 233 | 3.5 | 7.8 | 0.00 | 0.00 | 0.00 | 63 | 975.2 |
| 20260508123805 | 51 | 224 | 4.3 | 7.8 | 0.00 | 0.00 | 0.00 | 63 | 975.2 |
| 20260508123758 | 51 | 213 | 4.3 | 7.8 | 0.00 | 0.00 | 0.00 | 63 | 975.2 |
| 20260508123747 | 51 | 252 | 4.3 | 8.7 | 0.00 | 0.00 | 0.00 | 63 | 975.3 |
| 20260508123742 | 51 | 304 | 4.3 | 10.4 | 0.00 | 0.00 | 0.00 | 63 | 975.2 |
| 20260508123734 | 51 | 225 | 4.3 | 10.4 | 0.00 | 0.00 | 0.00 | 63 | 975.3 |
| 20260508123729 | 50 | 221 | 1.7 | 4.3 | 0.00 | 0.00 | 0.00 | 69 | 975.3 |
| 20260508123700 | 51 | 214 | 4.3 | 10.4 | 0.00 | 0.00 | 0.00 | 63 | 975.3 |
| 20260508123646 | 51 | 245 | 4.3 | 10.4 | 0.00 | 0.00 | 0.00 | 63 | 975.2 |
| 20260508123641 | 51 | 241 | 4.3 | 10.4 | 0.00 | 0.00 | 0.00 | 63 | 975.3 |
| 20260508123634 | 50 | 225 | 1.7 | 4.3 | 0.00 | 0.00 | 0.00 | 69 | 975.2 |
| 20260508123627 | 51 | 226 | 4.3 | 10.4 | 0.00 | 0.00 | 0.00 | 63 | 975.3 |
| 20260508123622 | 51 | 238 | 4.3 | 10.4 | 0.00 | 0.00 | 0.00 | 63 | 975.3 |
| 20260508123616 | 51 | 217 | 4.3 | 10.4 | 0.00 | 0.00 | 0.00 | 63 | 975.2 |
| 20260508123611 | 51 | 209 | 4.3 | 8.7 | 0.00 | 0.00 | 0.00 | 63 | 975.2 |
| 20260508123606 | 51 | 199 | 4.3 | 7.0 | 0.00 | 0.00 | 0.00 | 64 | 975.2 |
| 20260508123557 | 51 | 262 | 4.3 | 7.0 | 0.00 | 0.00 | 0.00 | 64 | 975.3 |
| 20260508123550 | 51 | 244 | 4.3 | 7.0 | 0.00 | 0.00 | 0.00 | 64 | 975.3 |
| 20260508123539 | 50 | 231 | 1.7 | 4.3 | 0.00 | 0.00 | 0.00 | 68 | 975.3 |
| 20260508123530 | 51 | 237 | 4.3 | 13.0 | 0.00 | 0.00 | 0.00 | 64 | 975.3 |
| 20260508123519 | 51 | 218 | 4.3 | 13.0 | 0.00 | 0.00 | 0.00 | 65 | 975.3 |
| 20260508123512 | 51 | 226 | 4.3 | 13.0 | 0.00 | 0.00 | 0.00 | 65 | 975.3 |
| 20260508123509 | 51 | 217 | 4.3 | 13.0 | 0.00 | 0.00 | 0.00 | 64 | 975.3 |
| 20260508123459 | 51 | 207 | 4.3 | 13.0 | 0.00 | 0.00 | 0.00 | 64 | 975.3 |
| 20260508123451 | 51 | 238 | 4.3 | 13.0 | 0.00 | 0.00 | 0.00 | 64 | 975.2 |
| 20260508123445 | 51 | 243 | 4.3 | 13.0 | 0.00 | 0.00 | 0.00 | 64 | 975.2 |
| 20260508123437 | 51 | 192 | 4.3 | 13.0 | 0.00 | 0.00 | 0.00 | 64 | 975.2 |
| 20260508123431 | 50 | 215 | 1.7 | 4.3 | 0.00 | 0.00 | 0.00 | 68 | 975.2 |
| 20260508123423 | 51 | 226 | 5.2 | 13.0 | 0.00 | 0.00 | 0.00 | 65 | 975.3 |
| 20260508123419 | 51 | 272 | 5.2 | 13.0 | 0.00 | 0.00 | 0.00 | 65 | 975.3 |
| 20260508123413 | 51 | 215 | 5.2 | 13.0 | 0.00 | 0.00 | 0.00 | 65 | 975.3 |
| 20260508123404 | 51 | 218 | 5.2 | 13.0 | 0.00 | 0.00 | 0.00 | 65 | 975.3 |
| 20260508123355 | 51 | 234 | 5.2 | 13.0 | 0.00 | 0.00 | 0.00 | 65 | 975.3 |
| 20260508123349 | 51 | 228 | 5.2 | 13.0 | 0.00 | 0.00 | 0.00 | 65 | 975.3 |
| 20260508123343 | 50 | 213 | 5.2 | 13.0 | 0.00 | 0.00 | 0.00 | 65 | 975.3 |
| 20260508123337 | 51 | 209 | 5.2 | 13.0 | 0.00 | 0.00 | 0.00 | 65 | 975.3 |
| 20260508123331 | 50 | 210 | 1.7 | 4.3 | 0.00 | 0.00 | 0.00 | 68 | 975.2 |
| 20260508123326 | 51 | 205 | 5.2 | 13.0 | 0.00 | 0.00 | 0.00 | 66 | 975.3 |
| 20260508123320 | 51 | 239 | 5.2 | 13.0 | 0.00 | 0.00 | 0.00 | 66 | 975.3 |
| 20260508123314 | 51 | 217 | 5.2 | 13.0 | 0.00 | 0.00 | 0.00 | 65 | 975.3 |
| 20260508123307 | 51 | 171 | 5.2 | 8.7 | 0.00 | 0.00 | 0.00 | 65 | 975.3 |
| 20260508123304 | 51 | 227 | 5.2 | 8.7 | 0.00 | 0.00 | 0.00 | 66 | 975.4 |
| 20260508123251 | 50 | 176 | 5.2 | 8.7 | 0.00 | 0.00 | 0.00 | 65 | 975.3 |
| 20260508123244 | 50 | 219 | 5.2 | 9.6 | 0.00 | 0.00 | 0.00 | 66 | 975.3 |
| 20260508123234 | 50 | 212 | 1.7 | 4.3 | 0.00 | 0.00 | 0.00 | 68 | 975.2 |
| 20260508123231 | 50 | 230 | 5.2 | 9.6 | 0.00 | 0.00 | 0.00 | 66 | 975.3 |
| 20260508123223 | 50 | 213 | 5.2 | 9.6 | 0.00 | 0.00 | 0.00 | 66 | 975.3 |
| 20260508123217 | 50 | 225 | 5.2 | 9.6 | 0.00 | 0.00 | 0.00 | 66 | 975.3 |
| 20260508123210 | 50 | 245 | 5.2 | 9.6 | 0.00 | 0.00 | 0.00 | 67 | 975.3 |
| 20260508123159 | 50 | 232 | 5.2 | 9.6 | 0.00 | 0.00 | 0.00 | 67 | 975.3 |
| 20260508123153 | 50 | 225 | 5.2 | 9.6 | 0.00 | 0.00 | 0.00 | 67 | 975.3 |
| 20260508123149 | 50 | 215 | 5.2 | 9.6 | 0.00 | 0.00 | 0.00 | 67 | 975.2 |
| 20260508123143 | 50 | 222 | 5.2 | 9.6 | 0.00 | 0.00 | 0.00 | 67 | 975.3 |
| 20260508123136 | 50 | 226 | 5.2 | 9.6 | 0.00 | 0.00 | 0.00 | 67 | 975.3 |
| 20260508123130 | 50 | 230 | 1.7 | 3.5 | 0.00 | 0.00 | 0.00 | 69 | 975.3 |
| 20260508123124 | 50 | 232 | 5.2 | 9.6 | 0.00 | 0.00 | 0.00 | 67 | 975.3 |
| 20260508123119 | 50 | 236 | 5.2 | 9.6 | 0.00 | 0.00 | 0.00 | 67 | 975.3 |
| 20260508123112 | 50 | 216 | 5.2 | 9.6 | 0.00 | 0.00 | 0.00 | 67 | 975.3 |
| 20260508123105 | 50 | 211 | 5.2 | 9.6 | 0.00 | 0.00 | 0.00 | 68 | 975.2 |
| 20260508123058 | 50 | 237 | 4.3 | 9.6 | 0.00 | 0.00 | 0.00 | 68 | 975.3 |
| 20260508123052 | 49 | 243 | 4.3 | 8.7 | 0.00 | 0.00 | 0.00 | 68 | 975.3 |
| 20260508123047 | 49 | 229 | 4.3 | 8.7 | 0.00 | 0.00 | 0.00 | 68 | 975.2 |
| 20260508123039 | 49 | 221 | 4.3 | 8.7 | 0.00 | 0.00 | 0.00 | 69 | 975.2 |
| 20260508123030 | 50 | 255 | 1.7 | 3.5 | 0.00 | 0.00 | 0.00 | 70 | 975.3 |
| 20260508123024 | 49 | 214 | 4.3 | 8.7 | 0.00 | 0.00 | 0.00 | 69 | 975.3 |
| 20260508123014 | 49 | 214 | 4.3 | 8.7 | 0.00 | 0.00 | 0.00 | 70 | 975.3 |
| 20260508123009 | 49 | 236 | 3.5 | 8.7 | 0.00 | 0.00 | 0.00 | 70 | 975.2 |
| 20260508122959 | 49 | 230 | 3.5 | 7.0 | 0.00 | 0.00 | 0.00 | 71 | 975.3 |
| 20260508122954 | 49 | 258 | 3.5 | 7.0 | 0.00 | 0.00 | 0.00 | 72 | 975.3 |
| 20260508122948 | 48 | 205 | 3.5 | 7.0 | 0.00 | 0.00 | 0.00 | 72 | 975.2 |
| 20260508122929 | 50 | 257 | 1.7 | 4.3 | 0.00 | 0.00 | 0.00 | 70 | 975.3 |
| 20260508122924 | 48 | 226 | 3.5 | 7.0 | 0.00 | 0.00 | 0.00 | 72 | 975.2 |
| 20260508122917 | 48 | 214 | 3.5 | 7.0 | 0.00 | 0.00 | 0.00 | 72 | 975.3 |
| 20260508122907 | 48 | 200 | 3.5 | 5.2 | 0.00 | 0.00 | 0.00 | 73 | 975.2 |
| 20260508122901 | 48 | 221 | 3.5 | 5.2 | 0.00 | 0.00 | 0.00 | 73 | 975.2 |
| 20260508122855 | 48 | 217 | 3.5 | 5.2 | 0.00 | 0.00 | 0.00 | 73 | 975.2 |
| 20260508122852 | 48 | 193 | 3.5 | 5.2 | 0.00 | 0.00 | 0.00 | 73 | 975.2 |
| 20260508122842 | 48 | 200 | 3.5 | 5.2 | 0.00 | 0.00 | 0.00 | 73 | 975.2 |
| 20260508122834 | 50 | 231 | 1.7 | 4.3 | 0.00 | 0.00 | 0.00 | 70 | 975.3 |
| 20260508122827 | 48 | 194 | 3.5 | 5.2 | 0.00 | 0.00 | 0.00 | 73 | 975.2 |
| 20260508122822 | 48 | 203 | 3.5 | 5.2 | 0.00 | 0.00 | 0.00 | 73 | 975.3 |
| 20260508122813 | 48 | 202 | 3.5 | 5.2 | 0.00 | 0.00 | 0.00 | 73 | 975.2 |
| 20260508122805 | 48 | 219 | 3.5 | 6.1 | 0.00 | 0.00 | 0.00 | 74 | 975.3 |
| 20260508122757 | 48 | 207 | 3.5 | 6.1 | 0.00 | 0.00 | 0.00 | 73 | 975.2 |
| 20260508122742 | 48 | 219 | 3.5 | 6.1 | 0.00 | 0.00 | 0.00 | 74 | 975.2 |
| 20260508122733 | 50 | 231 | 1.7 | 4.3 | 0.00 | 0.00 | 0.00 | 70 | 975.3 |
| 20260508122729 | 48 | 220 | 3.5 | 6.1 | 0.00 | 0.00 | 0.00 | 74 | 975.2 |
| 20260508122725 | 48 | 203 | 3.5 | 6.1 | 0.00 | 0.00 | 0.00 | 74 | 975.2 |
| 20260508122714 | 48 | 219 | 3.5 | 6.1 | 0.00 | 0.00 | 0.00 | 74 | 975.2 |
| 20260508122709 | 48 | 226 | 3.5 | 6.1 | 0.00 | 0.00 | 0.00 | 75 | 975.2 |
| 20260508122702 | 48 | 214 | 3.5 | 6.1 | 0.00 | 0.00 | 0.00 | 75 | 975.1 |
| 20260508122656 | 48 | 205 | 3.5 | 6.1 | 0.00 | 0.00 | 0.00 | 75 | 975.2 |
| 20260508122649 | 48 | 210 | 3.5 | 6.1 | 0.00 | 0.00 | 0.00 | 76 | 975.2 |
| 20260508122643 | 47 | 208 | 3.5 | 6.1 | 0.00 | 0.00 | 0.00 | 76 | 975.2 |
| 20260508122638 | 47 | 195 | 3.5 | 6.1 | 0.00 | 0.00 | 0.00 | 76 | 975.2 |
| 20260508122626 | 47 | 231 | 3.5 | 6.1 | 0.00 | 0.00 | 0.00 | 77 | 975.2 |
| 20260508122618 | 47 | 217 | 3.5 | 6.1 | 0.00 | 0.00 | 0.00 | 77 | 975.1 |
| 20260508122614 | 47 | 211 | 3.5 | 6.1 | 0.00 | 0.00 | 0.00 | 77 | 975.1 |
| 20260508122556 | 47 | 215 | 2.6 | 5.2 | 0.00 | 0.00 | 0.00 | 77 | 975.0 |
| 20260508122554 | 47 | 217 | 2.6 | 5.2 | 0.00 | 0.00 | 0.00 | 77 | 975.1 |
| 20260508122543 | 47 | 212 | 2.6 | 4.3 | 0.00 | 0.00 | 0.00 | 77 | 975.1 |
| 20260508122538 | 50 | 231 | 1.7 | 4.3 | 0.00 | 0.00 | 0.00 | 69 | 975.2 |
| 20260508122531 | 47 | 212 | 2.6 | 4.3 | 0.00 | 0.00 | 0.00 | 77 | 975.1 |
| 20260508122523 | 47 | 212 | 2.6 | 4.3 | 0.00 | 0.00 | 0.00 | 77 | 975.1 |
| 20260508122513 | 47 | 212 | 2.6 | 4.3 | 0.00 | 0.00 | 0.00 | 77 | 975.1 |
| 20260508122504 | 48 | 210 | 2.6 | 3.5 | 0.00 | 0.00 | 0.00 | 77 | 975.1 |
| 20260508122457 | 48 | 212 | 2.6 | 3.5 | 0.00 | 0.00 | 0.00 | 77 | 975.1 |
| 20260508122450 | 48 | 212 | 2.6 | 4.3 | 0.00 | 0.00 | 0.00 | 77 | 975.1 |
| 20260508122444 | 48 | 212 | 2.6 | 4.3 | 0.00 | 0.00 | 0.00 | 77 | 975.1 |
| 20260508122438 | 48 | 212 | 2.6 | 4.3 | 0.00 | 0.00 | 0.00 | 77 | 975.1 |
| 20260508122432 | 50 | 221 | 1.7 | 4.3 | 0.00 | 0.00 | 0.00 | 70 | 975.2 |
| 20260508122423 | 48 | 211 | 2.6 | 4.3 | 0.00 | 0.00 | 0.00 | 77 | 975.2 |
| 20260508122418 | 48 | 211 | 2.6 | 4.3 | 0.00 | 0.00 | 0.00 | 77 | 975.1 |
| 20260508122408 | 48 | 212 | 2.6 | 4.3 | 0.00 | 0.00 | 0.00 | 77 | 975.1 |
| 20260508122401 | 48 | 211 | 2.6 | 4.3 | 0.00 | 0.00 | 0.00 | 77 | 975.1 |
| 20260508122352 | 48 | 211 | 2.6 | 4.3 | 0.00 | 0.00 | 0.00 | 77 | 975.1 |
| 20260508122342 | 48 | 211 | 2.6 | 4.3 | 0.00 | 0.00 | 0.00 | 77 | 975.1 |
| 20260508122333 | 50 | 222 | 1.7 | 4.3 | 0.00 | 0.00 | 0.00 | 70 | 975.1 |
| 20260508122329 | 48 | 211 | 2.6 | 4.3 | 0.00 | 0.00 | 0.00 | 77 | 975.1 |
| 20260508122320 | 48 | 210 | 2.6 | 3.5 | 0.00 | 0.00 | 0.00 | 76 | 975.1 |
| 20260508122313 | 48 | 210 | 2.6 | 3.5 | 0.00 | 0.00 | 0.00 | 76 | 975.1 |
| 20260508122307 | 48 | 210 | 1.7 | 3.5 | 0.00 | 0.00 | 0.00 | 77 | 975.1 |
| 20260508122255 | 48 | 210 | 1.7 | 3.5 | 0.00 | 0.00 | 0.00 | 77 | 975.1 |
| 20260508122247 | 48 | 210 | 1.7 | 3.5 | 0.00 | 0.00 | 0.00 | 77 | 975.1 |
| 20260508122240 | 48 | 210 | 1.7 | 3.5 | 0.00 | 0.00 | 0.00 | 77 | 975.1 |
| 20260508122234 | 50 | 222 | 1.7 | 4.3 | 0.00 | 0.00 | 0.00 | 70 | 975.1 |
| 20260508122227 | 48 | 210 | 1.7 | 3.5 | 0.00 | 0.00 | 0.00 | 77 | 975.1 |
| 20260508122220 | 48 | 210 | 1.7 | 3.5 | 0.00 | 0.00 | 0.00 | 77 | 975.1 |
| 20260508122212 | 48 | 210 | 2.6 | 3.5 | 0.00 | 0.00 | 0.00 | 77 | 975.1 |
| 20260508122205 | 48 | 210 | 2.6 | 3.5 | 0.00 | 0.00 | 0.00 | 77 | 975.1 |
| 20260508122159 | 48 | 210 | 2.6 | 3.5 | 0.00 | 0.00 | 0.00 | 77 | 975.1 |
| 20260508122151 | 48 | 210 | 2.6 | 3.5 | 0.00 | 0.00 | 0.00 | 77 | 975.1 |
| 20260508122145 | 48 | 210 | 2.6 | 3.5 | 0.00 | 0.00 | 0.00 | 77 | 975.1 |
| 20260508122140 | 48 | 210 | 2.6 | 3.5 | 0.00 | 0.00 | 0.00 | 77 | 975.1 |
| 20260508122132 | 50 | 226 | 0.9 | 4.3 | 0.00 | 0.00 | 0.00 | 70 | 975.1 |
| 20260508122125 | 48 | 210 | 2.6 | 5.2 | 0.00 | 0.00 | 0.00 | 77 | 975.1 |
| 20260508122118 | 48 | 210 | 2.6 | 5.2 | 0.00 | 0.00 | 0.00 | 77 | 975.1 |
| 20260508122109 | 48 | 216 | 2.6 | 5.2 | 0.00 | 0.00 | 0.00 | 77 | 975.1 |
| 20260508122102 | 48 | 216 | 2.6 | 5.2 | 0.00 | 0.00 | 0.00 | 77 | 975.1 |
| 20260508122048 | 48 | 214 | 2.6 | 5.2 | 0.00 | 0.00 | 0.00 | 77 | 975.1 |
| 20260508122042 | 48 | 214 | 2.6 | 5.2 | 0.00 | 0.00 | 0.00 | 77 | 975.1 |
| 20260508122038 | 50 | 227 | 0.9 | 4.3 | 0.00 | 0.00 | 0.00 | 70 | 975.1 |
| 20260508122030 | 48 | 211 | 2.6 | 5.2 | 0.00 | 0.00 | 0.00 | 77 | 975.1 |
| 20260508122024 | 47 | 211 | 2.6 | 5.2 | 0.00 | 0.00 | 0.00 | 77 | 975.0 |
| 20260508122017 | 47 | 213 | 2.6 | 5.2 | 0.00 | 0.00 | 0.00 | 78 | 975.1 |
| 20260508122010 | 47 | 210 | 2.6 | 5.2 | 0.00 | 0.00 | 0.00 | 78 | 975.1 |
| 20260508122003 | 47 | 212 | 2.6 | 5.2 | 0.00 | 0.00 | 0.00 | 78 | 975.1 |
| 20260508121954 | 47 | 224 | 2.6 | 5.2 | 0.00 | 0.00 | 0.00 | 79 | 975.1 |
| 20260508121947 | 47 | 211 | 2.6 | 5.2 | 0.00 | 0.00 | 0.00 | 79 | 975.1 |
| 20260508121940 | 47 | 208 | 2.6 | 5.2 | 0.00 | 0.00 | 0.00 | 79 | 975.1 |
| 20260508121935 | 50 | 209 | 0.9 | 2.6 | 0.00 | 0.00 | 0.00 | 71 | 975.1 |
| 20260508121929 | 47 | 208 | 2.6 | 5.2 | 0.00 | 0.00 | 0.00 | 79 | 975.1 |
| 20260508121921 | 47 | 207 | 2.6 | 5.2 | 0.00 | 0.00 | 0.00 | 79 | 975.1 |
| 20260508121914 | 47 | 214 | 2.6 | 4.3 | 0.00 | 0.00 | 0.00 | 79 | 975.1 |
| 20260508121906 | 47 | 212 | 2.6 | 4.3 | 0.00 | 0.00 | 0.00 | 80 | 975.1 |
| 20260508121901 | 47 | 217 | 2.6 | 4.3 | 0.00 | 0.00 | 0.00 | 80 | 975.1 |
| 20260508121855 | 47 | 211 | 2.6 | 4.3 | 0.00 | 0.00 | 0.00 | 80 | 975.1 |
| 20260508121849 | 47 | 203 | 2.6 | 3.5 | 0.00 | 0.00 | 0.00 | 80 | 975.2 |
| 20260508121838 | 47 | 212 | 1.7 | 3.5 | 0.00 | 0.00 | 0.00 | 80 | 975.2 |
| 20260508121832 | 49 | 219 | 0.9 | 2.6 | 0.00 | 0.00 | 0.00 | 71 | 975.1 |
| 20260508121827 | 47 | 208 | 1.7 | 3.5 | 0.00 | 0.00 | 0.00 | 80 | 975.2 |
| 20260508121818 | 47 | 183 | 1.7 | 2.6 | 0.00 | 0.00 | 0.00 | 80 | 975.2 |
| 20260508121808 | 47 | 183 | 1.7 | 2.6 | 0.00 | 0.00 | 0.00 | 80 | 975.2 |
| 20260508121803 | 47 | 181 | 1.7 | 2.6 | 0.00 | 0.00 | 0.00 | 80 | 975.2 |
| 20260508121756 | 47 | 181 | 1.7 | 2.6 | 0.00 | 0.00 | 0.00 | 80 | 975.2 |
| 20260508121750 | 47 | 181 | 1.7 | 3.5 | 0.00 | 0.00 | 0.00 | 79 | 975.1 |
| 20260508121744 | 47 | 181 | 1.7 | 3.5 | 0.00 | 0.00 | 0.00 | 79 | 975.2 |
| 20260508121739 | 47 | 181 | 1.7 | 4.3 | 0.00 | 0.00 | 0.00 | 79 | 975.2 |
| 20260508121730 | 49 | 216 | 0.9 | 2.6 | 0.00 | 0.00 | 0.00 | 70 | 975.1 |
| 20260508121723 | 47 | 181 | 2.6 | 4.3 | 0.00 | 0.00 | 0.00 | 79 | 975.1 |
| 20260508121719 | 47 | 181 | 2.6 | 4.3 | 0.00 | 0.00 | 0.00 | 79 | 975.1 |
| 20260508121713 | 47 | 181 | 2.6 | 4.3 | 0.00 | 0.00 | 0.00 | 79 | 975.1 |
| 20260508121709 | 47 | 181 | 2.6 | 4.3 | 0.00 | 0.00 | 0.00 | 79 | 975.1 |
| 20260508121657 | 47 | 181 | 2.6 | 4.3 | 0.00 | 0.00 | 0.00 | 79 | 975.1 |
| 20260508121653 | 47 | 181 | 2.6 | 4.3 | 0.00 | 0.00 | 0.00 | 79 | 975.0 |
| 20260508121646 | 47 | 181 | 2.6 | 4.3 | 0.00 | 0.00 | 0.00 | 79 | 975.0 |
| 20260508121639 | 47 | 181 | 2.6 | 4.3 | 0.00 | 0.00 | 0.00 | 79 | 975.0 |
| 20260508121632 | 49 | 216 | 0.9 | 2.6 | 0.00 | 0.00 | 0.00 | 71 | 975.2 |
| 20260508121628 | 47 | 180 | 2.6 | 4.3 | 0.00 | 0.00 | 0.00 | 79 | 975.0 |
| 20260508121615 | 47 | 178 | 2.6 | 4.3 | 0.00 | 0.00 | 0.00 | 79 | 975.0 |
| 20260508121609 | 47 | 221 | 2.6 | 4.3 | 0.00 | 0.00 | 0.00 | 79 | 975.0 |
| 20260508121603 | 47 | 221 | 2.6 | 4.3 | 0.00 | 0.00 | 0.00 | 79 | 975.0 |
| 20260508121557 | 47 | 221 | 2.6 | 4.3 | 0.00 | 0.00 | 0.00 | 79 | 975.0 |
| 20260508121552 | 47 | 221 | 2.6 | 4.3 | 0.00 | 0.00 | 0.00 | 79 | 975.0 |
| 20260508121543 | 47 | 221 | 1.7 | 3.5 | 0.00 | 0.00 | 0.00 | 79 | 975.1 |
| 20260508121539 | 47 | 221 | 1.7 | 3.5 | 0.00 | 0.00 | 0.00 | 79 | 975.1 |
| 20260508121532 | 49 | 214 | 0.9 | 2.6 | 0.00 | 0.00 | 0.00 | 72 | 975.2 |
| 20260508121529 | 47 | 221 | 1.7 | 3.5 | 0.00 | 0.00 | 0.00 | 78 | 975.0 |
| 20260508121512 | 47 | 221 | 1.7 | 3.5 | 0.00 | 0.00 | 0.00 | 78 | 975.0 |
| 20260508121501 | 47 | 221 | 1.7 | 3.5 | 0.00 | 0.00 | 0.00 | 78 | 975.1 |
| 20260508121447 | 47 | 221 | 1.7 | 3.5 | 0.00 | 0.00 | 0.00 | 78 | 975.1 |
| 20260508121443 | 47 | 221 | 0.9 | 3.5 | 0.00 | 0.00 | 0.00 | 77 | 975.0 |
| 20260508121439 | 47 | 221 | 0.9 | 3.5 | 0.00 | 0.00 | 0.00 | 77 | 975.1 |
| 20260508121431 | 49 | 214 | 0.9 | 1.7 | 0.00 | 0.00 | 0.00 | 72 | 975.2 |
| 20260508121426 | 47 | 221 | 0.9 | 3.5 | 0.00 | 0.00 | 0.00 | 77 | 975.1 |
| 20260508121418 | 47 | 221 | 0.9 | 3.5 | 0.00 | 0.00 | 0.00 | 77 | 975.1 |
| 20260508121404 | 47 | 221 | 0.9 | 3.5 | 0.00 | 0.00 | 0.00 | 77 | 975.1 |
| 20260508121357 | 47 | 221 | 0.9 | 3.5 | 0.00 | 0.00 | 0.00 | 76 | 975.1 |
| 20260508121349 | 47 | 221 | 0.9 | 3.5 | 0.00 | 0.00 | 0.00 | 76 | 975.1 |
| 20260508121346 | 47 | 221 | 0.9 | 3.5 | 0.00 | 0.00 | 0.00 | 76 | 975.1 |
| 20260508121340 | 48 | 221 | 0.9 | 3.5 | 0.00 | 0.00 | 0.00 | 76 | 975.1 |
| 20260508121330 | 49 | 214 | 0.9 | 1.7 | 0.00 | 0.00 | 0.00 | 72 | 975.2 |
| 20260508121324 | 48 | 221 | 1.7 | 3.5 | 0.00 | 0.00 | 0.00 | 76 | 975.1 |
| 20260508121318 | 48 | 221 | 1.7 | 3.5 | 0.00 | 0.00 | 0.00 | 76 | 975.0 |
| 20260508121312 | 48 | 221 | 1.7 | 3.5 | 0.00 | 0.00 | 0.00 | 76 | 975.0 |
| 20260508121300 | 48 | 221 | 1.7 | 3.5 | 0.00 | 0.00 | 0.00 | 76 | 974.9 |
| 20260508121256 | 48 | 221 | 1.7 | 3.5 | 0.00 | 0.00 | 0.00 | 76 | 974.9 |
| 20260508121249 | 48 | 221 | 2.6 | 3.5 | 0.00 | 0.00 | 0.00 | 76 | 974.9 |
| 20260508121240 | 48 | 221 | 2.6 | 3.5 | 0.00 | 0.00 | 0.00 | 76 | 975.0 |
| 20260508121237 | 49 | 214 | 0.9 | 1.7 | 0.00 | 0.00 | 0.00 | 72 | 975.3 |
| 20260508121226 | 48 | 221 | 2.6 | 3.5 | 0.00 | 0.00 | 0.00 | 76 | 975.0 |
| 20260508121218 | 48 | 221 | 2.6 | 3.5 | 0.00 | 0.00 | 0.00 | 76 | 975.0 |
| 20260508121211 | 48 | 221 | 2.6 | 3.5 | 0.00 | 0.00 | 0.00 | 76 | 975.0 |
| 20260508121158 | 48 | 221 | 2.6 | 3.5 | 0.00 | 0.00 | 0.00 | 76 | 975.0 |
| 20260508121150 | 48 | 221 | 2.6 | 3.5 | 0.00 | 0.00 | 0.00 | 76 | 975.0 |
| 20260508121145 | 48 | 221 | 2.6 | 3.5 | 0.00 | 0.00 | 0.00 | 76 | 975.0 |
| 20260508121137 | 48 | 221 | 2.6 | 3.5 | 0.00 | 0.00 | 0.00 | 76 | 975.0 |
| 20260508121130 | 49 | 214 | 0.9 | 2.6 | 0.00 | 0.00 | 0.00 | 73 | 975.3 |
| 20260508121124 | 48 | 221 | 2.6 | 3.5 | 0.00 | 0.00 | 0.00 | 76 | 975.0 |
| 20260508121108 | 48 | 221 | 2.6 | 3.5 | 0.00 | 0.00 | 0.00 | 76 | 975.0 |
| 20260508121103 | 48 | 221 | 2.6 | 3.5 | 0.00 | 0.00 | 0.00 | 76 | 975.0 |
| 20260508121052 | 48 | 221 | 2.6 | 3.5 | 0.00 | 0.00 | 0.00 | 75 | 975.0 |
| 20260508121048 | 48 | 221 | 2.6 | 3.5 | 0.00 | 0.00 | 0.00 | 75 | 975.0 |
| 20260508121039 | 48 | 221 | 2.6 | 3.5 | 0.00 | 0.00 | 0.00 | 75 | 975.0 |
| 20260508121030 | 49 | 214 | 0.9 | 2.6 | 0.00 | 0.00 | 0.00 | 73 | 975.1 |
| 20260508121023 | 49 | 221 | 1.7 | 3.5 | 0.00 | 0.00 | 0.00 | 75 | 975.0 |
| 20260508121017 | 49 | 221 | 1.7 | 3.5 | 0.00 | 0.00 | 0.00 | 75 | 975.0 |
| 20260508121010 | 49 | 221 | 1.7 | 3.5 | 0.00 | 0.00 | 0.00 | 75 | 975.0 |
| 20260508121004 | 49 | 221 | 1.7 | 3.5 | 0.00 | 0.00 | 0.00 | 75 | 975.0 |
| 20260508120956 | 49 | 221 | 1.7 | 3.5 | 0.00 | 0.00 | 0.00 | 75 | 974.9 |
| 20260508120949 | 49 | 221 | 1.7 | 3.5 | 0.00 | 0.00 | 0.00 | 75 | 975.0 |
| 20260508120943 | 49 | 221 | 1.7 | 3.5 | 0.00 | 0.00 | 0.00 | 75 | 975.0 |
| 20260508120938 | 49 | 221 | 1.7 | 2.6 | 0.00 | 0.00 | 0.00 | 75 | 975.0 |
| 20260508120931 | 49 | 214 | 1.7 | 2.6 | 0.00 | 0.00 | 0.00 | 71 | 975.1 |
| 20260508120924 | 49 | 221 | 1.7 | 3.5 | 0.00 | 0.00 | 0.00 | 75 | 975.0 |
| 20260508120917 | 49 | 221 | 1.7 | 3.5 | 0.00 | 0.00 | 0.00 | 75 | 975.0 |
| 20260508120909 | 49 | 221 | 1.7 | 3.5 | 0.00 | 0.00 | 0.00 | 75 | 975.0 |
| 20260508120902 | 49 | 221 | 1.7 | 3.5 | 0.00 | 0.00 | 0.00 | 74 | 975.0 |
| 20260508120856 | 49 | 221 | 1.7 | 3.5 | 0.00 | 0.00 | 0.00 | 74 | 975.0 |
| 20260508120845 | 49 | 221 | 1.7 | 3.5 | 0.00 | 0.00 | 0.00 | 74 | 975.0 |
| 20260508120839 | 49 | 221 | 1.7 | 3.5 | 0.00 | 0.00 | 0.00 | 74 | 975.0 |
| 20260508120833 | 49 | 214 | 0.9 | 3.5 | 0.00 | 0.00 | 0.00 | 72 | 975.1 |
| 20260508120824 | 49 | 221 | 1.7 | 3.5 | 0.00 | 0.00 | 0.00 | 74 | 975.0 |
| 20260508120817 | 49 | 221 | 1.7 | 3.5 | 0.00 | 0.00 | 0.00 | 74 | 975.1 |
| 20260508120810 | 49 | 221 | 1.7 | 3.5 | 0.00 | 0.00 | 0.00 | 74 | 975.1 |
| 20260508120804 | 49 | 219 | 1.7 | 3.5 | 0.00 | 0.00 | 0.00 | 74 | 975.1 |
| 20260508120759 | 49 | 219 | 1.7 | 3.5 | 0.00 | 0.00 | 0.00 | 74 | 975.1 |
| 20260508120749 | 49 | 219 | 0.9 | 2.6 | 0.00 | 0.00 | 0.00 | 74 | 975.1 |
| 20260508120744 | 49 | 219 | 1.7 | 2.6 | 0.00 | 0.00 | 0.00 | 74 | 975.1 |
| 20260508120740 | 49 | 219 | 1.7 | 2.6 | 0.00 | 0.00 | 0.00 | 74 | 975.1 |
| 20260508120731 | 49 | 214 | 0.9 | 3.5 | 0.00 | 0.00 | 0.00 | 72 | 975.1 |
| 20260508120727 | 49 | 219 | 1.7 | 2.6 | 0.00 | 0.00 | 0.00 | 75 | 975.1 |
| 20260508120717 | 49 | 219 | 1.7 | 2.6 | 0.00 | 0.00 | 0.00 | 75 | 975.1 |
| 20260508120712 | 49 | 219 | 1.7 | 2.6 | 0.00 | 0.00 | 0.00 | 76 | 975.1 |
| 20260508120707 | 49 | 219 | 1.7 | 2.6 | 0.00 | 0.00 | 0.00 | 76 | 975.1 |
| 20260508120700 | 49 | 219 | 1.7 | 2.6 | 0.00 | 0.00 | 0.00 | 76 | 975.0 |
| 20260508120653 | 49 | 219 | 1.7 | 2.6 | 0.00 | 0.00 | 0.00 | 76 | 975.0 |
| 20260508120644 | 49 | 219 | 1.7 | 2.6 | 0.00 | 0.00 | 0.00 | 75 | 975.0 |
| 20260508120635 | 49 | 214 | 0.9 | 3.5 | 0.00 | 0.00 | 0.00 | 72 | 975.1 |
| 20260508120630 | 49 | 219 | 1.7 | 2.6 | 0.00 | 0.00 | 0.00 | 76 | 975.0 |
| 20260508120623 | 49 | 219 | 1.7 | 2.6 | 0.00 | 0.00 | 0.00 | 76 | 975.0 |
| 20260508120618 | 49 | 219 | 1.7 | 2.6 | 0.00 | 0.00 | 0.00 | 76 | 975.0 |
| 20260508120611 | 49 | 219 | 1.7 | 2.6 | 0.00 | 0.00 | 0.00 | 76 | 975.0 |
| 20260508120602 | 49 | 219 | 1.7 | 2.6 | 0.00 | 0.00 | 0.00 | 76 | 975.0 |
| 20260508120557 | 49 | 219 | 1.7 | 2.6 | 0.00 | 0.00 | 0.00 | 76 | 975.0 |
| 20260508120549 | 49 | 219 | 1.7 | 2.6 | 0.00 | 0.00 | 0.00 | 76 | 975.0 |
| 20260508120543 | 49 | 219 | 1.7 | 2.6 | 0.00 | 0.00 | 0.00 | 75 | 975.0 |
| 20260508120538 | 49 | 219 | 1.7 | 2.6 | 0.00 | 0.00 | 0.00 | 75 | 975.0 |
| 20260508120531 | 49 | 214 | 0.9 | 3.5 | 0.00 | 0.00 | 0.00 | 72 | 975.1 |
| 20260508120524 | 49 | 219 | 1.7 | 2.6 | 0.00 | 0.00 | 0.00 | 75 | 975.0 |
| 20260508120518 | 49 | 219 | 1.7 | 2.6 | 0.00 | 0.00 | 0.00 | 75 | 974.9 |
| 20260508120511 | 50 | 219 | 0.9 | 2.6 | 0.00 | 0.00 | 0.00 | 74 | 974.9 |
| 20260508120507 | 50 | 219 | 0.9 | 2.6 | 0.00 | 0.00 | 0.00 | 74 | 974.9 |
| 20260508120502 | 50 | 219 | 0.9 | 2.6 | 0.00 | 0.00 | 0.00 | 74 | 974.9 |
| 20260508120451 | 50 | 219 | 0.9 | 2.6 | 0.00 | 0.00 | 0.00 | 73 | 974.9 |
| 20260508120447 | 50 | 219 | 0.9 | 2.6 | 0.00 | 0.00 | 0.00 | 73 | 974.9 |
| 20260508120441 | 50 | 219 | 0.9 | 1.7 | 0.00 | 0.00 | 0.00 | 73 | 974.9 |
| 20260508120432 | 49 | 213 | 0.9 | 3.5 | 0.00 | 0.00 | 0.00 | 73 | 975.2 |
| 20260508120428 | 50 | 219 | 0.9 | 1.7 | 0.00 | 0.00 | 0.00 | 73 | 974.9 |
| 20260508120422 | 50 | 219 | 0.9 | 1.7 | 0.00 | 0.00 | 0.00 | 73 | 975.0 |
| 20260508120417 | 50 | 219 | 0.9 | 2.6 | 0.00 | 0.00 | 0.00 | 73 | 974.9 |
| 20260508120409 | 50 | 219 | 0.9 | 2.6 | 0.00 | 0.00 | 0.00 | 73 | 974.9 |
| 20260508120403 | 50 | 219 | 0.9 | 2.6 | 0.00 | 0.00 | 0.00 | 73 | 974.9 |
| 20260508120359 | 50 | 219 | 0.9 | 2.6 | 0.00 | 0.00 | 0.00 | 73 | 974.9 |
| 20260508120353 | 50 | 219 | 0.9 | 2.6 | 0.00 | 0.00 | 0.00 | 74 | 974.9 |
| 20260508120347 | 50 | 219 | 0.9 | 2.6 | 0.00 | 0.00 | 0.00 | 74 | 974.9 |
| 20260508120339 | 50 | 219 | 1.7 | 2.6 | 0.00 | 0.00 | 0.00 | 73 | 974.9 |
| 20260508120334 | 49 | 213 | 0.9 | 3.5 | 0.00 | 0.00 | 0.00 | 73 | 975.1 |
| 20260508120327 | 50 | 219 | 1.7 | 2.6 | 0.00 | 0.00 | 0.00 | 73 | 974.9 |
| 20260508120320 | 50 | 219 | 1.7 | 2.6 | 0.00 | 0.00 | 0.00 | 72 | 974.9 |
| 20260508120313 | 50 | 219 | 0.9 | 2.6 | 0.00 | 0.00 | 0.00 | 72 | 974.9 |
| 20260508120308 | 50 | 219 | 0.9 | 1.7 | 0.00 | 0.00 | 0.00 | 72 | 974.9 |
| 20260508120259 | 50 | 219 | 0.9 | 1.7 | 0.00 | 0.00 | 0.00 | 72 | 974.9 |
| 20260508120253 | 50 | 219 | 0.9 | 1.7 | 0.00 | 0.00 | 0.00 | 71 | 974.9 |
| 20260508120249 | 50 | 219 | 0.9 | 1.7 | 0.00 | 0.00 | 0.00 | 71 | 974.8 |
| 20260508120243 | 50 | 219 | 0.9 | 1.7 | 0.00 | 0.00 | 0.00 | 71 | 974.9 |
| 20260508120234 | 49 | 213 | 0.9 | 3.5 | 0.00 | 0.00 | 0.00 | 74 | 975.1 |
| 20260508120229 | 50 | 219 | 0.9 | 1.7 | 0.00 | 0.00 | 0.00 | 71 | 974.8 |
| 20260508120222 | 50 | 219 | 0.0 | 1.7 | 0.00 | 0.00 | 0.00 | 71 | 974.9 |
| 20260508120218 | 50 | 219 | 0.0 | 1.7 | 0.00 | 0.00 | 0.00 | 71 | 974.9 |
| 20260508120212 | 50 | 219 | 0.0 | 2.6 | 0.00 | 0.00 | 0.00 | 71 | 974.9 |
| 20260508120207 | 50 | 219 | 0.0 | 2.6 | 0.00 | 0.00 | 0.00 | 71 | 974.9 |
| 20260508120202 | 50 | 219 | 0.0 | 2.6 | 0.00 | 0.00 | 0.00 | 71 | 975.0 |
| 20260508120155 | 50 | 219 | 0.0 | 2.6 | 0.00 | 0.00 | 0.00 | 71 | 975.0 |
| 20260508120149 | 51 | 219 | 0.0 | 2.6 | 0.00 | 0.00 | 0.00 | 71 | 975.1 |
| 20260508120142 | 51 | 219 | 0.0 | 2.6 | 0.00 | 0.00 | 0.00 | 71 | 975.1 |
| 20260508120136 | 51 | 219 | 0.9 | 2.6 | 0.00 | 0.00 | 0.00 | 71 | 975.1 |
| 20260508120130 | 49 | 210 | 0.9 | 3.5 | 0.00 | 0.00 | 0.00 | 74 | 975.1 |
| 20260508120124 | 51 | 219 | 0.9 | 2.6 | 0.00 | 0.00 | 0.00 | 71 | 975.0 |
| 20260508120120 | 49 | 231 | 0.9 | 2.6 | 0.00 | 0.00 | 0.00 | 73 | 975.2 |
| 20260508120114 | 48 | 231 | 0.9 | 2.6 | 0.00 | 0.00 | 0.00 | 73 | 975.2 |
| 20260508120108 | 48 | 231 | 0.9 | 2.6 | 0.00 | 0.00 | 0.00 | 73 | 975.2 |
| 20260508120056 | 48 | 231 | 0.9 | 2.6 | 0.00 | 0.00 | 0.00 | 72 | 975.1 |
| 20260508120050 | 48 | 231 | 0.9 | 2.6 | 0.00 | 0.00 | 0.00 | 72 | 975.1 |
| 20260508120046 | 48 | 231 | 0.9 | 2.6 | 0.00 | 0.00 | 0.00 | 72 | 975.1 |
| 20260508120041 | 48 | 231 | 0.9 | 2.6 | 0.00 | 0.00 | 0.00 | 73 | 975.1 |
| 20260508120035 | 48 | 231 | 0.9 | 2.6 | 0.00 | 0.00 | 0.00 | 73 | 975.1 |
| 20260508120029 | 49 | 178 | 0.9 | 3.5 | 0.00 | 0.00 | 0.00 | 73 | 975.1 |
| 20260508120023 | 48 | 214 | 0.9 | 2.6 | 0.00 | 0.00 | 0.00 | 73 | 975.0 |
| 20260508120018 | 48 | 214 | 0.9 | 2.6 | 0.00 | 0.00 | 0.00 | 73 | 975.1 |
| 20260508120012 | 48 | 219 | 0.9 | 2.6 | 0.00 | 0.00 | 0.00 | 73 | 975.1 |
| 20260508120005 | 48 | 224 | 0.9 | 2.6 | 0.00 | 0.00 | 0.00 | 73 | 975.1 |
| 20260508115958 | 48 | 224 | 0.9 | 3.5 | 0.00 | 0.00 | 0.00 | 73 | 975.1 |
| 20260508115952 | 48 | 224 | 0.9 | 3.5 | 0.00 | 0.00 | 0.00 | 73 | 975.2 |
| 20260508115942 | 48 | 224 | 0.9 | 3.5 | 0.00 | 0.00 | 0.00 | 73 | 975.1 |
| 20260508115935 | 48 | 224 | 0.9 | 3.5 | 0.00 | 0.00 | 0.00 | 73 | 975.1 |
| 20260508115930 | 49 | 182 | 0.9 | 3.5 | 0.00 | 0.00 | 0.00 | 74 | 975.1 |
| 20260508115926 | 48 | 224 | 0.9 | 3.5 | 0.00 | 0.00 | 0.00 | 72 | 975.1 |
| 20260508115918 | 48 | 224 | 0.9 | 3.5 | 0.00 | 0.00 | 0.00 | 72 | 975.0 |
| 20260508115912 | 48 | 224 | 0.9 | 3.5 | 0.00 | 0.00 | 0.00 | 73 | 975.0 |
| 20260508115906 | 48 | 224 | 0.9 | 3.5 | 0.00 | 0.00 | 0.00 | 73 | 974.9 |
| 20260508115901 | 48 | 224 | 0.9 | 3.5 | 0.00 | 0.00 | 0.00 | 73 | 974.9 |
| 20260508115855 | 48 | 186 | 0.9 | 3.5 | 0.00 | 0.00 | 0.00 | 72 | 974.9 |
| 20260508115850 | 48 | 174 | 0.9 | 3.5 | 0.00 | 0.00 | 0.00 | 72 | 974.9 |
| 20260508115844 | 48 | 173 | 1.7 | 3.5 | 0.00 | 0.00 | 0.00 | 72 | 975.0 |
| 20260508115839 | 48 | 291 | 1.7 | 3.5 | 0.00 | 0.00 | 0.00 | 73 | 975.1 |
| 20260508115833 | 49 | 182 | 0.9 | 3.5 | 0.00 | 0.00 | 0.00 | 74 | 975.2 |
| 20260508115826 | 48 | 291 | 1.7 | 3.5 | 0.00 | 0.00 | 0.00 | 73 | 975.1 |
| 20260508115820 | 48 | 291 | 1.7 | 3.5 | 0.00 | 0.00 | 0.00 | 73 | 975.1 |
| 20260508115816 | 48 | 286 | 1.7 | 3.5 | 0.00 | 0.00 | 0.00 | 73 | 975.1 |
| 20260508115810 | 48 | 269 | 1.7 | 3.5 | 0.00 | 0.00 | 0.00 | 72 | 975.0 |
| 20260508115802 | 48 | 245 | 1.7 | 3.5 | 0.00 | 0.00 | 0.00 | 72 | 975.0 |
| 20260508115757 | 48 | 212 | 1.7 | 3.5 | 0.00 | 0.00 | 0.00 | 72 | 974.9 |
| 20260508115751 | 48 | 221 | 1.7 | 3.5 | 0.00 | 0.00 | 0.00 | 72 | 974.8 |
| 20260508115744 | 48 | 184 | 1.7 | 3.5 | 0.00 | 0.00 | 0.00 | 72 | 974.7 |
| 20260508115738 | 48 | 179 | 1.7 | 3.5 | 0.00 | 0.00 | 0.00 | 72 | 974.8 |
| 20260508115730 | 49 | 182 | 0.9 | 3.5 | 0.00 | 0.00 | 0.00 | 73 | 975.2 |
| 20260508115724 | 48 | 205 | 1.7 | 2.6 | 0.00 | 0.00 | 0.00 | 72 | 974.9 |
| 20260508115720 | 48 | 321 | 1.7 | 2.6 | 0.00 | 0.00 | 0.00 | 72 | 975.0 |
| 20260508115714 | 48 | 321 | 1.7 | 2.6 | 0.00 | 0.00 | 0.00 | 72 | 975.0 |
| 20260508115708 | 48 | 321 | 1.7 | 2.6 | 0.00 | 0.00 | 0.00 | 72 | 975.1 |
| 20260508115704 | 48 | 321 | 1.7 | 2.6 | 0.00 | 0.00 | 0.00 | 72 | 975.1 |
| 20260508115658 | 48 | 248 | 1.7 | 2.6 | 0.00 | 0.00 | 0.00 | 71 | 975.0 |
| 20260508115653 | 48 | 246 | 1.7 | 2.6 | 0.00 | 0.00 | 0.00 | 72 | 974.9 |
| 20260508115647 | 48 | 217 | 1.7 | 2.6 | 0.00 | 0.00 | 0.00 | 72 | 974.8 |
| 20260508115641 | 48 | 205 | 0.9 | 2.6 | 0.00 | 0.00 | 0.00 | 72 | 974.8 |
| 20260508115637 | 48 | 205 | 0.9 | 2.6 | 0.00 | 0.00 | 0.00 | 72 | 974.8 |
| 20260508115631 | 49 | 182 | 1.7 | 3.5 | 0.00 | 0.00 | 0.00 | 73 | 975.2 |
| 20260508115621 | 48 | 195 | 0.9 | 2.6 | 0.00 | 0.00 | 0.00 | 72 | 974.8 |
| 20260508115614 | 48 | 207 | 0.9 | 2.6 | 0.00 | 0.00 | 0.00 | 72 | 974.9 |
| 20260508115610 | 48 | 324 | 0.9 | 2.6 | 0.00 | 0.00 | 0.00 | 72 | 974.9 |
| 20260508115604 | 48 | 324 | 0.9 | 2.6 | 0.00 | 0.00 | 0.00 | 72 | 975.0 |
| 20260508115558 | 48 | 324 | 0.9 | 3.5 | 0.00 | 0.00 | 0.00 | 71 | 975.0 |
| 20260508115548 | 49 | 324 | 0.9 | 3.5 | 0.00 | 0.00 | 0.00 | 71 | 975.0 |
| 20260508115541 | 49 | 321 | 0.9 | 3.5 | 0.00 | 0.00 | 0.00 | 71 | 975.0 |
| 20260508115530 | 49 | 182 | 1.7 | 3.5 | 0.00 | 0.00 | 0.00 | 73 | 975.1 |
| 20260508115524 | 49 | 328 | 0.9 | 3.5 | 0.00 | 0.00 | 0.00 | 70 | 975.0 |
| 20260508115517 | 49 | 333 | 0.9 | 3.5 | 0.00 | 0.00 | 0.00 | 70 | 974.9 |
| 20260508115513 | 49 | 220 | 0.9 | 3.5 | 0.00 | 0.00 | 0.00 | 69 | 974.9 |
| 20260508115507 | 49 | 220 | 0.9 | 3.5 | 0.00 | 0.00 | 0.00 | 70 | 974.8 |
| 20260508115502 | 49 | 220 | 0.9 | 3.5 | 0.00 | 0.00 | 0.00 | 70 | 974.7 |
| 20260508115456 | 49 | 217 | 0.9 | 3.5 | 0.00 | 0.00 | 0.00 | 70 | 974.7 |
| 20260508115452 | 49 | 248 | 0.9 | 3.5 | 0.00 | 0.00 | 0.00 | 69 | 974.7 |
| 20260508115447 | 49 | 250 | 0.9 | 2.6 | 0.00 | 0.00 | 0.00 | 70 | 974.7 |
| 20260508115441 | 49 | 249 | 0.0 | 2.6 | 0.00 | 0.00 | 0.00 | 69 | 974.7 |
| 20260508115434 | 49 | 356 | 0.9 | 1.7 | 0.00 | 0.00 | 0.00 | 70 | 974.7 |
| 20260508115430 | 49 | 182 | 1.7 | 3.5 | 0.00 | 0.00 | 0.00 | 73 | 975.1 |
| 20260508115425 | 49 | 356 | 0.9 | 2.6 | 0.00 | 0.00 | 0.00 | 70 | 974.7 |
| 20260508115419 | 49 | 356 | 0.9 | 2.6 | 0.00 | 0.00 | 0.00 | 70 | 974.7 |
| 20260508115415 | 49 | 356 | 0.9 | 2.6 | 0.00 | 0.00 | 0.00 | 69 | 974.7 |
| 20260508115409 | 49 | 356 | 0.9 | 2.6 | 0.00 | 0.00 | 0.00 | 69 | 974.7 |
| 20260508115403 | 49 | 356 | 0.9 | 2.6 | 0.00 | 0.00 | 0.00 | 69 | 974.7 |
| 20260508115357 | 49 | 356 | 0.9 | 2.6 | 0.00 | 0.00 | 0.00 | 69 | 974.7 |
| 20260508115352 | 49 | 356 | 0.9 | 2.6 | 0.00 | 0.00 | 0.00 | 69 | 974.7 |
| 20260508115347 | 49 | 356 | 0.9 | 2.6 | 0.00 | 0.00 | 0.00 | 68 | 974.7 |
| 20260508115342 | 49 | 356 | 0.9 | 2.6 | 0.00 | 0.00 | 0.00 | 67 | 974.7 |
| 20260508115335 | 49 | 27 | 0.9 | 3.5 | 0.00 | 0.00 | 0.00 | 67 | 974.6 |
| 20260508115331 | 49 | 182 | 1.7 | 3.5 | 0.00 | 0.00 | 0.00 | 74 | 975.0 |
| 20260508115325 | 49 | 27 | 0.9 | 3.5 | 0.00 | 0.00 | 0.00 | 68 | 974.6 |
| 20260508115320 | 49 | 258 | 0.9 | 3.5 | 0.00 | 0.00 | 0.00 | 68 | 974.5 |
| 20260508115314 | 49 | 231 | 0.9 | 3.5 | 0.00 | 0.00 | 0.00 | 68 | 974.5 |
| 20260508115310 | 49 | 231 | 1.7 | 4.3 | 0.00 | 0.00 | 0.00 | 69 | 974.5 |
| 20260508115300 | 49 | 231 | 1.7 | 6.1 | 0.00 | 0.00 | 0.00 | 69 | 974.5 |
| 20260508115255 | 49 | 231 | 2.6 | 7.0 | 0.00 | 0.00 | 0.00 | 69 | 974.4 |
| 20260508115250 | 49 | 231 | 2.6 | 7.0 | 0.00 | 0.00 | 0.00 | 69 | 974.4 |
| 20260508115244 | 49 | 203 | 2.6 | 7.0 | 0.00 | 0.00 | 0.00 | 68 | 974.3 |
| 20260508115238 | 49 | 203 | 2.6 | 7.0 | 0.00 | 0.00 | 0.00 | 68 | 974.3 |
| 20260508115233 | 49 | 182 | 1.7 | 3.5 | 0.00 | 0.00 | 0.00 | 73 | 975.1 |
| 20260508115225 | 49 | 203 | 2.6 | 7.0 | 0.00 | 0.00 | 0.00 | 67 | 974.3 |
| 20260508115221 | 49 | 190 | 2.6 | 7.0 | 0.00 | 0.00 | 0.00 | 67 | 974.4 |
| 20260508115215 | 49 | 231 | 3.5 | 7.8 | 0.00 | 0.00 | 0.00 | 67 | 974.3 |
| 20260508115210 | 49 | 249 | 3.5 | 7.8 | 0.00 | 0.00 | 0.00 | 67 | 974.4 |
| 20260508115205 | 49 | 179 | 3.5 | 7.8 | 0.00 | 0.00 | 0.00 | 67 | 974.4 |
| 20260508115159 | 49 | 216 | 3.5 | 7.8 | 0.00 | 0.00 | 0.00 | 67 | 974.4 |
| 20260508115153 | 49 | 241 | 3.5 | 7.8 | 0.00 | 0.00 | 0.00 | 67 | 974.4 |
| 20260508115149 | 49 | 243 | 3.5 | 7.8 | 0.00 | 0.00 | 0.00 | 68 | 974.4 |
| 20260508115143 | 49 | 222 | 3.5 | 7.8 | 0.00 | 0.00 | 0.00 | 68 | 974.4 |
| 20260508115138 | 49 | 226 | 3.5 | 7.8 | 0.00 | 0.00 | 0.00 | 68 | 974.4 |
| 20260508115131 | 49 | 184 | 1.7 | 3.5 | 0.00 | 0.00 | 0.00 | 73 | 975.1 |
| 20260508115126 | 49 | 233 | 3.5 | 7.8 | 0.00 | 0.00 | 0.00 | 68 | 974.3 |
| 20260508115120 | 49 | 207 | 3.5 | 7.8 | 0.00 | 0.00 | 0.00 | 68 | 974.3 |
| 20260508115116 | 49 | 216 | 3.5 | 7.0 | 0.00 | 0.00 | 0.00 | 68 | 974.3 |
| 20260508115110 | 49 | 220 | 3.5 | 7.0 | 0.00 | 0.00 | 0.00 | 68 | 974.3 |
| 20260508115106 | 49 | 206 | 3.5 | 7.0 | 0.00 | 0.00 | 0.00 | 68 | 974.3 |
| 20260508115100 | 49 | 184 | 3.5 | 7.0 | 0.00 | 0.00 | 0.00 | 68 | 974.3 |
| 20260508115054 | 49 | 201 | 3.5 | 7.0 | 0.00 | 0.00 | 0.00 | 68 | 974.3 |
| 20260508115049 | 49 | 217 | 3.5 | 7.0 | 0.00 | 0.00 | 0.00 | 68 | 974.4 |
| 20260508115044 | 49 | 188 | 3.5 | 7.0 | 0.00 | 0.00 | 0.00 | 68 | 974.3 |
| 20260508115037 | 49 | 184 | 1.7 | 3.5 | 0.00 | 0.00 | 0.00 | 73 | 975.1 |
| 20260508115031 | 49 | 245 | 3.5 | 7.0 | 0.00 | 0.00 | 0.00 | 68 | 974.3 |
| 20260508115023 | 49 | 219 | 3.5 | 7.0 | 0.00 | 0.00 | 0.00 | 68 | 974.4 |
| 20260508115017 | 49 | 231 | 3.5 | 5.2 | 0.00 | 0.00 | 0.00 | 68 | 974.3 |
| 20260508115012 | 49 | 227 | 2.6 | 5.2 | 0.00 | 0.00 | 0.00 | 68 | 974.3 |
| 20260508115008 | 49 | 216 | 3.5 | 5.2 | 0.00 | 0.00 | 0.00 | 68 | 974.4 |
| 20260508115002 | 49 | 220 | 3.5 | 5.2 | 0.00 | 0.00 | 0.00 | 68 | 974.3 |
| 20260508114955 | 49 | 211 | 3.5 | 5.2 | 0.00 | 0.00 | 0.00 | 68 | 974.3 |
| 20260508114949 | 49 | 215 | 2.6 | 5.2 | 0.00 | 0.00 | 0.00 | 68 | 974.4 |
| 20260508114944 | 49 | 223 | 2.6 | 5.2 | 0.00 | 0.00 | 0.00 | 68 | 974.4 |
| 20260508114938 | 49 | 229 | 2.6 | 5.2 | 0.00 | 0.00 | 0.00 | 68 | 974.4 |
| 20260508114934 | 49 | 229 | 2.6 | 5.2 | 0.00 | 0.00 | 0.00 | 67 | 974.4 |
| 20260508114929 | 49 | 186 | 0.9 | 3.5 | 0.00 | 0.00 | 0.00 | 73 | 975.1 |
| 20260508114923 | 49 | 202 | 2.6 | 5.2 | 0.00 | 0.00 | 0.00 | 67 | 974.4 |
| 20260508114916 | 49 | 213 | 2.6 | 6.1 | 0.00 | 0.00 | 0.00 | 67 | 974.4 |
| 20260508114911 | 49 | 213 | 2.6 | 6.1 | 0.00 | 0.00 | 0.00 | 67 | 974.4 |
| 20260508114905 | 49 | 213 | 2.6 | 6.1 | 0.00 | 0.00 | 0.00 | 67 | 974.4 |
| 20260508114900 | 49 | 228 | 2.6 | 6.1 | 0.00 | 0.00 | 0.00 | 67 | 974.5 |
| 20260508114854 | 49 | 216 | 2.6 | 6.1 | 0.00 | 0.00 | 0.00 | 66 | 974.5 |
| 20260508114848 | 49 | 229 | 3.5 | 6.1 | 0.00 | 0.00 | 0.00 | 66 | 974.4 |
| 20260508114843 | 49 | 250 | 3.5 | 6.1 | 0.00 | 0.00 | 0.00 | 66 | 974.5 |
| 20260508114837 | 49 | 224 | 3.5 | 6.1 | 0.00 | 0.00 | 0.00 | 66 | 974.5 |
| 20260508114832 | 49 | 181 | 0.9 | 3.5 | 0.00 | 0.00 | 0.00 | 72 | 975.1 |
| 20260508114826 | 49 | 237 | 3.5 | 6.1 | 0.00 | 0.00 | 0.00 | 66 | 974.5 |
| 20260508114820 | 50 | 216 | 3.5 | 6.1 | 0.00 | 0.00 | 0.00 | 66 | 974.5 |
| 20260508114815 | 50 | 210 | 2.6 | 6.1 | 0.00 | 0.00 | 0.00 | 66 | 974.5 |
| 20260508114809 | 50 | 196 | 2.6 | 6.1 | 0.00 | 0.00 | 0.00 | 66 | 974.5 |
| 20260508114804 | 50 | 233 | 2.6 | 6.1 | 0.00 | 0.00 | 0.00 | 66 | 974.5 |
| 20260508114758 | 50 | 227 | 2.6 | 6.1 | 0.00 | 0.00 | 0.00 | 66 | 974.5 |
| 20260508114752 | 50 | 262 | 2.6 | 6.1 | 0.00 | 0.00 | 0.00 | 66 | 974.5 |
| 20260508114746 | 50 | 240 | 2.6 | 6.1 | 0.00 | 0.00 | 0.00 | 66 | 974.5 |
| 20260508114741 | 50 | 230 | 2.6 | 7.0 | 0.00 | 0.00 | 0.00 | 66 | 974.5 |
| 20260508114735 | 50 | 231 | 2.6 | 7.0 | 0.00 | 0.00 | 0.00 | 66 | 974.5 |
| 20260508114728 | 49 | 186 | 0.9 | 2.6 | 0.00 | 0.00 | 0.00 | 72 | 975.1 |
| 20260508114722 | 50 | 224 | 2.6 | 7.0 | 0.00 | 0.00 | 0.00 | 66 | 974.6 |
| 20260508114717 | 50 | 250 | 2.6 | 7.0 | 0.00 | 0.00 | 0.00 | 66 | 974.6 |
| 20260508114711 | 50 | 245 | 2.6 | 7.0 | 0.00 | 0.00 | 0.00 | 66 | 974.6 |
| 20260508114705 | 50 | 216 | 2.6 | 7.0 | 0.00 | 0.00 | 0.00 | 65 | 974.5 |
| 20260508114700 | 50 | 249 | 2.6 | 7.0 | 0.00 | 0.00 | 0.00 | 65 | 974.6 |
| 20260508114654 | 50 | 228 | 2.6 | 7.0 | 0.00 | 0.00 | 0.00 | 65 | 974.6 |
| 20260508114648 | 50 | 254 | 2.6 | 7.0 | 0.00 | 0.00 | 0.00 | 65 | 974.6 |
| 20260508114644 | 50 | 229 | 2.6 | 7.0 | 0.00 | 0.00 | 0.00 | 66 | 974.6 |
| 20260508114636 | 50 | 274 | 2.6 | 8.7 | 0.00 | 0.00 | 0.00 | 65 | 974.6 |
| 20260508114629 | 49 | 187 | 0.0 | 2.6 | 0.00 | 0.00 | 0.00 | 72 | 975.2 |
| 20260508114625 | 50 | 226 | 2.6 | 8.7 | 0.00 | 0.00 | 0.00 | 65 | 974.6 |
| 20260508114618 | 50 | 238 | 2.6 | 8.7 | 0.00 | 0.00 | 0.00 | 65 | 974.6 |
| 20260508114613 | 50 | 269 | 2.6 | 8.7 | 0.00 | 0.00 | 0.00 | 65 | 974.6 |
| 20260508114602 | 50 | 226 | 2.6 | 8.7 | 0.00 | 0.00 | 0.00 | 65 | 974.6 |
| 20260508114557 | 50 | 241 | 2.6 | 8.7 | 0.00 | 0.00 | 0.00 | 65 | 974.5 |
| 20260508114551 | 50 | 248 | 2.6 | 8.7 | 0.00 | 0.00 | 0.00 | 65 | 974.5 |
| 20260508114547 | 50 | 225 | 2.6 | 8.7 | 0.00 | 0.00 | 0.00 | 65 | 974.6 |
| 20260508114541 | 50 | 217 | 3.5 | 8.7 | 0.00 | 0.00 | 0.00 | 65 | 974.6 |
| 20260508114532 | 49 | 231 | 0.0 | 1.7 | 0.00 | 0.00 | 0.00 | 72 | 975.2 |
| 20260508114527 | 50 | 210 | 3.5 | 8.7 | 0.00 | 0.00 | 0.00 | 65 | 974.5 |
| 20260508114521 | 50 | 247 | 2.6 | 7.8 | 0.00 | 0.00 | 0.00 | 65 | 974.6 |
| 20260508114513 | 50 | 214 | 2.6 | 7.8 | 0.00 | 0.00 | 0.00 | 65 | 974.6 |
| 20260508114506 | 50 | 264 | 2.6 | 7.8 | 0.00 | 0.00 | 0.00 | 65 | 974.6 |
| 20260508114500 | 50 | 266 | 3.5 | 7.8 | 0.00 | 0.00 | 0.00 | 65 | 974.6 |
| 20260508114452 | 50 | 274 | 3.5 | 7.8 | 0.00 | 0.00 | 0.00 | 65 | 974.6 |
| 20260508114446 | 50 | 237 | 3.5 | 7.8 | 0.00 | 0.00 | 0.00 | 65 | 974.6 |
| 20260508114440 | 50 | 224 | 3.5 | 7.8 | 0.00 | 0.00 | 0.00 | 65 | 974.5 |
| 20260508114436 | 50 | 257 | 3.5 | 7.8 | 0.00 | 0.00 | 0.00 | 65 | 974.6 |
| 20260508114431 | 49 | 231 | 0.0 | 1.7 | 0.00 | 0.00 | 0.00 | 72 | 975.2 |
| 20260508114426 | 50 | 273 | 3.5 | 7.8 | 0.00 | 0.00 | 0.00 | 65 | 974.5 |
| 20260508114419 | 50 | 252 | 3.5 | 10.4 | 0.00 | 0.00 | 0.00 | 65 | 974.6 |
| 20260508114413 | 50 | 207 | 4.3 | 10.4 | 0.00 | 0.00 | 0.00 | 65 | 974.5 |
| 20260508114406 | 50 | 246 | 4.3 | 10.4 | 0.00 | 0.00 | 0.00 | 65 | 974.6 |
| 20260508114400 | 50 | 238 | 4.3 | 10.4 | 0.00 | 0.00 | 0.00 | 65 | 974.6 |
| 20260508114356 | 50 | 238 | 4.3 | 10.4 | 0.00 | 0.00 | 0.00 | 65 | 974.6 |
| 20260508114348 | 50 | 269 | 3.5 | 10.4 | 0.00 | 0.00 | 0.00 | 65 | 974.7 |
| 20260508114342 | 51 | 184 | 3.5 | 10.4 | 0.00 | 0.00 | 0.00 | 65 | 974.7 |
| 20260508114336 | 51 | 241 | 3.5 | 10.4 | 0.00 | 0.00 | 0.00 | 64 | 974.7 |
| 20260508114330 | 49 | 231 | 0.0 | 0.9 | 0.00 | 0.00 | 0.00 | 73 | 975.2 |
| 20260508114324 | 51 | 266 | 3.5 | 10.4 | 0.00 | 0.00 | 0.00 | 64 | 974.6 |
| 20260508114320 | 51 | 237 | 3.5 | 10.4 | 0.00 | 0.00 | 0.00 | 64 | 974.7 |
| 20260508114313 | 51 | 229 | 2.6 | 9.6 | 0.00 | 0.00 | 0.00 | 64 | 974.8 |
| 20260508114309 | 51 | 217 | 3.5 | 6.1 | 0.00 | 0.00 | 0.00 | 64 | 974.7 |
| 20260508114303 | 51 | 248 | 2.6 | 7.0 | 0.00 | 0.00 | 0.00 | 64 | 974.7 |
| 20260508114257 | 51 | 264 | 2.6 | 7.0 | 0.00 | 0.00 | 0.00 | 64 | 974.7 |
| 20260508114252 | 51 | 281 | 2.6 | 7.0 | 0.00 | 0.00 | 0.00 | 63 | 974.7 |
| 20260508114245 | 51 | 245 | 2.6 | 7.0 | 0.00 | 0.00 | 0.00 | 63 | 974.7 |
| 20260508114237 | 51 | 224 | 2.6 | 7.0 | 0.00 | 0.00 | 0.00 | 63 | 974.7 |
| 20260508114229 | 49 | 231 | 0.0 | 0.9 | 0.00 | 0.00 | 0.00 | 73 | 975.2 |
| 20260508114223 | 51 | 224 | 2.6 | 7.0 | 0.00 | 0.00 | 0.00 | 63 | 974.7 |
| 20260508114219 | 51 | 243 | 2.6 | 7.0 | 0.00 | 0.00 | 0.00 | 63 | 974.8 |
| 20260508114212 | 51 | 205 | 2.6 | 7.0 | 0.00 | 0.00 | 0.00 | 63 | 974.7 |
| 20260508114205 | 51 | 221 | 2.6 | 7.0 | 0.00 | 0.00 | 0.00 | 63 | 974.7 |
| 20260508114159 | 51 | 232 | 2.6 | 7.0 | 0.00 | 0.00 | 0.00 | 63 | 974.8 |
| 20260508114155 | 51 | 226 | 3.5 | 8.7 | 0.00 | 0.00 | 0.00 | 63 | 974.8 |
| 20260508114149 | 51 | 228 | 3.5 | 8.7 | 0.00 | 0.00 | 0.00 | 63 | 974.8 |
| 20260508114144 | 51 | 237 | 3.5 | 8.7 | 0.00 | 0.00 | 0.00 | 63 | 974.8 |
| 20260508114138 | 51 | 176 | 3.5 | 8.7 | 0.00 | 0.00 | 0.00 | 63 | 974.8 |
| 20260508114133 | 51 | 247 | 3.5 | 8.7 | 0.00 | 0.00 | 0.00 | 63 | 974.8 |
| 20260508114127 | 49 | 231 | 0.0 | 0.9 | 0.00 | 0.00 | 0.00 | 73 | 975.2 |
| 20260508114121 | 51 | 245 | 3.5 | 8.7 | 0.00 | 0.00 | 0.00 | 63 | 974.8 |
| 20260508114117 | 51 | 212 | 3.5 | 8.7 | 0.00 | 0.00 | 0.00 | 63 | 974.8 |
| 20260508114111 | 51 | 230 | 3.5 | 8.7 | 0.00 | 0.00 | 0.00 | 63 | 974.8 |
| 20260508114057 | 51 | 254 | 3.5 | 8.7 | 0.00 | 0.00 | 0.00 | 63 | 974.8 |
| 20260508114052 | 51 | 247 | 3.5 | 8.7 | 0.00 | 0.00 | 0.00 | 62 | 974.8 |
| 20260508114047 | 51 | 261 | 3.5 | 8.7 | 0.00 | 0.00 | 0.00 | 63 | 974.8 |
| 20260508114041 | 51 | 220 | 3.5 | 7.0 | 0.00 | 0.00 | 0.00 | 63 | 974.8 |
| 20260508114032 | 51 | 221 | 4.3 | 7.0 | 0.00 | 0.00 | 0.00 | 62 | 974.8 |
| 20260508114028 | 49 | 231 | 0.0 | 0.9 | 0.00 | 0.00 | 0.00 | 72 | 975.2 |
| 20260508114020 | 51 | 165 | 4.3 | 8.7 | 0.00 | 0.00 | 0.00 | 62 | 974.8 |
| 20260508114014 | 51 | 224 | 4.3 | 8.7 | 0.00 | 0.00 | 0.00 | 62 | 974.8 |
| 20260508114006 | 48 | 231 | 0.0 | 2.6 | 0.00 | 0.00 | 0.00 | 72 | 975.2 |
| 20260508114000 | 48 | 231 | 0.0 | 0.9 | 0.00 | 0.00 | 0.00 | 72 | 975.2 |
| 20260508113952 | 51 | 236 | 4.3 | 8.7 | 0.00 | 0.00 | 0.00 | 62 | 974.9 |